<?xml version="1.0" encoding="UTF-8" standalone="no" ?>
<gpx xmlns="http://www.topografix.com/GPX/1/1" xmlns:xsi="http://www.w3.org/2001/XMLSchema-instance" xsi:schemaLocation="http://www.topografix.com/GPX/1/1 http://www.topografix.com/GPX/1/1/gpx.xsd" version="1.1" creator="VisuGPX - https://www.visugpx.com">
  <metadata>
    <name>Gibraltar</name>
  </metadata>
  <trk>
    <name><![CDATA[Gibraltar]]></name>
    <extensions>
      <line xmlns="http://www.topografix.com/GPX/gpx_style/0/2">
        <color>0000FF</color>
        <width>4</width>
      </line>
    </extensions>
    <trkseg>
      <trkpt lat="36.15778" lon="-5.35243">
        <ele>6.258871</ele>
        <time>2022-04-17T09:05:51.000Z</time>
      </trkpt>
      <trkpt lat="36.15778" lon="-5.35243">
        <ele>6.258871</ele>
        <time>2022-04-17T09:05:52.000Z</time>
      </trkpt>
      <trkpt lat="36.15774" lon="-5.3523">
        <ele>6.258871</ele>
        <time>2022-04-17T09:05:58.000Z</time>
      </trkpt>
      <trkpt lat="36.15764" lon="-5.35242">
        <ele>6.258871</ele>
        <time>2022-04-17T09:06:02.000Z</time>
      </trkpt>
      <trkpt lat="36.15754" lon="-5.35261">
        <ele>6.258871</ele>
        <time>2022-04-17T09:06:07.000Z</time>
      </trkpt>
      <trkpt lat="36.15752" lon="-5.35264">
        <ele>6.258871</ele>
        <time>2022-04-17T09:06:08.000Z</time>
      </trkpt>
      <trkpt lat="36.15745" lon="-5.35268">
        <ele>6.258871</ele>
        <time>2022-04-17T09:06:11.000Z</time>
      </trkpt>
      <trkpt lat="36.15734" lon="-5.35262">
        <ele>6.258871</ele>
        <time>2022-04-17T09:06:15.000Z</time>
      </trkpt>
      <trkpt lat="36.15727" lon="-5.35258">
        <ele>6.258871</ele>
        <time>2022-04-17T09:06:18.000Z</time>
      </trkpt>
      <trkpt lat="36.15716" lon="-5.35249">
        <ele>6.258871</ele>
        <time>2022-04-17T09:06:22.000Z</time>
      </trkpt>
      <trkpt lat="36.15705" lon="-5.35237">
        <ele>6.266107</ele>
        <time>2022-04-17T09:06:26.000Z</time>
      </trkpt>
      <trkpt lat="36.15696" lon="-5.35228">
        <ele>6.272996</ele>
        <time>2022-04-17T09:06:30.000Z</time>
      </trkpt>
      <trkpt lat="36.1569" lon="-5.35221">
        <ele>6.277846</ele>
        <time>2022-04-17T09:06:33.000Z</time>
      </trkpt>
      <trkpt lat="36.15689" lon="-5.35219">
        <ele>6.278982</ele>
        <time>2022-04-17T09:06:34.000Z</time>
      </trkpt>
      <trkpt lat="36.15688" lon="-5.35215">
        <ele>6.281018</ele>
        <time>2022-04-17T09:06:36.000Z</time>
      </trkpt>
      <trkpt lat="36.15686" lon="-5.35211">
        <ele>6.283166</ele>
        <time>2022-04-17T09:06:38.000Z</time>
      </trkpt>
      <trkpt lat="36.15684" lon="-5.35211">
        <ele>6.284351</ele>
        <time>2022-04-17T09:06:39.000Z</time>
      </trkpt>
      <trkpt lat="36.15674" lon="-5.35203">
        <ele>6.291496</ele>
        <time>2022-04-17T09:06:44.000Z</time>
      </trkpt>
      <trkpt lat="36.15671" lon="-5.35201">
        <ele>6.293656</ele>
        <time>2022-04-17T09:06:46.000Z</time>
      </trkpt>
      <trkpt lat="36.15667" lon="-5.35204">
        <ele>6.296095</ele>
        <time>2022-04-17T09:06:48.000Z</time>
      </trkpt>
      <trkpt lat="36.15661" lon="-5.3521">
        <ele>6.300815</ele>
        <time>2022-04-17T09:06:53.000Z</time>
      </trkpt>
      <trkpt lat="36.15657" lon="-5.35215">
        <ele>6.304241</ele>
        <time>2022-04-17T09:06:58.000Z</time>
      </trkpt>
      <trkpt lat="36.15655" lon="-5.35215">
        <ele>6.305555</ele>
        <time>2022-04-17T09:06:59.000Z</time>
      </trkpt>
      <trkpt lat="36.15647" lon="-5.35211">
        <ele>6.3104</ele>
        <time>2022-04-17T09:07:02.000Z</time>
      </trkpt>
      <trkpt lat="36.15633" lon="-5.35199">
        <ele>6.320773</ele>
        <time>2022-04-17T09:07:07.000Z</time>
      </trkpt>
      <trkpt lat="36.15613" lon="-5.35198">
        <ele>6.332733</ele>
        <time>2022-04-17T09:07:12.000Z</time>
      </trkpt>
      <trkpt lat="36.15595" lon="-5.35212">
        <ele>6.345236</ele>
        <time>2022-04-17T09:07:17.000Z</time>
      </trkpt>
      <trkpt lat="36.15582" lon="-5.35227">
        <ele>6.355808</ele>
        <time>2022-04-17T09:07:21.000Z</time>
      </trkpt>
      <trkpt lat="36.15574" lon="-5.35233">
        <ele>6.361628</ele>
        <time>2022-04-17T09:07:23.000Z</time>
      </trkpt>
      <trkpt lat="36.15563" lon="-5.35239">
        <ele>6.362687</ele>
        <time>2022-04-17T09:07:26.000Z</time>
      </trkpt>
      <trkpt lat="36.15557" lon="-5.35244">
        <ele>6.356292</ele>
        <time>2022-04-17T09:07:28.000Z</time>
      </trkpt>
      <trkpt lat="36.15546" lon="-5.35252">
        <ele>6.34439</ele>
        <time>2022-04-17T09:07:32.000Z</time>
      </trkpt>
      <trkpt lat="36.1554" lon="-5.35249">
        <ele>6.338828</ele>
        <time>2022-04-17T09:07:34.000Z</time>
      </trkpt>
      <trkpt lat="36.15539" lon="-5.35245">
        <ele>6.335961</ele>
        <time>2022-04-17T09:07:35.000Z</time>
      </trkpt>
      <trkpt lat="36.15542" lon="-5.35229">
        <ele>6.323855</ele>
        <time>2022-04-17T09:07:39.000Z</time>
      </trkpt>
      <trkpt lat="36.15547" lon="-5.3521">
        <ele>6.309385</ele>
        <time>2022-04-17T09:07:45.000Z</time>
      </trkpt>
      <trkpt lat="36.15539" lon="-5.35194">
        <ele>6.295138</ele>
        <time>2022-04-17T09:07:50.000Z</time>
      </trkpt>
      <trkpt lat="36.15527" lon="-5.35191">
        <ele>6.2839</ele>
        <time>2022-04-17T09:07:53.000Z</time>
      </trkpt>
      <trkpt lat="36.15523" lon="-5.35189">
        <ele>6.28009</ele>
        <time>2022-04-17T09:07:54.000Z</time>
      </trkpt>
      <trkpt lat="36.15519" lon="-5.35187">
        <ele>6.276214</ele>
        <time>2022-04-17T09:07:55.000Z</time>
      </trkpt>
      <trkpt lat="36.15512" lon="-5.35181">
        <ele>6.268145</ele>
        <time>2022-04-17T09:07:57.000Z</time>
      </trkpt>
      <trkpt lat="36.15506" lon="-5.35172">
        <ele>6.259945</ele>
        <time>2022-04-17T09:07:59.000Z</time>
      </trkpt>
      <trkpt lat="36.155" lon="-5.35157">
        <ele>6.247465</ele>
        <time>2022-04-17T09:08:02.000Z</time>
      </trkpt>
      <trkpt lat="36.15498" lon="-5.35145">
        <ele>6.238554</ele>
        <time>2022-04-17T09:08:04.000Z</time>
      </trkpt>
      <trkpt lat="36.15499" lon="-5.35113">
        <ele>6.2147</ele>
        <time>2022-04-17T09:08:09.000Z</time>
      </trkpt>
      <trkpt lat="36.155" lon="-5.35092">
        <ele>6.204557</ele>
        <time>2022-04-17T09:08:12.000Z</time>
      </trkpt>
      <trkpt lat="36.15502" lon="-5.35065">
        <ele>6.217477</ele>
        <time>2022-04-17T09:08:16.000Z</time>
      </trkpt>
      <trkpt lat="36.15503" lon="-5.35024">
        <ele>6.236941</ele>
        <time>2022-04-17T09:08:22.000Z</time>
      </trkpt>
      <trkpt lat="36.15506" lon="-5.34966">
        <ele>6.264711</ele>
        <time>2022-04-17T09:08:31.000Z</time>
      </trkpt>
      <trkpt lat="36.15507" lon="-5.34955">
        <ele>6.270196</ele>
        <time>2022-04-17T09:08:33.000Z</time>
      </trkpt>
      <trkpt lat="36.15513" lon="-5.34946">
        <ele>6.275488</ele>
        <time>2022-04-17T09:08:35.000Z</time>
      </trkpt>
      <trkpt lat="36.15517" lon="-5.34945">
        <ele>6.278141</ele>
        <time>2022-04-17T09:08:36.000Z</time>
      </trkpt>
      <trkpt lat="36.15522" lon="-5.34944">
        <ele>6.28089</ele>
        <time>2022-04-17T09:08:37.000Z</time>
      </trkpt>
      <trkpt lat="36.15546" lon="-5.34943">
        <ele>6.295319</ele>
        <time>2022-04-17T09:08:42.000Z</time>
      </trkpt>
      <trkpt lat="36.15581" lon="-5.34942">
        <ele>6.306392</ele>
        <time>2022-04-17T09:08:50.000Z</time>
      </trkpt>
      <trkpt lat="36.15596" lon="-5.34938">
        <ele>6.302795</ele>
        <time>2022-04-17T09:08:55.000Z</time>
      </trkpt>
      <trkpt lat="36.15599" lon="-5.34927">
        <ele>6.300626</ele>
        <time>2022-04-17T09:08:59.000Z</time>
      </trkpt>
      <trkpt lat="36.156" lon="-5.34904">
        <ele>6.296436</ele>
        <time>2022-04-17T09:09:05.000Z</time>
      </trkpt>
      <trkpt lat="36.15598" lon="-5.34886">
        <ele>6.293004</ele>
        <time>2022-04-17T09:09:11.000Z</time>
      </trkpt>
      <trkpt lat="36.15599" lon="-5.34867">
        <ele>6.289534</ele>
        <time>2022-04-17T09:09:18.000Z</time>
      </trkpt>
      <trkpt lat="36.15597" lon="-5.34846">
        <ele>6.285665</ele>
        <time>2022-04-17T09:09:24.000Z</time>
      </trkpt>
      <trkpt lat="36.15588" lon="-5.34847">
        <ele>6.283598</ele>
        <time>2022-04-17T09:09:28.000Z</time>
      </trkpt>
      <trkpt lat="36.15576" lon="-5.34848">
        <ele>6.280852</ele>
        <time>2022-04-17T09:09:34.000Z</time>
      </trkpt>
      <trkpt lat="36.15571" lon="-5.34849">
        <ele>6.279606</ele>
        <time>2022-04-17T09:09:37.000Z</time>
      </trkpt>
      <trkpt lat="36.15557" lon="-5.34849">
        <ele>6.276554</ele>
        <time>2022-04-17T09:09:44.000Z</time>
      </trkpt>
      <trkpt lat="36.15552" lon="-5.34847">
        <ele>6.27528</ele>
        <time>2022-04-17T09:09:46.000Z</time>
      </trkpt>
      <trkpt lat="36.15542" lon="-5.34848">
        <ele>6.273052</ele>
        <time>2022-04-17T09:09:50.000Z</time>
      </trkpt>
      <trkpt lat="36.15529" lon="-5.34847">
        <ele>6.270015</ele>
        <time>2022-04-17T09:09:56.000Z</time>
      </trkpt>
      <trkpt lat="36.15519" lon="-5.34847">
        <ele>6.267624</ele>
        <time>2022-04-17T09:10:00.000Z</time>
      </trkpt>
      <trkpt lat="36.15516" lon="-5.34846">
        <ele>6.263907</ele>
        <time>2022-04-17T09:10:03.000Z</time>
      </trkpt>
      <trkpt lat="36.15511" lon="-5.34844">
        <ele>6.258171</ele>
        <time>2022-04-17T09:10:10.000Z</time>
      </trkpt>
      <trkpt lat="36.15511" lon="-5.34844">
        <ele>6.258171</ele>
        <time>2022-04-17T09:10:13.000Z</time>
      </trkpt>
      <trkpt lat="36.1551" lon="-5.34844">
        <ele>6.257685</ele>
        <time>2022-04-17T09:10:21.000Z</time>
      </trkpt>
      <trkpt lat="36.15508" lon="-5.34844">
        <ele>6.255487</ele>
        <time>2022-04-17T09:10:25.000Z</time>
      </trkpt>
      <trkpt lat="36.15506" lon="-5.34843">
        <ele>6.253524</ele>
        <time>2022-04-17T09:10:27.000Z</time>
      </trkpt>
      <trkpt lat="36.15506" lon="-5.34843">
        <ele>6.2531</ele>
        <time>2022-04-17T09:10:33.000Z</time>
      </trkpt>
      <trkpt lat="36.15506" lon="-5.34843">
        <ele>6.2531</ele>
        <time>2022-04-17T09:10:34.000Z</time>
      </trkpt>
      <trkpt lat="36.155" lon="-5.34843">
        <ele>6.247254</ele>
        <time>2022-04-17T09:10:45.000Z</time>
      </trkpt>
      <trkpt lat="36.15499" lon="-5.34844">
        <ele>6.245485</ele>
        <time>2022-04-17T09:10:46.000Z</time>
      </trkpt>
      <trkpt lat="36.15494" lon="-5.34845">
        <ele>6.240538</ele>
        <time>2022-04-17T09:10:51.000Z</time>
      </trkpt>
      <trkpt lat="36.15493" lon="-5.34845">
        <ele>6.239245</ele>
        <time>2022-04-17T09:10:52.000Z</time>
      </trkpt>
      <trkpt lat="36.15485" lon="-5.34849">
        <ele>6.230722</ele>
        <time>2022-04-17T09:10:56.000Z</time>
      </trkpt>
      <trkpt lat="36.1548" lon="-5.34849">
        <ele>6.224779</ele>
        <time>2022-04-17T09:10:59.000Z</time>
      </trkpt>
      <trkpt lat="36.15477" lon="-5.34849">
        <ele>6.222335</ele>
        <time>2022-04-17T09:11:01.000Z</time>
      </trkpt>
      <trkpt lat="36.15476" lon="-5.3485">
        <ele>6.221048</ele>
        <time>2022-04-17T09:11:02.000Z</time>
      </trkpt>
      <trkpt lat="36.15475" lon="-5.34851">
        <ele>6.219927</ele>
        <time>2022-04-17T09:11:03.000Z</time>
      </trkpt>
      <trkpt lat="36.15474" lon="-5.34852">
        <ele>6.218335</ele>
        <time>2022-04-17T09:11:08.000Z</time>
      </trkpt>
      <trkpt lat="36.15474" lon="-5.34852">
        <ele>6.218335</ele>
        <time>2022-04-17T09:11:11.000Z</time>
      </trkpt>
      <trkpt lat="36.15473" lon="-5.34851">
        <ele>6.217565</ele>
        <time>2022-04-17T09:11:16.000Z</time>
      </trkpt>
      <trkpt lat="36.15473" lon="-5.34851">
        <ele>6.217565</ele>
        <time>2022-04-17T09:11:24.000Z</time>
      </trkpt>
      <trkpt lat="36.15473" lon="-5.34851">
        <ele>6.217565</ele>
        <time>2022-04-17T09:11:30.000Z</time>
      </trkpt>
      <trkpt lat="36.15473" lon="-5.34851">
        <ele>6.217357</ele>
        <time>2022-04-17T09:11:31.000Z</time>
      </trkpt>
      <trkpt lat="36.15457" lon="-5.34851">
        <ele>6.200296</ele>
        <time>2022-04-17T09:11:37.000Z</time>
      </trkpt>
      <trkpt lat="36.15435" lon="-5.34851">
        <ele>6.177937</ele>
        <time>2022-04-17T09:11:43.000Z</time>
      </trkpt>
      <trkpt lat="36.15418" lon="-5.34853">
        <ele>6.159785</ele>
        <time>2022-04-17T09:11:48.000Z</time>
      </trkpt>
      <trkpt lat="36.15403" lon="-5.34854">
        <ele>6.144764</ele>
        <time>2022-04-17T09:11:52.000Z</time>
      </trkpt>
      <trkpt lat="36.15369" lon="-5.34857">
        <ele>6.10857</ele>
        <time>2022-04-17T09:12:01.000Z</time>
      </trkpt>
      <trkpt lat="36.15332" lon="-5.3486">
        <ele>6.051569</ele>
        <time>2022-04-17T09:12:11.000Z</time>
      </trkpt>
      <trkpt lat="36.15313" lon="-5.34862">
        <ele>5.99161</ele>
        <time>2022-04-17T09:12:17.000Z</time>
      </trkpt>
      <trkpt lat="36.15287" lon="-5.34862">
        <ele>5.913664</ele>
        <time>2022-04-17T09:12:25.000Z</time>
      </trkpt>
      <trkpt lat="36.15266" lon="-5.34864">
        <ele>5.851128</ele>
        <time>2022-04-17T09:12:32.000Z</time>
      </trkpt>
      <trkpt lat="36.1526" lon="-5.34865">
        <ele>5.832997</ele>
        <time>2022-04-17T09:12:34.000Z</time>
      </trkpt>
      <trkpt lat="36.15249" lon="-5.34865">
        <ele>5.799334</ele>
        <time>2022-04-17T09:12:39.000Z</time>
      </trkpt>
      <trkpt lat="36.15243" lon="-5.34865">
        <ele>5.778708</ele>
        <time>2022-04-17T09:12:42.000Z</time>
      </trkpt>
      <trkpt lat="36.15237" lon="-5.34865">
        <ele>5.762872</ele>
        <time>2022-04-17T09:12:44.000Z</time>
      </trkpt>
      <trkpt lat="36.15221" lon="-5.3487">
        <ele>5.71129</ele>
        <time>2022-04-17T09:12:49.000Z</time>
      </trkpt>
      <trkpt lat="36.15188" lon="-5.34875">
        <ele>5.611408</ele>
        <time>2022-04-17T09:12:58.000Z</time>
      </trkpt>
      <trkpt lat="36.15162" lon="-5.34877">
        <ele>5.535443</ele>
        <time>2022-04-17T09:13:04.000Z</time>
      </trkpt>
      <trkpt lat="36.15155" lon="-5.34878">
        <ele>5.536278</ele>
        <time>2022-04-17T09:13:06.000Z</time>
      </trkpt>
      <trkpt lat="36.15124" lon="-5.3488">
        <ele>5.5399</ele>
        <time>2022-04-17T09:13:14.000Z</time>
      </trkpt>
      <trkpt lat="36.15081" lon="-5.34884">
        <ele>5.544899</ele>
        <time>2022-04-17T09:13:24.000Z</time>
      </trkpt>
      <trkpt lat="36.15044" lon="-5.34888">
        <ele>5.549224</ele>
        <time>2022-04-17T09:13:32.000Z</time>
      </trkpt>
      <trkpt lat="36.15012" lon="-5.34894">
        <ele>5.55293</ele>
        <time>2022-04-17T09:13:39.000Z</time>
      </trkpt>
      <trkpt lat="36.14998" lon="-5.34897">
        <ele>5.554574</ele>
        <time>2022-04-17T09:13:43.000Z</time>
      </trkpt>
      <trkpt lat="36.14994" lon="-5.349">
        <ele>5.555142</ele>
        <time>2022-04-17T09:13:45.000Z</time>
      </trkpt>
      <trkpt lat="36.1499" lon="-5.34903">
        <ele>5.555699</ele>
        <time>2022-04-17T09:13:50.000Z</time>
      </trkpt>
      <trkpt lat="36.14993" lon="-5.34901">
        <ele>5.556152</ele>
        <time>2022-04-17T09:13:57.000Z</time>
      </trkpt>
      <trkpt lat="36.14994" lon="-5.349">
        <ele>5.554217</ele>
        <time>2022-04-17T09:13:58.000Z</time>
      </trkpt>
      <trkpt lat="36.14998" lon="-5.34898">
        <ele>5.538049</ele>
        <time>2022-04-17T09:14:03.000Z</time>
      </trkpt>
      <trkpt lat="36.14998" lon="-5.34898">
        <ele>5.538049</ele>
        <time>2022-04-17T09:14:18.000Z</time>
      </trkpt>
      <trkpt lat="36.14998" lon="-5.34898">
        <ele>5.538049</ele>
        <time>2022-04-17T09:14:27.000Z</time>
      </trkpt>
      <trkpt lat="36.14998" lon="-5.34898">
        <ele>5.538049</ele>
        <time>2022-04-17T09:14:32.000Z</time>
      </trkpt>
      <trkpt lat="36.14998" lon="-5.34898">
        <ele>5.538049</ele>
        <time>2022-04-17T09:14:37.000Z</time>
      </trkpt>
      <trkpt lat="36.14998" lon="-5.34898">
        <ele>5.538049</ele>
        <time>2022-04-17T09:14:47.000Z</time>
      </trkpt>
      <trkpt lat="36.14998" lon="-5.34898">
        <ele>5.538049</ele>
        <time>2022-04-17T09:14:57.000Z</time>
      </trkpt>
      <trkpt lat="36.14998" lon="-5.34898">
        <ele>5.538049</ele>
        <time>2022-04-17T09:15:01.000Z</time>
      </trkpt>
      <trkpt lat="36.14998" lon="-5.34898">
        <ele>5.538049</ele>
        <time>2022-04-17T09:15:02.000Z</time>
      </trkpt>
      <trkpt lat="36.14998" lon="-5.34898">
        <ele>5.534886</ele>
        <time>2022-04-17T09:15:11.000Z</time>
      </trkpt>
      <trkpt lat="36.14999" lon="-5.34896">
        <ele>5.529223</ele>
        <time>2022-04-17T09:15:33.000Z</time>
      </trkpt>
      <trkpt lat="36.14998" lon="-5.34896">
        <ele>5.528412</ele>
        <time>2022-04-17T09:15:40.000Z</time>
      </trkpt>
      <trkpt lat="36.14998" lon="-5.34896">
        <ele>5.528067</ele>
        <time>2022-04-17T09:15:43.000Z</time>
      </trkpt>
      <trkpt lat="36.14998" lon="-5.34896">
        <ele>5.527723</ele>
        <time>2022-04-17T09:15:46.000Z</time>
      </trkpt>
      <trkpt lat="36.14998" lon="-5.34896">
        <ele>5.527723</ele>
        <time>2022-04-17T09:15:53.000Z</time>
      </trkpt>
      <trkpt lat="36.14998" lon="-5.34896">
        <ele>5.527723</ele>
        <time>2022-04-17T09:15:55.000Z</time>
      </trkpt>
      <trkpt lat="36.14998" lon="-5.34896">
        <ele>5.526015</ele>
        <time>2022-04-17T09:16:08.000Z</time>
      </trkpt>
      <trkpt lat="36.14998" lon="-5.34896">
        <ele>5.526015</ele>
        <time>2022-04-17T09:16:18.000Z</time>
      </trkpt>
      <trkpt lat="36.14998" lon="-5.34896">
        <ele>5.526015</ele>
        <time>2022-04-17T09:16:21.000Z</time>
      </trkpt>
      <trkpt lat="36.14998" lon="-5.34896">
        <ele>5.526015</ele>
        <time>2022-04-17T09:16:23.000Z</time>
      </trkpt>
      <trkpt lat="36.14998" lon="-5.34896">
        <ele>5.526015</ele>
        <time>2022-04-17T09:16:25.000Z</time>
      </trkpt>
      <trkpt lat="36.14998" lon="-5.34896">
        <ele>5.526015</ele>
        <time>2022-04-17T09:16:28.000Z</time>
      </trkpt>
      <trkpt lat="36.14998" lon="-5.34896">
        <ele>5.526015</ele>
        <time>2022-04-17T09:16:52.000Z</time>
      </trkpt>
      <trkpt lat="36.14998" lon="-5.34896">
        <ele>5.526015</ele>
        <time>2022-04-17T09:17:10.000Z</time>
      </trkpt>
      <trkpt lat="36.14998" lon="-5.34896">
        <ele>5.526015</ele>
        <time>2022-04-17T09:17:14.000Z</time>
      </trkpt>
      <trkpt lat="36.14998" lon="-5.34896">
        <ele>5.526015</ele>
        <time>2022-04-17T09:17:24.000Z</time>
      </trkpt>
      <trkpt lat="36.14998" lon="-5.34896">
        <ele>5.526015</ele>
        <time>2022-04-17T09:17:26.000Z</time>
      </trkpt>
      <trkpt lat="36.14998" lon="-5.34896">
        <ele>5.526015</ele>
        <time>2022-04-17T09:17:38.000Z</time>
      </trkpt>
      <trkpt lat="36.14998" lon="-5.34896">
        <ele>5.526015</ele>
        <time>2022-04-17T09:17:50.000Z</time>
      </trkpt>
      <trkpt lat="36.14998" lon="-5.34896">
        <ele>5.526015</ele>
        <time>2022-04-17T09:18:10.000Z</time>
      </trkpt>
      <trkpt lat="36.14998" lon="-5.34896">
        <ele>5.526015</ele>
        <time>2022-04-17T09:18:16.000Z</time>
      </trkpt>
      <trkpt lat="36.14998" lon="-5.34896">
        <ele>5.526015</ele>
        <time>2022-04-17T09:18:18.000Z</time>
      </trkpt>
      <trkpt lat="36.14998" lon="-5.34896">
        <ele>5.526015</ele>
        <time>2022-04-17T09:18:29.000Z</time>
      </trkpt>
      <trkpt lat="36.14998" lon="-5.34896">
        <ele>5.526015</ele>
        <time>2022-04-17T09:18:32.000Z</time>
      </trkpt>
      <trkpt lat="36.14998" lon="-5.34896">
        <ele>5.524688</ele>
        <time>2022-04-17T09:18:56.000Z</time>
      </trkpt>
      <trkpt lat="36.14998" lon="-5.34896">
        <ele>5.524688</ele>
        <time>2022-04-17T09:18:58.000Z</time>
      </trkpt>
      <trkpt lat="36.14998" lon="-5.34896">
        <ele>5.524688</ele>
        <time>2022-04-17T09:19:01.000Z</time>
      </trkpt>
      <trkpt lat="36.14998" lon="-5.34896">
        <ele>5.524261</ele>
        <time>2022-04-17T09:19:18.000Z</time>
      </trkpt>
      <trkpt lat="36.14999" lon="-5.34896">
        <ele>5.522615</ele>
        <time>2022-04-17T09:19:29.000Z</time>
      </trkpt>
      <trkpt lat="36.14998" lon="-5.34897">
        <ele>5.521804</ele>
        <time>2022-04-17T09:19:33.000Z</time>
      </trkpt>
      <trkpt lat="36.14998" lon="-5.34897">
        <ele>5.521804</ele>
        <time>2022-04-17T09:19:35.000Z</time>
      </trkpt>
      <trkpt lat="36.14997" lon="-5.34898">
        <ele>5.516316</ele>
        <time>2022-04-17T09:19:49.000Z</time>
      </trkpt>
      <trkpt lat="36.14997" lon="-5.34898">
        <ele>5.516316</ele>
        <time>2022-04-17T09:19:50.000Z</time>
      </trkpt>
      <trkpt lat="36.14997" lon="-5.34898">
        <ele>5.516316</ele>
        <time>2022-04-17T09:19:52.000Z</time>
      </trkpt>
      <trkpt lat="36.14997" lon="-5.34898">
        <ele>5.516316</ele>
        <time>2022-04-17T09:19:54.000Z</time>
      </trkpt>
      <trkpt lat="36.14997" lon="-5.34898">
        <ele>5.516316</ele>
        <time>2022-04-17T09:20:04.000Z</time>
      </trkpt>
      <trkpt lat="36.14997" lon="-5.34898">
        <ele>5.514861</ele>
        <time>2022-04-17T09:20:09.000Z</time>
      </trkpt>
      <trkpt lat="36.14991" lon="-5.34901">
        <ele>5.48644</ele>
        <time>2022-04-17T09:20:12.000Z</time>
      </trkpt>
      <trkpt lat="36.14976" lon="-5.34913">
        <ele>5.410531</ele>
        <time>2022-04-17T09:20:17.000Z</time>
      </trkpt>
      <trkpt lat="36.14958" lon="-5.34918">
        <ele>5.330164</ele>
        <time>2022-04-17T09:20:22.000Z</time>
      </trkpt>
      <trkpt lat="36.14945" lon="-5.3492">
        <ele>5.273405</ele>
        <time>2022-04-17T09:20:28.000Z</time>
      </trkpt>
      <trkpt lat="36.14931" lon="-5.34923">
        <ele>5.216019</ele>
        <time>2022-04-17T09:20:32.000Z</time>
      </trkpt>
      <trkpt lat="36.14926" lon="-5.34924">
        <ele>5.193075</ele>
        <time>2022-04-17T09:20:33.000Z</time>
      </trkpt>
      <trkpt lat="36.14909" lon="-5.34929">
        <ele>5.119613</ele>
        <time>2022-04-17T09:20:37.000Z</time>
      </trkpt>
      <trkpt lat="36.14899" lon="-5.34929">
        <ele>5.075952</ele>
        <time>2022-04-17T09:20:39.000Z</time>
      </trkpt>
      <trkpt lat="36.14894" lon="-5.3493">
        <ele>5.055873</ele>
        <time>2022-04-17T09:20:40.000Z</time>
      </trkpt>
      <trkpt lat="36.14885" lon="-5.34931">
        <ele>5.01761</ele>
        <time>2022-04-17T09:20:42.000Z</time>
      </trkpt>
      <trkpt lat="36.14874" lon="-5.34937">
        <ele>4.96615</ele>
        <time>2022-04-17T09:20:45.000Z</time>
      </trkpt>
      <trkpt lat="36.14868" lon="-5.34943">
        <ele>4.932217</ele>
        <time>2022-04-17T09:20:47.000Z</time>
      </trkpt>
      <trkpt lat="36.14859" lon="-5.34947">
        <ele>4.891698</ele>
        <time>2022-04-17T09:20:49.000Z</time>
      </trkpt>
      <trkpt lat="36.1485" lon="-5.34948">
        <ele>4.852789</ele>
        <time>2022-04-17T09:20:51.000Z</time>
      </trkpt>
      <trkpt lat="36.14841" lon="-5.34947">
        <ele>4.812867</ele>
        <time>2022-04-17T09:20:53.000Z</time>
      </trkpt>
      <trkpt lat="36.14832" lon="-5.34947">
        <ele>4.783755</ele>
        <time>2022-04-17T09:20:55.000Z</time>
      </trkpt>
      <trkpt lat="36.14819" lon="-5.34952">
        <ele>4.764909</ele>
        <time>2022-04-17T09:20:58.000Z</time>
      </trkpt>
      <trkpt lat="36.14802" lon="-5.34958">
        <ele>4.741102</ele>
        <time>2022-04-17T09:21:02.000Z</time>
      </trkpt>
      <trkpt lat="36.14794" lon="-5.34963">
        <ele>4.729063</ele>
        <time>2022-04-17T09:21:04.000Z</time>
      </trkpt>
      <trkpt lat="36.1478" lon="-5.3497">
        <ele>4.709611</ele>
        <time>2022-04-17T09:21:07.000Z</time>
      </trkpt>
      <trkpt lat="36.14759" lon="-5.34979">
        <ele>4.679109</ele>
        <time>2022-04-17T09:21:12.000Z</time>
      </trkpt>
      <trkpt lat="36.14751" lon="-5.34984">
        <ele>4.666806</ele>
        <time>2022-04-17T09:21:14.000Z</time>
      </trkpt>
      <trkpt lat="36.14734" lon="-5.34995">
        <ele>4.641672</ele>
        <time>2022-04-17T09:21:18.000Z</time>
      </trkpt>
      <trkpt lat="36.14731" lon="-5.34998">
        <ele>4.636282</ele>
        <time>2022-04-17T09:21:19.000Z</time>
      </trkpt>
      <trkpt lat="36.14706" lon="-5.35017">
        <ele>4.596142</ele>
        <time>2022-04-17T09:21:25.000Z</time>
      </trkpt>
      <trkpt lat="36.14685" lon="-5.35038">
        <ele>4.560704</ele>
        <time>2022-04-17T09:21:31.000Z</time>
      </trkpt>
      <trkpt lat="36.14683" lon="-5.35043">
        <ele>4.55418</ele>
        <time>2022-04-17T09:21:33.000Z</time>
      </trkpt>
      <trkpt lat="36.14681" lon="-5.35044">
        <ele>4.551365</ele>
        <time>2022-04-17T09:21:34.000Z</time>
      </trkpt>
      <trkpt lat="36.14679" lon="-5.35046">
        <ele>4.548437</ele>
        <time>2022-04-17T09:21:35.000Z</time>
      </trkpt>
      <trkpt lat="36.14673" lon="-5.35059">
        <ele>4.554031</ele>
        <time>2022-04-17T09:21:41.000Z</time>
      </trkpt>
      <trkpt lat="36.14665" lon="-5.35073">
        <ele>4.565451</ele>
        <time>2022-04-17T09:21:47.000Z</time>
      </trkpt>
      <trkpt lat="36.1466" lon="-5.35077">
        <ele>4.57014</ele>
        <time>2022-04-17T09:21:50.000Z</time>
      </trkpt>
      <trkpt lat="36.14659" lon="-5.35079">
        <ele>4.571261</ele>
        <time>2022-04-17T09:21:51.000Z</time>
      </trkpt>
      <trkpt lat="36.14659" lon="-5.35084">
        <ele>4.574923</ele>
        <time>2022-04-17T09:21:57.000Z</time>
      </trkpt>
      <trkpt lat="36.14654" lon="-5.351">
        <ele>4.586136</ele>
        <time>2022-04-17T09:22:03.000Z</time>
      </trkpt>
      <trkpt lat="36.14651" lon="-5.35116">
        <ele>4.596569</ele>
        <time>2022-04-17T09:22:08.000Z</time>
      </trkpt>
      <trkpt lat="36.14652" lon="-5.35119">
        <ele>4.598779</ele>
        <time>2022-04-17T09:22:09.000Z</time>
      </trkpt>
      <trkpt lat="36.14658" lon="-5.3513">
        <ele>4.607374</ele>
        <time>2022-04-17T09:22:13.000Z</time>
      </trkpt>
      <trkpt lat="36.14662" lon="-5.35135">
        <ele>4.612156</ele>
        <time>2022-04-17T09:22:15.000Z</time>
      </trkpt>
      <trkpt lat="36.14671" lon="-5.35152">
        <ele>4.625338</ele>
        <time>2022-04-17T09:22:21.000Z</time>
      </trkpt>
      <trkpt lat="36.14676" lon="-5.35162">
        <ele>4.633428</ele>
        <time>2022-04-17T09:22:24.000Z</time>
      </trkpt>
      <trkpt lat="36.14678" lon="-5.35165">
        <ele>4.63587</ele>
        <time>2022-04-17T09:22:25.000Z</time>
      </trkpt>
      <trkpt lat="36.14682" lon="-5.35175">
        <ele>4.642563</ele>
        <time>2022-04-17T09:22:27.000Z</time>
      </trkpt>
      <trkpt lat="36.14694" lon="-5.35199">
        <ele>4.661289</ele>
        <time>2022-04-17T09:22:34.000Z</time>
      </trkpt>
      <trkpt lat="36.14708" lon="-5.35222">
        <ele>4.680054</ele>
        <time>2022-04-17T09:22:40.000Z</time>
      </trkpt>
      <trkpt lat="36.14715" lon="-5.35235">
        <ele>4.690833</ele>
        <time>2022-04-17T09:22:44.000Z</time>
      </trkpt>
      <trkpt lat="36.14721" lon="-5.35242">
        <ele>4.693221</ele>
        <time>2022-04-17T09:22:47.000Z</time>
      </trkpt>
      <trkpt lat="36.14722" lon="-5.35245">
        <ele>4.693979</ele>
        <time>2022-04-17T09:22:48.000Z</time>
      </trkpt>
      <trkpt lat="36.14717" lon="-5.35258">
        <ele>4.697195</ele>
        <time>2022-04-17T09:22:51.000Z</time>
      </trkpt>
      <trkpt lat="36.1471" lon="-5.35261">
        <ele>4.69921</ele>
        <time>2022-04-17T09:22:52.000Z</time>
      </trkpt>
      <trkpt lat="36.14697" lon="-5.35267">
        <ele>4.703303</ele>
        <time>2022-04-17T09:22:54.000Z</time>
      </trkpt>
      <trkpt lat="36.14686" lon="-5.35274">
        <ele>4.706702</ele>
        <time>2022-04-17T09:22:56.000Z</time>
      </trkpt>
      <trkpt lat="36.14671" lon="-5.3528">
        <ele>4.711124</ele>
        <time>2022-04-17T09:22:59.000Z</time>
      </trkpt>
      <trkpt lat="36.14656" lon="-5.35288">
        <ele>4.71577</ele>
        <time>2022-04-17T09:23:03.000Z</time>
      </trkpt>
      <trkpt lat="36.1465" lon="-5.35295">
        <ele>4.71834</ele>
        <time>2022-04-17T09:23:05.000Z</time>
      </trkpt>
      <trkpt lat="36.14646" lon="-5.35298">
        <ele>4.719523</ele>
        <time>2022-04-17T09:23:06.000Z</time>
      </trkpt>
      <trkpt lat="36.14628" lon="-5.35315">
        <ele>4.725923</ele>
        <time>2022-04-17T09:23:12.000Z</time>
      </trkpt>
      <trkpt lat="36.14614" lon="-5.35328">
        <ele>4.731103</ele>
        <time>2022-04-17T09:23:17.000Z</time>
      </trkpt>
      <trkpt lat="36.14611" lon="-5.35332">
        <ele>4.732234</ele>
        <time>2022-04-17T09:23:18.000Z</time>
      </trkpt>
      <trkpt lat="36.14596" lon="-5.3536">
        <ele>4.740106</ele>
        <time>2022-04-17T09:23:25.000Z</time>
      </trkpt>
      <trkpt lat="36.1459" lon="-5.35388">
        <ele>4.807457</ele>
        <time>2022-04-17T09:23:31.000Z</time>
      </trkpt>
      <trkpt lat="36.14588" lon="-5.3539">
        <ele>4.817788</ele>
        <time>2022-04-17T09:23:32.000Z</time>
      </trkpt>
      <trkpt lat="36.14583" lon="-5.35394">
        <ele>4.848015</ele>
        <time>2022-04-17T09:23:35.000Z</time>
      </trkpt>
      <trkpt lat="36.14581" lon="-5.35397">
        <ele>4.86091</ele>
        <time>2022-04-17T09:23:37.000Z</time>
      </trkpt>
      <trkpt lat="36.14576" lon="-5.35404">
        <ele>4.892238</ele>
        <time>2022-04-17T09:23:39.000Z</time>
      </trkpt>
      <trkpt lat="36.14562" lon="-5.35427">
        <ele>4.996118</ele>
        <time>2022-04-17T09:23:44.000Z</time>
      </trkpt>
      <trkpt lat="36.14548" lon="-5.35462">
        <ele>5.136927</ele>
        <time>2022-04-17T09:23:52.000Z</time>
      </trkpt>
      <trkpt lat="36.14535" lon="-5.35501">
        <ele>5.287938</ele>
        <time>2022-04-17T09:24:01.000Z</time>
      </trkpt>
      <trkpt lat="36.14519" lon="-5.35513">
        <ele>5.36896</ele>
        <time>2022-04-17T09:24:06.000Z</time>
      </trkpt>
      <trkpt lat="36.145" lon="-5.35509">
        <ele>5.454502</ele>
        <time>2022-04-17T09:24:11.000Z</time>
      </trkpt>
      <trkpt lat="36.14465" lon="-5.35497">
        <ele>5.543043</ele>
        <time>2022-04-17T09:24:20.000Z</time>
      </trkpt>
      <trkpt lat="36.14446" lon="-5.35491">
        <ele>5.544872</ele>
        <time>2022-04-17T09:24:25.000Z</time>
      </trkpt>
      <trkpt lat="36.14429" lon="-5.3549">
        <ele>5.546484</ele>
        <time>2022-04-17T09:24:30.000Z</time>
      </trkpt>
      <trkpt lat="36.14426" lon="-5.3549">
        <ele>5.546806</ele>
        <time>2022-04-17T09:24:31.000Z</time>
      </trkpt>
      <trkpt lat="36.14407" lon="-5.35493">
        <ele>5.548621</ele>
        <time>2022-04-17T09:24:36.000Z</time>
      </trkpt>
      <trkpt lat="36.14388" lon="-5.35499">
        <ele>5.550523</ele>
        <time>2022-04-17T09:24:41.000Z</time>
      </trkpt>
      <trkpt lat="36.14364" lon="-5.35509">
        <ele>5.552903</ele>
        <time>2022-04-17T09:24:48.000Z</time>
      </trkpt>
      <trkpt lat="36.14349" lon="-5.35516">
        <ele>5.554441</ele>
        <time>2022-04-17T09:24:54.000Z</time>
      </trkpt>
      <trkpt lat="36.14347" lon="-5.35517">
        <ele>5.554636</ele>
        <time>2022-04-17T09:24:59.000Z</time>
      </trkpt>
      <trkpt lat="36.14347" lon="-5.35517">
        <ele>5.554636</ele>
        <time>2022-04-17T09:25:13.000Z</time>
      </trkpt>
      <trkpt lat="36.14342" lon="-5.35519">
        <ele>5.555105</ele>
        <time>2022-04-17T09:25:25.000Z</time>
      </trkpt>
      <trkpt lat="36.14324" lon="-5.35531">
        <ele>5.557017</ele>
        <time>2022-04-17T09:25:31.000Z</time>
      </trkpt>
      <trkpt lat="36.14304" lon="-5.35543">
        <ele>5.561536</ele>
        <time>2022-04-17T09:25:37.000Z</time>
      </trkpt>
      <trkpt lat="36.14275" lon="-5.35554">
        <ele>5.574305</ele>
        <time>2022-04-17T09:25:45.000Z</time>
      </trkpt>
      <trkpt lat="36.14264" lon="-5.35557">
        <ele>5.579098</ele>
        <time>2022-04-17T09:25:48.000Z</time>
      </trkpt>
      <trkpt lat="36.14256" lon="-5.35559">
        <ele>5.58267</ele>
        <time>2022-04-17T09:25:50.000Z</time>
      </trkpt>
      <trkpt lat="36.14225" lon="-5.35563">
        <ele>5.595818</ele>
        <time>2022-04-17T09:25:58.000Z</time>
      </trkpt>
      <trkpt lat="36.14204" lon="-5.3557">
        <ele>5.604939</ele>
        <time>2022-04-17T09:26:03.000Z</time>
      </trkpt>
      <trkpt lat="36.1418" lon="-5.35577">
        <ele>5.615261</ele>
        <time>2022-04-17T09:26:08.000Z</time>
      </trkpt>
      <trkpt lat="36.14175" lon="-5.35579">
        <ele>5.617389</ele>
        <time>2022-04-17T09:26:09.000Z</time>
      </trkpt>
      <trkpt lat="36.14165" lon="-5.35581">
        <ele>5.621898</ele>
        <time>2022-04-17T09:26:11.000Z</time>
      </trkpt>
      <trkpt lat="36.1416" lon="-5.35585">
        <ele>5.624373</ele>
        <time>2022-04-17T09:26:12.000Z</time>
      </trkpt>
      <trkpt lat="36.14132" lon="-5.35591">
        <ele>5.637632</ele>
        <time>2022-04-17T09:26:18.000Z</time>
      </trkpt>
      <trkpt lat="36.14122" lon="-5.35594">
        <ele>5.645414</ele>
        <time>2022-04-17T09:26:20.000Z</time>
      </trkpt>
      <trkpt lat="36.14114" lon="-5.35596">
        <ele>5.651838</ele>
        <time>2022-04-17T09:26:22.000Z</time>
      </trkpt>
      <trkpt lat="36.14101" lon="-5.35596">
        <ele>5.661691</ele>
        <time>2022-04-17T09:26:25.000Z</time>
      </trkpt>
      <trkpt lat="36.1409" lon="-5.35596">
        <ele>5.669952</ele>
        <time>2022-04-17T09:26:28.000Z</time>
      </trkpt>
      <trkpt lat="36.14082" lon="-5.35594">
        <ele>5.676161</ele>
        <time>2022-04-17T09:26:30.000Z</time>
      </trkpt>
      <trkpt lat="36.1407" lon="-5.3559">
        <ele>5.685961</ele>
        <time>2022-04-17T09:26:33.000Z</time>
      </trkpt>
      <trkpt lat="36.14066" lon="-5.35588">
        <ele>5.689343</ele>
        <time>2022-04-17T09:26:34.000Z</time>
      </trkpt>
      <trkpt lat="36.14062" lon="-5.35585">
        <ele>5.692882</ele>
        <time>2022-04-17T09:26:35.000Z</time>
      </trkpt>
      <trkpt lat="36.1404" lon="-5.35561">
        <ele>5.714757</ele>
        <time>2022-04-17T09:26:41.000Z</time>
      </trkpt>
      <trkpt lat="36.14037" lon="-5.35558">
        <ele>5.717812</ele>
        <time>2022-04-17T09:26:42.000Z</time>
      </trkpt>
      <trkpt lat="36.14023" lon="-5.35553">
        <ele>5.72868</ele>
        <time>2022-04-17T09:26:46.000Z</time>
      </trkpt>
      <trkpt lat="36.14005" lon="-5.35554">
        <ele>5.742733</ele>
        <time>2022-04-17T09:26:51.000Z</time>
      </trkpt>
      <trkpt lat="36.13995" lon="-5.35559">
        <ele>5.75118</ele>
        <time>2022-04-17T09:26:54.000Z</time>
      </trkpt>
      <trkpt lat="36.1398" lon="-5.35568">
        <ele>5.763525</ele>
        <time>2022-04-17T09:26:58.000Z</time>
      </trkpt>
      <trkpt lat="36.13956" lon="-5.35582">
        <ele>5.802166</ele>
        <time>2022-04-17T09:27:05.000Z</time>
      </trkpt>
      <trkpt lat="36.13955" lon="-5.35583">
        <ele>5.804881</ele>
        <time>2022-04-17T09:27:06.000Z</time>
      </trkpt>
      <trkpt lat="36.13954" lon="-5.35584">
        <ele>5.806569</ele>
        <time>2022-04-17T09:27:10.000Z</time>
      </trkpt>
      <trkpt lat="36.13954" lon="-5.35584">
        <ele>5.806569</ele>
        <time>2022-04-17T09:27:31.000Z</time>
      </trkpt>
      <trkpt lat="36.13954" lon="-5.35584">
        <ele>5.806944</ele>
        <time>2022-04-17T09:27:51.000Z</time>
      </trkpt>
      <trkpt lat="36.13948" lon="-5.35587">
        <ele>5.819723</ele>
        <time>2022-04-17T09:27:54.000Z</time>
      </trkpt>
      <trkpt lat="36.13933" lon="-5.35595">
        <ele>5.850494</ele>
        <time>2022-04-17T09:27:59.000Z</time>
      </trkpt>
      <trkpt lat="36.13922" lon="-5.35607">
        <ele>5.876761</ele>
        <time>2022-04-17T09:28:04.000Z</time>
      </trkpt>
      <trkpt lat="36.1392" lon="-5.35616">
        <ele>5.892167</ele>
        <time>2022-04-17T09:28:07.000Z</time>
      </trkpt>
      <trkpt lat="36.13918" lon="-5.35619">
        <ele>5.897476</ele>
        <time>2022-04-17T09:28:08.000Z</time>
      </trkpt>
      <trkpt lat="36.13904" lon="-5.3563">
        <ele>5.927872</ele>
        <time>2022-04-17T09:28:13.000Z</time>
      </trkpt>
      <trkpt lat="36.13892" lon="-5.35639">
        <ele>5.954618</ele>
        <time>2022-04-17T09:28:19.000Z</time>
      </trkpt>
      <trkpt lat="36.13882" lon="-5.35658">
        <ele>5.989575</ele>
        <time>2022-04-17T09:28:24.000Z</time>
      </trkpt>
      <trkpt lat="36.1388" lon="-5.35663">
        <ele>5.998578</ele>
        <time>2022-04-17T09:28:25.000Z</time>
      </trkpt>
      <trkpt lat="36.13869" lon="-5.35692">
        <ele>6.047174</ele>
        <time>2022-04-17T09:28:32.000Z</time>
      </trkpt>
      <trkpt lat="36.13863" lon="-5.35722">
        <ele>6.092885</ele>
        <time>2022-04-17T09:28:38.000Z</time>
      </trkpt>
      <trkpt lat="36.1386" lon="-5.35729">
        <ele>6.104673</ele>
        <time>2022-04-17T09:28:40.000Z</time>
      </trkpt>
      <trkpt lat="36.13854" lon="-5.35752">
        <ele>6.117234</ele>
        <time>2022-04-17T09:28:46.000Z</time>
      </trkpt>
      <trkpt lat="36.13841" lon="-5.35777">
        <ele>6.12855</ele>
        <time>2022-04-17T09:28:53.000Z</time>
      </trkpt>
      <trkpt lat="36.13827" lon="-5.35791">
        <ele>6.136883</ele>
        <time>2022-04-17T09:28:59.000Z</time>
      </trkpt>
      <trkpt lat="36.13824" lon="-5.35806">
        <ele>6.14296</ele>
        <time>2022-04-17T09:29:03.000Z</time>
      </trkpt>
      <trkpt lat="36.13822" lon="-5.3581">
        <ele>6.144695</ele>
        <time>2022-04-17T09:29:04.000Z</time>
      </trkpt>
      <trkpt lat="36.13814" lon="-5.35838">
        <ele>6.15591</ele>
        <time>2022-04-17T09:29:10.000Z</time>
      </trkpt>
      <trkpt lat="36.13806" lon="-5.35865">
        <ele>6.166769</ele>
        <time>2022-04-17T09:29:17.000Z</time>
      </trkpt>
      <trkpt lat="36.13805" lon="-5.35869">
        <ele>6.168369</ele>
        <time>2022-04-17T09:29:18.000Z</time>
      </trkpt>
      <trkpt lat="36.13798" lon="-5.35893">
        <ele>6.178091</ele>
        <time>2022-04-17T09:29:24.000Z</time>
      </trkpt>
      <trkpt lat="36.13794" lon="-5.35914">
        <ele>6.186029</ele>
        <time>2022-04-17T09:29:29.000Z</time>
      </trkpt>
      <trkpt lat="36.13785" lon="-5.3594">
        <ele>6.099153</ele>
        <time>2022-04-17T09:29:37.000Z</time>
      </trkpt>
      <trkpt lat="36.1378" lon="-5.3596">
        <ele>5.848313</ele>
        <time>2022-04-17T09:29:44.000Z</time>
      </trkpt>
      <trkpt lat="36.13778" lon="-5.35974">
        <ele>5.688564</ele>
        <time>2022-04-17T09:29:48.000Z</time>
      </trkpt>
      <trkpt lat="36.1378" lon="-5.35976">
        <ele>5.65425</ele>
        <time>2022-04-17T09:29:49.000Z</time>
      </trkpt>
      <trkpt lat="36.1379" lon="-5.35982">
        <ele>5.487701</ele>
        <time>2022-04-17T09:29:54.000Z</time>
      </trkpt>
      <trkpt lat="36.13791" lon="-5.35984">
        <ele>5.46343</ele>
        <time>2022-04-17T09:29:55.000Z</time>
      </trkpt>
      <trkpt lat="36.13792" lon="-5.35987">
        <ele>5.425407</ele>
        <time>2022-04-17T09:29:57.000Z</time>
      </trkpt>
      <trkpt lat="36.13792" lon="-5.35987">
        <ele>5.415228</ele>
        <time>2022-04-17T09:30:00.000Z</time>
      </trkpt>
      <trkpt lat="36.13792" lon="-5.35988">
        <ele>5.414074</ele>
        <time>2022-04-17T09:30:01.000Z</time>
      </trkpt>
      <trkpt lat="36.13791" lon="-5.35988">
        <ele>5.403054</ele>
        <time>2022-04-17T09:30:04.000Z</time>
      </trkpt>
      <trkpt lat="36.13792" lon="-5.35988">
        <ele>5.400339</ele>
        <time>2022-04-17T09:30:06.000Z</time>
      </trkpt>
      <trkpt lat="36.13792" lon="-5.35988">
        <ele>5.397257</ele>
        <time>2022-04-17T09:30:08.000Z</time>
      </trkpt>
      <trkpt lat="36.13792" lon="-5.35988">
        <ele>5.397257</ele>
        <time>2022-04-17T09:30:15.000Z</time>
      </trkpt>
      <trkpt lat="36.13792" lon="-5.35988">
        <ele>5.397257</ele>
        <time>2022-04-17T09:30:25.000Z</time>
      </trkpt>
      <trkpt lat="36.13792" lon="-5.35989">
        <ele>5.38801</ele>
        <time>2022-04-17T09:30:45.000Z</time>
      </trkpt>
      <trkpt lat="36.13792" lon="-5.35989">
        <ele>5.38801</ele>
        <time>2022-04-17T09:30:48.000Z</time>
      </trkpt>
      <trkpt lat="36.13792" lon="-5.35989">
        <ele>5.38801</ele>
        <time>2022-04-17T09:30:49.000Z</time>
      </trkpt>
      <trkpt lat="36.13792" lon="-5.35989">
        <ele>5.38801</ele>
        <time>2022-04-17T09:30:50.000Z</time>
      </trkpt>
      <trkpt lat="36.13792" lon="-5.35989">
        <ele>5.38801</ele>
        <time>2022-04-17T09:30:51.000Z</time>
      </trkpt>
      <trkpt lat="36.13792" lon="-5.35989">
        <ele>5.38801</ele>
        <time>2022-04-17T09:30:53.000Z</time>
      </trkpt>
      <trkpt lat="36.13792" lon="-5.35989">
        <ele>5.38801</ele>
        <time>2022-04-17T09:31:14.000Z</time>
      </trkpt>
      <trkpt lat="36.13792" lon="-5.35989">
        <ele>5.38801</ele>
        <time>2022-04-17T09:31:19.000Z</time>
      </trkpt>
      <trkpt lat="36.13792" lon="-5.35989">
        <ele>5.38801</ele>
        <time>2022-04-17T09:31:29.000Z</time>
      </trkpt>
      <trkpt lat="36.13792" lon="-5.35989">
        <ele>5.38801</ele>
        <time>2022-04-17T09:31:42.000Z</time>
      </trkpt>
      <trkpt lat="36.13792" lon="-5.35989">
        <ele>5.38801</ele>
        <time>2022-04-17T09:31:46.000Z</time>
      </trkpt>
      <trkpt lat="36.13792" lon="-5.35989">
        <ele>5.38801</ele>
        <time>2022-04-17T09:31:49.000Z</time>
      </trkpt>
      <trkpt lat="36.13792" lon="-5.35989">
        <ele>5.38801</ele>
        <time>2022-04-17T09:31:53.000Z</time>
      </trkpt>
      <trkpt lat="36.13792" lon="-5.35989">
        <ele>5.384548</ele>
        <time>2022-04-17T09:31:57.000Z</time>
      </trkpt>
      <trkpt lat="36.13792" lon="-5.35989">
        <ele>5.381086</ele>
        <time>2022-04-17T09:32:12.000Z</time>
      </trkpt>
      <trkpt lat="36.13792" lon="-5.35989">
        <ele>5.378371</ele>
        <time>2022-04-17T09:32:19.000Z</time>
      </trkpt>
      <trkpt lat="36.13792" lon="-5.3599">
        <ele>5.369393</ele>
        <time>2022-04-17T09:32:49.000Z</time>
      </trkpt>
      <trkpt lat="36.13792" lon="-5.3599">
        <ele>5.369393</ele>
        <time>2022-04-17T09:33:04.000Z</time>
      </trkpt>
      <trkpt lat="36.13792" lon="-5.3599">
        <ele>5.369393</ele>
        <time>2022-04-17T09:33:05.000Z</time>
      </trkpt>
      <trkpt lat="36.13792" lon="-5.35989">
        <ele>5.361189</ele>
        <time>2022-04-17T09:34:09.000Z</time>
      </trkpt>
      <trkpt lat="36.13792" lon="-5.35989">
        <ele>5.361189</ele>
        <time>2022-04-17T09:34:12.000Z</time>
      </trkpt>
      <trkpt lat="36.13792" lon="-5.35989">
        <ele>5.361189</ele>
        <time>2022-04-17T09:34:15.000Z</time>
      </trkpt>
      <trkpt lat="36.13793" lon="-5.35989">
        <ele>5.349757</ele>
        <time>2022-04-17T09:34:33.000Z</time>
      </trkpt>
      <trkpt lat="36.13793" lon="-5.35989">
        <ele>5.348328</ele>
        <time>2022-04-17T09:34:41.000Z</time>
      </trkpt>
      <trkpt lat="36.13792" lon="-5.35989">
        <ele>5.339822</ele>
        <time>2022-04-17T09:34:48.000Z</time>
      </trkpt>
      <trkpt lat="36.13792" lon="-5.3599">
        <ele>5.331882</ele>
        <time>2022-04-17T09:35:32.000Z</time>
      </trkpt>
      <trkpt lat="36.13792" lon="-5.3599">
        <ele>5.331882</ele>
        <time>2022-04-17T09:35:43.000Z</time>
      </trkpt>
      <trkpt lat="36.13792" lon="-5.3599">
        <ele>5.331882</ele>
        <time>2022-04-17T09:36:04.000Z</time>
      </trkpt>
      <trkpt lat="36.13792" lon="-5.3599">
        <ele>5.330728</ele>
        <time>2022-04-17T09:36:15.000Z</time>
      </trkpt>
      <trkpt lat="36.13792" lon="-5.3599">
        <ele>5.330728</ele>
        <time>2022-04-17T09:36:27.000Z</time>
      </trkpt>
      <trkpt lat="36.13792" lon="-5.3599">
        <ele>5.330728</ele>
        <time>2022-04-17T09:36:38.000Z</time>
      </trkpt>
      <trkpt lat="36.13792" lon="-5.3599">
        <ele>5.330728</ele>
        <time>2022-04-17T09:36:43.000Z</time>
      </trkpt>
      <trkpt lat="36.13792" lon="-5.3599">
        <ele>5.329574</ele>
        <time>2022-04-17T09:37:05.000Z</time>
      </trkpt>
      <trkpt lat="36.13792" lon="-5.3599">
        <ele>5.329574</ele>
        <time>2022-04-17T09:37:09.000Z</time>
      </trkpt>
      <trkpt lat="36.13792" lon="-5.3599">
        <ele>5.329574</ele>
        <time>2022-04-17T09:37:11.000Z</time>
      </trkpt>
      <trkpt lat="36.13792" lon="-5.3599">
        <ele>5.329574</ele>
        <time>2022-04-17T09:37:19.000Z</time>
      </trkpt>
      <trkpt lat="36.13792" lon="-5.3599">
        <ele>5.329574</ele>
        <time>2022-04-17T09:37:22.000Z</time>
      </trkpt>
      <trkpt lat="36.13792" lon="-5.3599">
        <ele>5.329574</ele>
        <time>2022-04-17T09:37:47.000Z</time>
      </trkpt>
      <trkpt lat="36.13792" lon="-5.3599">
        <ele>5.329574</ele>
        <time>2022-04-17T09:37:54.000Z</time>
      </trkpt>
      <trkpt lat="36.13792" lon="-5.35989">
        <ele>5.32842</ele>
        <time>2022-04-17T09:38:10.000Z</time>
      </trkpt>
      <trkpt lat="36.13792" lon="-5.35989">
        <ele>5.32842</ele>
        <time>2022-04-17T09:38:15.000Z</time>
      </trkpt>
      <trkpt lat="36.13792" lon="-5.35989">
        <ele>5.32842</ele>
        <time>2022-04-17T09:38:21.000Z</time>
      </trkpt>
      <trkpt lat="36.13792" lon="-5.35989">
        <ele>5.32842</ele>
        <time>2022-04-17T09:38:28.000Z</time>
      </trkpt>
      <trkpt lat="36.13792" lon="-5.35989">
        <ele>5.32842</ele>
        <time>2022-04-17T09:38:44.000Z</time>
      </trkpt>
      <trkpt lat="36.13792" lon="-5.35989">
        <ele>5.32842</ele>
        <time>2022-04-17T09:38:49.000Z</time>
      </trkpt>
      <trkpt lat="36.13792" lon="-5.35989">
        <ele>5.32842</ele>
        <time>2022-04-17T09:39:00.000Z</time>
      </trkpt>
      <trkpt lat="36.13792" lon="-5.35989">
        <ele>5.32842</ele>
        <time>2022-04-17T09:39:05.000Z</time>
      </trkpt>
      <trkpt lat="36.13792" lon="-5.35989">
        <ele>5.32842</ele>
        <time>2022-04-17T09:39:09.000Z</time>
      </trkpt>
      <trkpt lat="36.13791" lon="-5.35989">
        <ele>5.321275</ele>
        <time>2022-04-17T09:39:20.000Z</time>
      </trkpt>
      <trkpt lat="36.13792" lon="-5.35989">
        <ele>5.309109</ele>
        <time>2022-04-17T09:39:23.000Z</time>
      </trkpt>
      <trkpt lat="36.13792" lon="-5.35988">
        <ele>5.300541</ele>
        <time>2022-04-17T09:39:26.000Z</time>
      </trkpt>
      <trkpt lat="36.13792" lon="-5.35988">
        <ele>5.296867</ele>
        <time>2022-04-17T09:39:29.000Z</time>
      </trkpt>
      <trkpt lat="36.13789" lon="-5.35987">
        <ele>5.263378</ele>
        <time>2022-04-17T09:39:30.000Z</time>
      </trkpt>
      <trkpt lat="36.13787" lon="-5.35986">
        <ele>5.226392</ele>
        <time>2022-04-17T09:39:31.000Z</time>
      </trkpt>
      <trkpt lat="36.13774" lon="-5.35974">
        <ele>4.993538</ele>
        <time>2022-04-17T09:39:37.000Z</time>
      </trkpt>
      <trkpt lat="36.13776" lon="-5.35953">
        <ele>4.751628</ele>
        <time>2022-04-17T09:39:43.000Z</time>
      </trkpt>
      <trkpt lat="36.13778" lon="-5.35946">
        <ele>4.66111</ele>
        <time>2022-04-17T09:39:45.000Z</time>
      </trkpt>
      <trkpt lat="36.13787" lon="-5.35914">
        <ele>4.277305</ele>
        <time>2022-04-17T09:39:53.000Z</time>
      </trkpt>
      <trkpt lat="36.138" lon="-5.35869">
        <ele>3.718146</ele>
        <time>2022-04-17T09:40:04.000Z</time>
      </trkpt>
      <trkpt lat="36.1381" lon="-5.35836">
        <ele>3.542308</ele>
        <time>2022-04-17T09:40:12.000Z</time>
      </trkpt>
      <trkpt lat="36.13812" lon="-5.35832">
        <ele>3.529659</ele>
        <time>2022-04-17T09:40:13.000Z</time>
      </trkpt>
      <trkpt lat="36.13815" lon="-5.35825">
        <ele>3.505185</ele>
        <time>2022-04-17T09:40:15.000Z</time>
      </trkpt>
      <trkpt lat="36.13816" lon="-5.35821">
        <ele>3.493243</ele>
        <time>2022-04-17T09:40:16.000Z</time>
      </trkpt>
      <trkpt lat="36.13817" lon="-5.35818">
        <ele>3.481586</ele>
        <time>2022-04-17T09:40:17.000Z</time>
      </trkpt>
      <trkpt lat="36.13819" lon="-5.35814">
        <ele>3.469319</ele>
        <time>2022-04-17T09:40:18.000Z</time>
      </trkpt>
      <trkpt lat="36.13822" lon="-5.35807">
        <ele>3.445587</ele>
        <time>2022-04-17T09:40:20.000Z</time>
      </trkpt>
      <trkpt lat="36.13824" lon="-5.358">
        <ele>3.421292</ele>
        <time>2022-04-17T09:40:22.000Z</time>
      </trkpt>
      <trkpt lat="36.13833" lon="-5.35782">
        <ele>3.355715</ele>
        <time>2022-04-17T09:40:28.000Z</time>
      </trkpt>
      <trkpt lat="36.13847" lon="-5.35769">
        <ele>3.293166</ele>
        <time>2022-04-17T09:40:34.000Z</time>
      </trkpt>
      <trkpt lat="36.13855" lon="-5.35746">
        <ele>3.216918</ele>
        <time>2022-04-17T09:40:40.000Z</time>
      </trkpt>
      <trkpt lat="36.13865" lon="-5.35712">
        <ele>3.107395</ele>
        <time>2022-04-17T09:40:48.000Z</time>
      </trkpt>
      <trkpt lat="36.13869" lon="-5.35698">
        <ele>3.062833</ele>
        <time>2022-04-17T09:40:51.000Z</time>
      </trkpt>
      <trkpt lat="36.13873" lon="-5.35685">
        <ele>3.019947</ele>
        <time>2022-04-17T09:40:54.000Z</time>
      </trkpt>
      <trkpt lat="36.13877" lon="-5.35662">
        <ele>2.948847</ele>
        <time>2022-04-17T09:40:59.000Z</time>
      </trkpt>
      <trkpt lat="36.13884" lon="-5.35636">
        <ele>2.948856</ele>
        <time>2022-04-17T09:41:05.000Z</time>
      </trkpt>
      <trkpt lat="36.1389" lon="-5.35625">
        <ele>2.94886</ele>
        <time>2022-04-17T09:41:08.000Z</time>
      </trkpt>
      <trkpt lat="36.13893" lon="-5.35619">
        <ele>2.948862</ele>
        <time>2022-04-17T09:41:10.000Z</time>
      </trkpt>
      <trkpt lat="36.13882" lon="-5.35601">
        <ele>2.94887</ele>
        <time>2022-04-17T09:41:14.000Z</time>
      </trkpt>
      <trkpt lat="36.13871" lon="-5.35587">
        <ele>2.948876</ele>
        <time>2022-04-17T09:41:18.000Z</time>
      </trkpt>
      <trkpt lat="36.13851" lon="-5.3558">
        <ele>2.948884</ele>
        <time>2022-04-17T09:41:23.000Z</time>
      </trkpt>
      <trkpt lat="36.13847" lon="-5.3558">
        <ele>2.948886</ele>
        <time>2022-04-17T09:41:24.000Z</time>
      </trkpt>
      <trkpt lat="36.13842" lon="-5.35579">
        <ele>2.948888</ele>
        <time>2022-04-17T09:41:25.000Z</time>
      </trkpt>
      <trkpt lat="36.13831" lon="-5.35574">
        <ele>2.948893</ele>
        <time>2022-04-17T09:41:27.000Z</time>
      </trkpt>
      <trkpt lat="36.13816" lon="-5.35568">
        <ele>2.948899</ele>
        <time>2022-04-17T09:41:30.000Z</time>
      </trkpt>
      <trkpt lat="36.13791" lon="-5.35556">
        <ele>2.94891</ele>
        <time>2022-04-17T09:41:36.000Z</time>
      </trkpt>
      <trkpt lat="36.13782" lon="-5.35551">
        <ele>2.948913</ele>
        <time>2022-04-17T09:41:38.000Z</time>
      </trkpt>
      <trkpt lat="36.1376" lon="-5.35542">
        <ele>2.943414</ele>
        <time>2022-04-17T09:41:43.000Z</time>
      </trkpt>
      <trkpt lat="36.13746" lon="-5.35534">
        <ele>2.935886</ele>
        <time>2022-04-17T09:41:46.000Z</time>
      </trkpt>
      <trkpt lat="36.13716" lon="-5.3552">
        <ele>2.919718</ele>
        <time>2022-04-17T09:41:52.000Z</time>
      </trkpt>
      <trkpt lat="36.13707" lon="-5.35516">
        <ele>2.91462</ele>
        <time>2022-04-17T09:41:54.000Z</time>
      </trkpt>
      <trkpt lat="36.13674" lon="-5.35498">
        <ele>2.896564</ele>
        <time>2022-04-17T09:42:02.000Z</time>
      </trkpt>
      <trkpt lat="36.13646" lon="-5.35484">
        <ele>2.881215</ele>
        <time>2022-04-17T09:42:09.000Z</time>
      </trkpt>
      <trkpt lat="36.13627" lon="-5.35475">
        <ele>2.870673</ele>
        <time>2022-04-17T09:42:14.000Z</time>
      </trkpt>
      <trkpt lat="36.13623" lon="-5.35473">
        <ele>2.868656</ele>
        <time>2022-04-17T09:42:15.000Z</time>
      </trkpt>
      <trkpt lat="36.13601" lon="-5.35461">
        <ele>2.85936</ele>
        <time>2022-04-17T09:42:22.000Z</time>
      </trkpt>
      <trkpt lat="36.13584" lon="-5.35454">
        <ele>2.872575</ele>
        <time>2022-04-17T09:42:27.000Z</time>
      </trkpt>
      <trkpt lat="36.13573" lon="-5.35448">
        <ele>2.880717</ele>
        <time>2022-04-17T09:42:30.000Z</time>
      </trkpt>
      <trkpt lat="36.1357" lon="-5.35447">
        <ele>2.883315</ele>
        <time>2022-04-17T09:42:31.000Z</time>
      </trkpt>
      <trkpt lat="36.13554" lon="-5.35442">
        <ele>2.894916</ele>
        <time>2022-04-17T09:42:36.000Z</time>
      </trkpt>
      <trkpt lat="36.13534" lon="-5.35429">
        <ele>2.911548</ele>
        <time>2022-04-17T09:42:43.000Z</time>
      </trkpt>
      <trkpt lat="36.13507" lon="-5.35417">
        <ele>2.93199</ele>
        <time>2022-04-17T09:42:50.000Z</time>
      </trkpt>
      <trkpt lat="36.13471" lon="-5.35409">
        <ele>2.958626</ele>
        <time>2022-04-17T09:42:59.000Z</time>
      </trkpt>
      <trkpt lat="36.13453" lon="-5.35404">
        <ele>2.971693</ele>
        <time>2022-04-17T09:43:04.000Z</time>
      </trkpt>
      <trkpt lat="36.13439" lon="-5.35402">
        <ele>2.98168</ele>
        <time>2022-04-17T09:43:08.000Z</time>
      </trkpt>
      <trkpt lat="36.13414" lon="-5.35401">
        <ele>3.513045</ele>
        <time>2022-04-17T09:43:15.000Z</time>
      </trkpt>
      <trkpt lat="36.13394" lon="-5.35401">
        <ele>4.083437</ele>
        <time>2022-04-17T09:43:21.000Z</time>
      </trkpt>
      <trkpt lat="36.13382" lon="-5.35401">
        <ele>4.457205</ele>
        <time>2022-04-17T09:43:26.000Z</time>
      </trkpt>
      <trkpt lat="36.1338" lon="-5.35399">
        <ele>4.527404</ele>
        <time>2022-04-17T09:43:27.000Z</time>
      </trkpt>
      <trkpt lat="36.13381" lon="-5.35385">
        <ele>4.87489</ele>
        <time>2022-04-17T09:43:31.000Z</time>
      </trkpt>
      <trkpt lat="36.13388" lon="-5.35365">
        <ele>5.39205</ele>
        <time>2022-04-17T09:43:36.000Z</time>
      </trkpt>
      <trkpt lat="36.13392" lon="-5.35355">
        <ele>5.640965</ele>
        <time>2022-04-17T09:43:38.000Z</time>
      </trkpt>
      <trkpt lat="36.13398" lon="-5.35343">
        <ele>5.978122</ele>
        <time>2022-04-17T09:43:41.000Z</time>
      </trkpt>
      <trkpt lat="36.13403" lon="-5.35333">
        <ele>6.269068</ele>
        <time>2022-04-17T09:43:44.000Z</time>
      </trkpt>
      <trkpt lat="36.13412" lon="-5.35317">
        <ele>6.733521</ele>
        <time>2022-04-17T09:43:49.000Z</time>
      </trkpt>
      <trkpt lat="36.13414" lon="-5.35313">
        <ele>6.833401</ele>
        <time>2022-04-17T09:43:50.000Z</time>
      </trkpt>
      <trkpt lat="36.13421" lon="-5.35301">
        <ele>7.190878</ele>
        <time>2022-04-17T09:43:54.000Z</time>
      </trkpt>
      <trkpt lat="36.13428" lon="-5.35285">
        <ele>7.624537</ele>
        <time>2022-04-17T09:43:59.000Z</time>
      </trkpt>
      <trkpt lat="36.13429" lon="-5.35283">
        <ele>7.688663</ele>
        <time>2022-04-17T09:44:00.000Z</time>
      </trkpt>
      <trkpt lat="36.13427" lon="-5.35275">
        <ele>7.877155</ele>
        <time>2022-04-17T09:44:03.000Z</time>
      </trkpt>
      <trkpt lat="36.13423" lon="-5.35274">
        <ele>8.010819</ele>
        <time>2022-04-17T09:44:05.000Z</time>
      </trkpt>
      <trkpt lat="36.1342" lon="-5.35275">
        <ele>8.083311</ele>
        <time>2022-04-17T09:44:06.000Z</time>
      </trkpt>
      <trkpt lat="36.13418" lon="-5.35276">
        <ele>8.14791</ele>
        <time>2022-04-17T09:44:07.000Z</time>
      </trkpt>
      <trkpt lat="36.13415" lon="-5.35277">
        <ele>8.262131</ele>
        <time>2022-04-17T09:44:09.000Z</time>
      </trkpt>
      <trkpt lat="36.13404" lon="-5.35284">
        <ele>8.322034</ele>
        <time>2022-04-17T09:44:14.000Z</time>
      </trkpt>
      <trkpt lat="36.13389" lon="-5.35292">
        <ele>8.387768</ele>
        <time>2022-04-17T09:44:22.000Z</time>
      </trkpt>
      <trkpt lat="36.13386" lon="-5.35294">
        <ele>8.401591</ele>
        <time>2022-04-17T09:44:23.000Z</time>
      </trkpt>
      <trkpt lat="36.13374" lon="-5.35307">
        <ele>8.465105</ele>
        <time>2022-04-17T09:44:28.000Z</time>
      </trkpt>
      <trkpt lat="36.13366" lon="-5.35313">
        <ele>8.505296</ele>
        <time>2022-04-17T09:44:31.000Z</time>
      </trkpt>
      <trkpt lat="36.13358" lon="-5.35314">
        <ele>8.536067</ele>
        <time>2022-04-17T09:44:33.000Z</time>
      </trkpt>
      <trkpt lat="36.13343" lon="-5.35314">
        <ele>8.595321</ele>
        <time>2022-04-17T09:44:37.000Z</time>
      </trkpt>
      <trkpt lat="36.13341" lon="-5.35314">
        <ele>8.60508</ele>
        <time>2022-04-17T09:44:39.000Z</time>
      </trkpt>
      <trkpt lat="36.13341" lon="-5.35314">
        <ele>8.606644</ele>
        <time>2022-04-17T09:44:40.000Z</time>
      </trkpt>
      <trkpt lat="36.13339" lon="-5.35315">
        <ele>8.616995</ele>
        <time>2022-04-17T09:44:42.000Z</time>
      </trkpt>
      <trkpt lat="36.13337" lon="-5.35315">
        <ele>8.624084</ele>
        <time>2022-04-17T09:44:44.000Z</time>
      </trkpt>
      <trkpt lat="36.13337" lon="-5.35315">
        <ele>8.625148</ele>
        <time>2022-04-17T09:44:48.000Z</time>
      </trkpt>
      <trkpt lat="36.13337" lon="-5.35315">
        <ele>8.625148</ele>
        <time>2022-04-17T09:44:49.000Z</time>
      </trkpt>
      <trkpt lat="36.13337" lon="-5.35315">
        <ele>8.625148</ele>
        <time>2022-04-17T09:44:53.000Z</time>
      </trkpt>
      <trkpt lat="36.13337" lon="-5.35315">
        <ele>8.625148</ele>
        <time>2022-04-17T09:44:59.000Z</time>
      </trkpt>
      <trkpt lat="36.13337" lon="-5.35315">
        <ele>8.625148</ele>
        <time>2022-04-17T09:45:07.000Z</time>
      </trkpt>
      <trkpt lat="36.13337" lon="-5.35315">
        <ele>8.625148</ele>
        <time>2022-04-17T09:45:10.000Z</time>
      </trkpt>
      <trkpt lat="36.13337" lon="-5.35315">
        <ele>8.625148</ele>
        <time>2022-04-17T09:45:12.000Z</time>
      </trkpt>
      <trkpt lat="36.13337" lon="-5.35315">
        <ele>8.625148</ele>
        <time>2022-04-17T09:45:14.000Z</time>
      </trkpt>
      <trkpt lat="36.13336" lon="-5.35315">
        <ele>8.628062</ele>
        <time>2022-04-17T09:45:33.000Z</time>
      </trkpt>
      <trkpt lat="36.13335" lon="-5.35315">
        <ele>8.632632</ele>
        <time>2022-04-17T09:45:48.000Z</time>
      </trkpt>
      <trkpt lat="36.13335" lon="-5.35315">
        <ele>8.632632</ele>
        <time>2022-04-17T09:45:53.000Z</time>
      </trkpt>
      <trkpt lat="36.13335" lon="-5.35315">
        <ele>8.632632</ele>
        <time>2022-04-17T09:46:00.000Z</time>
      </trkpt>
      <trkpt lat="36.13335" lon="-5.35315">
        <ele>8.633849</ele>
        <time>2022-04-17T09:46:01.000Z</time>
      </trkpt>
      <trkpt lat="36.1333" lon="-5.35314">
        <ele>8.6539</ele>
        <time>2022-04-17T09:46:03.000Z</time>
      </trkpt>
      <trkpt lat="36.1332" lon="-5.35315">
        <ele>8.694881</ele>
        <time>2022-04-17T09:46:08.000Z</time>
      </trkpt>
      <trkpt lat="36.13319" lon="-5.35315">
        <ele>8.697739</ele>
        <time>2022-04-17T09:46:09.000Z</time>
      </trkpt>
      <trkpt lat="36.13318" lon="-5.35314">
        <ele>8.701054</ele>
        <time>2022-04-17T09:46:17.000Z</time>
      </trkpt>
      <trkpt lat="36.13318" lon="-5.35314">
        <ele>8.701054</ele>
        <time>2022-04-17T09:46:34.000Z</time>
      </trkpt>
      <trkpt lat="36.13318" lon="-5.35313">
        <ele>8.703366</ele>
        <time>2022-04-17T09:46:42.000Z</time>
      </trkpt>
      <trkpt lat="36.13318" lon="-5.35313">
        <ele>8.703366</ele>
        <time>2022-04-17T09:46:45.000Z</time>
      </trkpt>
      <trkpt lat="36.13318" lon="-5.35313">
        <ele>8.703366</ele>
        <time>2022-04-17T09:47:01.000Z</time>
      </trkpt>
      <trkpt lat="36.13318" lon="-5.35313">
        <ele>8.703888</ele>
        <time>2022-04-17T09:47:21.000Z</time>
      </trkpt>
      <trkpt lat="36.1332" lon="-5.35314">
        <ele>8.712464</ele>
        <time>2022-04-17T09:47:23.000Z</time>
      </trkpt>
      <trkpt lat="36.13321" lon="-5.35312">
        <ele>8.718588</ele>
        <time>2022-04-17T09:47:24.000Z</time>
      </trkpt>
      <trkpt lat="36.13321" lon="-5.35311">
        <ele>8.72254</ele>
        <time>2022-04-17T09:47:25.000Z</time>
      </trkpt>
      <trkpt lat="36.13316" lon="-5.35311">
        <ele>8.744914</ele>
        <time>2022-04-17T09:47:28.000Z</time>
      </trkpt>
      <trkpt lat="36.13295" lon="-5.3531">
        <ele>8.829322</ele>
        <time>2022-04-17T09:47:33.000Z</time>
      </trkpt>
      <trkpt lat="36.13272" lon="-5.35307">
        <ele>8.923294</ele>
        <time>2022-04-17T09:47:38.000Z</time>
      </trkpt>
      <trkpt lat="36.13253" lon="-5.35302">
        <ele>9.00074</ele>
        <time>2022-04-17T09:47:42.000Z</time>
      </trkpt>
      <trkpt lat="36.13244" lon="-5.353">
        <ele>9.023829</ele>
        <time>2022-04-17T09:47:44.000Z</time>
      </trkpt>
      <trkpt lat="36.13215" lon="-5.35293">
        <ele>9.092072</ele>
        <time>2022-04-17T09:47:49.000Z</time>
      </trkpt>
      <trkpt lat="36.13204" lon="-5.35289">
        <ele>9.11911</ele>
        <time>2022-04-17T09:47:51.000Z</time>
      </trkpt>
      <trkpt lat="36.13165" lon="-5.35283">
        <ele>9.208806</ele>
        <time>2022-04-17T09:47:58.000Z</time>
      </trkpt>
      <trkpt lat="36.13136" lon="-5.35279">
        <ele>9.276797</ele>
        <time>2022-04-17T09:48:03.000Z</time>
      </trkpt>
      <trkpt lat="36.13124" lon="-5.35276">
        <ele>9.304456</ele>
        <time>2022-04-17T09:48:05.000Z</time>
      </trkpt>
      <trkpt lat="36.13103" lon="-5.3527">
        <ele>9.353458</ele>
        <time>2022-04-17T09:48:09.000Z</time>
      </trkpt>
      <trkpt lat="36.13073" lon="-5.35261">
        <ele>9.462927</ele>
        <time>2022-04-17T09:48:15.000Z</time>
      </trkpt>
      <trkpt lat="36.13057" lon="-5.35256">
        <ele>9.705972</ele>
        <time>2022-04-17T09:48:18.000Z</time>
      </trkpt>
      <trkpt lat="36.13052" lon="-5.35254">
        <ele>9.780889</ele>
        <time>2022-04-17T09:48:19.000Z</time>
      </trkpt>
      <trkpt lat="36.13037" lon="-5.3525">
        <ele>10.005096</ele>
        <time>2022-04-17T09:48:22.000Z</time>
      </trkpt>
      <trkpt lat="36.13002" lon="-5.35239">
        <ele>10.533274</ele>
        <time>2022-04-17T09:48:30.000Z</time>
      </trkpt>
      <trkpt lat="36.12992" lon="-5.35237">
        <ele>10.686354</ele>
        <time>2022-04-17T09:48:33.000Z</time>
      </trkpt>
      <trkpt lat="36.12982" lon="-5.35235">
        <ele>10.829992</ele>
        <time>2022-04-17T09:48:36.000Z</time>
      </trkpt>
      <trkpt lat="36.12967" lon="-5.35231">
        <ele>11.05523</ele>
        <time>2022-04-17T09:48:41.000Z</time>
      </trkpt>
      <trkpt lat="36.12955" lon="-5.35226">
        <ele>11.243392</ele>
        <time>2022-04-17T09:48:45.000Z</time>
      </trkpt>
      <trkpt lat="36.12939" lon="-5.35221">
        <ele>11.492047</ele>
        <time>2022-04-17T09:48:50.000Z</time>
      </trkpt>
      <trkpt lat="36.12929" lon="-5.35218">
        <ele>11.637248</ele>
        <time>2022-04-17T09:48:53.000Z</time>
      </trkpt>
      <trkpt lat="36.1292" lon="-5.35216">
        <ele>11.773305</ele>
        <time>2022-04-17T09:48:57.000Z</time>
      </trkpt>
      <trkpt lat="36.12917" lon="-5.35215">
        <ele>11.821491</ele>
        <time>2022-04-17T09:48:58.000Z</time>
      </trkpt>
      <trkpt lat="36.12912" lon="-5.35214">
        <ele>11.889379</ele>
        <time>2022-04-17T09:49:00.000Z</time>
      </trkpt>
      <trkpt lat="36.12906" lon="-5.35215">
        <ele>11.986726</ele>
        <time>2022-04-17T09:49:03.000Z</time>
      </trkpt>
      <trkpt lat="36.12891" lon="-5.35208">
        <ele>12.067346</ele>
        <time>2022-04-17T09:49:09.000Z</time>
      </trkpt>
      <trkpt lat="36.12874" lon="-5.35205">
        <ele>12.06765</ele>
        <time>2022-04-17T09:49:15.000Z</time>
      </trkpt>
      <trkpt lat="36.12847" lon="-5.35201">
        <ele>12.068122</ele>
        <time>2022-04-17T09:49:23.000Z</time>
      </trkpt>
      <trkpt lat="36.12823" lon="-5.35202">
        <ele>12.068535</ele>
        <time>2022-04-17T09:49:29.000Z</time>
      </trkpt>
      <trkpt lat="36.12797" lon="-5.35204">
        <ele>12.068992</ele>
        <time>2022-04-17T09:49:36.000Z</time>
      </trkpt>
      <trkpt lat="36.1276" lon="-5.35206">
        <ele>12.069636</ele>
        <time>2022-04-17T09:49:45.000Z</time>
      </trkpt>
      <trkpt lat="36.12744" lon="-5.35206">
        <ele>12.069913</ele>
        <time>2022-04-17T09:49:50.000Z</time>
      </trkpt>
      <trkpt lat="36.12709" lon="-5.3521">
        <ele>12.038791</ele>
        <time>2022-04-17T09:49:59.000Z</time>
      </trkpt>
      <trkpt lat="36.12689" lon="-5.35224">
        <ele>11.982099</ele>
        <time>2022-04-17T09:50:04.000Z</time>
      </trkpt>
      <trkpt lat="36.12675" lon="-5.35239">
        <ele>11.934711</ele>
        <time>2022-04-17T09:50:08.000Z</time>
      </trkpt>
      <trkpt lat="36.1267" lon="-5.35243">
        <ele>11.919898</ele>
        <time>2022-04-17T09:50:09.000Z</time>
      </trkpt>
      <trkpt lat="36.12665" lon="-5.35246">
        <ele>11.907465</ele>
        <time>2022-04-17T09:50:10.000Z</time>
      </trkpt>
      <trkpt lat="36.12657" lon="-5.3525">
        <ele>11.884552</ele>
        <time>2022-04-17T09:50:12.000Z</time>
      </trkpt>
      <trkpt lat="36.12647" lon="-5.35255">
        <ele>11.857189</ele>
        <time>2022-04-17T09:50:14.000Z</time>
      </trkpt>
      <trkpt lat="36.12607" lon="-5.35273">
        <ele>11.751972</ele>
        <time>2022-04-17T09:50:23.000Z</time>
      </trkpt>
      <trkpt lat="36.12594" lon="-5.35287">
        <ele>11.710673</ele>
        <time>2022-04-17T09:50:27.000Z</time>
      </trkpt>
      <trkpt lat="36.12591" lon="-5.35292">
        <ele>11.696456</ele>
        <time>2022-04-17T09:50:28.000Z</time>
      </trkpt>
      <trkpt lat="36.12585" lon="-5.353">
        <ele>11.673873</ele>
        <time>2022-04-17T09:50:30.000Z</time>
      </trkpt>
      <trkpt lat="36.12578" lon="-5.35309">
        <ele>11.650537</ele>
        <time>2022-04-17T09:50:32.000Z</time>
      </trkpt>
      <trkpt lat="36.12553" lon="-5.35344">
        <ele>12.124689</ele>
        <time>2022-04-17T09:50:40.000Z</time>
      </trkpt>
      <trkpt lat="36.12529" lon="-5.35369">
        <ele>12.705711</ele>
        <time>2022-04-17T09:50:46.000Z</time>
      </trkpt>
      <trkpt lat="36.12525" lon="-5.35373">
        <ele>12.80342</ele>
        <time>2022-04-17T09:50:47.000Z</time>
      </trkpt>
      <trkpt lat="36.12517" lon="-5.35379">
        <ele>12.979265</ele>
        <time>2022-04-17T09:50:49.000Z</time>
      </trkpt>
      <trkpt lat="36.12512" lon="-5.35381">
        <ele>13.064838</ele>
        <time>2022-04-17T09:50:50.000Z</time>
      </trkpt>
      <trkpt lat="36.12508" lon="-5.35382">
        <ele>13.149109</ele>
        <time>2022-04-17T09:50:51.000Z</time>
      </trkpt>
      <trkpt lat="36.12497" lon="-5.35382">
        <ele>13.355895</ele>
        <time>2022-04-17T09:50:54.000Z</time>
      </trkpt>
      <trkpt lat="36.12489" lon="-5.3538">
        <ele>13.513219</ele>
        <time>2022-04-17T09:50:57.000Z</time>
      </trkpt>
      <trkpt lat="36.12482" lon="-5.35375">
        <ele>13.663924</ele>
        <time>2022-04-17T09:51:00.000Z</time>
      </trkpt>
      <trkpt lat="36.12471" lon="-5.35369">
        <ele>13.888373</ele>
        <time>2022-04-17T09:51:04.000Z</time>
      </trkpt>
      <trkpt lat="36.12461" lon="-5.35367">
        <ele>14.063527</ele>
        <time>2022-04-17T09:51:07.000Z</time>
      </trkpt>
      <trkpt lat="36.12437" lon="-5.35364">
        <ele>14.521256</ele>
        <time>2022-04-17T09:51:14.000Z</time>
      </trkpt>
      <trkpt lat="36.12418" lon="-5.35366">
        <ele>14.872214</ele>
        <time>2022-04-17T09:51:20.000Z</time>
      </trkpt>
      <trkpt lat="36.12415" lon="-5.35366">
        <ele>14.937417</ele>
        <time>2022-04-17T09:51:21.000Z</time>
      </trkpt>
      <trkpt lat="36.12394" lon="-5.35363">
        <ele>14.991572</ele>
        <time>2022-04-17T09:51:28.000Z</time>
      </trkpt>
      <trkpt lat="36.12387" lon="-5.35363">
        <ele>14.997474</ele>
        <time>2022-04-17T09:51:30.000Z</time>
      </trkpt>
      <trkpt lat="36.12375" lon="-5.35363">
        <ele>15.008789</ele>
        <time>2022-04-17T09:51:34.000Z</time>
      </trkpt>
      <trkpt lat="36.12372" lon="-5.35364">
        <ele>15.011984</ele>
        <time>2022-04-17T09:51:35.000Z</time>
      </trkpt>
      <trkpt lat="36.12366" lon="-5.35365">
        <ele>15.017255</ele>
        <time>2022-04-17T09:51:37.000Z</time>
      </trkpt>
      <trkpt lat="36.12354" lon="-5.35365">
        <ele>15.02885</ele>
        <time>2022-04-17T09:51:41.000Z</time>
      </trkpt>
      <trkpt lat="36.12337" lon="-5.35364">
        <ele>15.044855</ele>
        <time>2022-04-17T09:51:48.000Z</time>
      </trkpt>
      <trkpt lat="36.12331" lon="-5.35364">
        <ele>15.050483</ele>
        <time>2022-04-17T09:51:51.000Z</time>
      </trkpt>
      <trkpt lat="36.12328" lon="-5.35364">
        <ele>15.053429</ele>
        <time>2022-04-17T09:51:53.000Z</time>
      </trkpt>
      <trkpt lat="36.12315" lon="-5.35364">
        <ele>15.065592</ele>
        <time>2022-04-17T09:51:59.000Z</time>
      </trkpt>
      <trkpt lat="36.123" lon="-5.35362">
        <ele>15.07964</ele>
        <time>2022-04-17T09:52:06.000Z</time>
      </trkpt>
      <trkpt lat="36.12299" lon="-5.35362">
        <ele>15.080206</ele>
        <time>2022-04-17T09:52:11.000Z</time>
      </trkpt>
      <trkpt lat="36.12299" lon="-5.35362">
        <ele>15.080206</ele>
        <time>2022-04-17T09:52:12.000Z</time>
      </trkpt>
      <trkpt lat="36.12299" lon="-5.35362">
        <ele>15.080206</ele>
        <time>2022-04-17T09:52:16.000Z</time>
      </trkpt>
      <trkpt lat="36.12299" lon="-5.35362">
        <ele>15.080206</ele>
        <time>2022-04-17T09:52:22.000Z</time>
      </trkpt>
      <trkpt lat="36.12299" lon="-5.35361">
        <ele>15.080561</ele>
        <time>2022-04-17T09:52:27.000Z</time>
      </trkpt>
      <trkpt lat="36.12297" lon="-5.35358">
        <ele>15.083444</ele>
        <time>2022-04-17T09:52:28.000Z</time>
      </trkpt>
      <trkpt lat="36.12287" lon="-5.35337">
        <ele>15.101789</ele>
        <time>2022-04-17T09:52:32.000Z</time>
      </trkpt>
      <trkpt lat="36.12282" lon="-5.3532">
        <ele>15.11595</ele>
        <time>2022-04-17T09:52:34.000Z</time>
      </trkpt>
      <trkpt lat="36.12278" lon="-5.35301">
        <ele>15.130659</ele>
        <time>2022-04-17T09:52:36.000Z</time>
      </trkpt>
      <trkpt lat="36.12276" lon="-5.35294">
        <ele>15.136331</ele>
        <time>2022-04-17T09:52:37.000Z</time>
      </trkpt>
      <trkpt lat="36.12273" lon="-5.35285">
        <ele>15.112069</ele>
        <time>2022-04-17T09:52:38.000Z</time>
      </trkpt>
      <trkpt lat="36.12262" lon="-5.35261">
        <ele>14.632852</ele>
        <time>2022-04-17T09:52:41.000Z</time>
      </trkpt>
      <trkpt lat="36.1225" lon="-5.35237">
        <ele>14.15382</ele>
        <time>2022-04-17T09:52:44.000Z</time>
      </trkpt>
      <trkpt lat="36.12244" lon="-5.35222">
        <ele>13.857491</ele>
        <time>2022-04-17T09:52:46.000Z</time>
      </trkpt>
      <trkpt lat="36.12238" lon="-5.35209">
        <ele>13.59941</ele>
        <time>2022-04-17T09:52:48.000Z</time>
      </trkpt>
      <trkpt lat="36.1223" lon="-5.352">
        <ele>13.371981</ele>
        <time>2022-04-17T09:52:50.000Z</time>
      </trkpt>
      <trkpt lat="36.12223" lon="-5.35197">
        <ele>13.225232</ele>
        <time>2022-04-17T09:52:51.000Z</time>
      </trkpt>
      <trkpt lat="36.12185" lon="-5.35182">
        <ele>12.362914</ele>
        <time>2022-04-17T09:52:58.000Z</time>
      </trkpt>
      <trkpt lat="36.12176" lon="-5.35179">
        <ele>12.165703</ele>
        <time>2022-04-17T09:53:00.000Z</time>
      </trkpt>
      <trkpt lat="36.12173" lon="-5.35179">
        <ele>12.116704</ele>
        <time>2022-04-17T09:53:01.000Z</time>
      </trkpt>
      <trkpt lat="36.12172" lon="-5.3518">
        <ele>12.075066</ele>
        <time>2022-04-17T09:53:02.000Z</time>
      </trkpt>
      <trkpt lat="36.12171" lon="-5.35183">
        <ele>12.035208</ele>
        <time>2022-04-17T09:53:03.000Z</time>
      </trkpt>
      <trkpt lat="36.1217" lon="-5.35185">
        <ele>11.994321</ele>
        <time>2022-04-17T09:53:04.000Z</time>
      </trkpt>
      <trkpt lat="36.12164" lon="-5.35203">
        <ele>11.654758</ele>
        <time>2022-04-17T09:53:10.000Z</time>
      </trkpt>
      <trkpt lat="36.12156" lon="-5.35215">
        <ele>11.390341</ele>
        <time>2022-04-17T09:53:14.000Z</time>
      </trkpt>
      <trkpt lat="36.12153" lon="-5.35217">
        <ele>11.322981</ele>
        <time>2022-04-17T09:53:15.000Z</time>
      </trkpt>
      <trkpt lat="36.12139" lon="-5.35224">
        <ele>11.252015</ele>
        <time>2022-04-17T09:53:20.000Z</time>
      </trkpt>
      <trkpt lat="36.12122" lon="-5.35221">
        <ele>11.175966</ele>
        <time>2022-04-17T09:53:26.000Z</time>
      </trkpt>
      <trkpt lat="36.12109" lon="-5.35211">
        <ele>11.111804</ele>
        <time>2022-04-17T09:53:32.000Z</time>
      </trkpt>
      <trkpt lat="36.12096" lon="-5.35202">
        <ele>11.045305</ele>
        <time>2022-04-17T09:53:38.000Z</time>
      </trkpt>
      <trkpt lat="36.12089" lon="-5.35206">
        <ele>11.010473</ele>
        <time>2022-04-17T09:53:41.000Z</time>
      </trkpt>
      <trkpt lat="36.12087" lon="-5.35208">
        <ele>10.997701</ele>
        <time>2022-04-17T09:53:42.000Z</time>
      </trkpt>
      <trkpt lat="36.12077" lon="-5.35219">
        <ele>10.938007</ele>
        <time>2022-04-17T09:53:47.000Z</time>
      </trkpt>
      <trkpt lat="36.12075" lon="-5.35219">
        <ele>10.927362</ele>
        <time>2022-04-17T09:53:48.000Z</time>
      </trkpt>
      <trkpt lat="36.12064" lon="-5.3521">
        <ele>10.870277</ele>
        <time>2022-04-17T09:53:54.000Z</time>
      </trkpt>
      <trkpt lat="36.12052" lon="-5.35198">
        <ele>10.801981</ele>
        <time>2022-04-17T09:54:00.000Z</time>
      </trkpt>
      <trkpt lat="36.1204" lon="-5.3519">
        <ele>10.742117</ele>
        <time>2022-04-17T09:54:06.000Z</time>
      </trkpt>
      <trkpt lat="36.12031" lon="-5.35179">
        <ele>10.689163</ele>
        <time>2022-04-17T09:54:11.000Z</time>
      </trkpt>
      <trkpt lat="36.12023" lon="-5.35171">
        <ele>10.641371</ele>
        <time>2022-04-17T09:54:15.000Z</time>
      </trkpt>
      <trkpt lat="36.1199" lon="-5.35137">
        <ele>10.348923</ele>
        <time>2022-04-17T09:54:31.000Z</time>
      </trkpt>
      <trkpt lat="36.11991" lon="-5.35136">
        <ele>10.333965</ele>
        <time>2022-04-17T09:54:37.000Z</time>
      </trkpt>
      <trkpt lat="36.11991" lon="-5.35136">
        <ele>10.333965</ele>
        <time>2022-04-17T09:54:43.000Z</time>
      </trkpt>
      <trkpt lat="36.11991" lon="-5.35136">
        <ele>10.333965</ele>
        <time>2022-04-17T09:54:46.000Z</time>
      </trkpt>
      <trkpt lat="36.11991" lon="-5.35136">
        <ele>10.333965</ele>
        <time>2022-04-17T09:54:51.000Z</time>
      </trkpt>
      <trkpt lat="36.11991" lon="-5.35136">
        <ele>10.333965</ele>
        <time>2022-04-17T09:54:54.000Z</time>
      </trkpt>
      <trkpt lat="36.11991" lon="-5.35133">
        <ele>10.305519</ele>
        <time>2022-04-17T09:55:00.000Z</time>
      </trkpt>
      <trkpt lat="36.11988" lon="-5.35118">
        <ele>10.172796</ele>
        <time>2022-04-17T09:55:04.000Z</time>
      </trkpt>
      <trkpt lat="36.11985" lon="-5.35101">
        <ele>10.024699</ele>
        <time>2022-04-17T09:55:08.000Z</time>
      </trkpt>
      <trkpt lat="36.11984" lon="-5.35096">
        <ele>9.985161</ele>
        <time>2022-04-17T09:55:09.000Z</time>
      </trkpt>
      <trkpt lat="36.1198" lon="-5.35087">
        <ele>9.900507</ele>
        <time>2022-04-17T09:55:12.000Z</time>
      </trkpt>
      <trkpt lat="36.1198" lon="-5.35084">
        <ele>9.876754</ele>
        <time>2022-04-17T09:55:13.000Z</time>
      </trkpt>
      <trkpt lat="36.11976" lon="-5.35065">
        <ele>9.713528</ele>
        <time>2022-04-17T09:55:19.000Z</time>
      </trkpt>
      <trkpt lat="36.11948" lon="-5.35052">
        <ele>9.404445</ele>
        <time>2022-04-17T09:55:27.000Z</time>
      </trkpt>
      <trkpt lat="36.1194" lon="-5.35052">
        <ele>9.319073</ele>
        <time>2022-04-17T09:55:29.000Z</time>
      </trkpt>
      <trkpt lat="36.11915" lon="-5.35046">
        <ele>9.059058</ele>
        <time>2022-04-17T09:55:35.000Z</time>
      </trkpt>
      <trkpt lat="36.11905" lon="-5.35048">
        <ele>8.95166</ele>
        <time>2022-04-17T09:55:37.000Z</time>
      </trkpt>
      <trkpt lat="36.11882" lon="-5.35054">
        <ele>8.702516</ele>
        <time>2022-04-17T09:55:43.000Z</time>
      </trkpt>
      <trkpt lat="36.11859" lon="-5.35062">
        <ele>8.747494</ele>
        <time>2022-04-17T09:55:49.000Z</time>
      </trkpt>
      <trkpt lat="36.11855" lon="-5.35063">
        <ele>8.766351</ele>
        <time>2022-04-17T09:55:50.000Z</time>
      </trkpt>
      <trkpt lat="36.11836" lon="-5.35067">
        <ele>8.862636</ele>
        <time>2022-04-17T09:55:55.000Z</time>
      </trkpt>
      <trkpt lat="36.11816" lon="-5.35064">
        <ele>8.964176</ele>
        <time>2022-04-17T09:56:01.000Z</time>
      </trkpt>
      <trkpt lat="36.11782" lon="-5.35054">
        <ele>9.138628</ele>
        <time>2022-04-17T09:56:10.000Z</time>
      </trkpt>
      <trkpt lat="36.11754" lon="-5.35044">
        <ele>9.279778</ele>
        <time>2022-04-17T09:56:17.000Z</time>
      </trkpt>
      <trkpt lat="36.11743" lon="-5.35039">
        <ele>9.337769</ele>
        <time>2022-04-17T09:56:20.000Z</time>
      </trkpt>
      <trkpt lat="36.11736" lon="-5.35037">
        <ele>9.374202</ele>
        <time>2022-04-17T09:56:22.000Z</time>
      </trkpt>
      <trkpt lat="36.11724" lon="-5.35034">
        <ele>9.436216</ele>
        <time>2022-04-17T09:56:26.000Z</time>
      </trkpt>
      <trkpt lat="36.11722" lon="-5.35035">
        <ele>9.44595</ele>
        <time>2022-04-17T09:56:27.000Z</time>
      </trkpt>
      <trkpt lat="36.11721" lon="-5.35035">
        <ele>9.451167</ele>
        <time>2022-04-17T09:56:28.000Z</time>
      </trkpt>
      <trkpt lat="36.11719" lon="-5.35037">
        <ele>9.462168</ele>
        <time>2022-04-17T09:56:30.000Z</time>
      </trkpt>
      <trkpt lat="36.11719" lon="-5.35037">
        <ele>9.464083</ele>
        <time>2022-04-17T09:56:36.000Z</time>
      </trkpt>
      <trkpt lat="36.11719" lon="-5.35037">
        <ele>9.464083</ele>
        <time>2022-04-17T09:56:44.000Z</time>
      </trkpt>
      <trkpt lat="36.11719" lon="-5.35037">
        <ele>9.464083</ele>
        <time>2022-04-17T09:57:00.000Z</time>
      </trkpt>
      <trkpt lat="36.11719" lon="-5.35037">
        <ele>9.464083</ele>
        <time>2022-04-17T09:57:08.000Z</time>
      </trkpt>
      <trkpt lat="36.11719" lon="-5.35037">
        <ele>9.464083</ele>
        <time>2022-04-17T09:57:20.000Z</time>
      </trkpt>
      <trkpt lat="36.11719" lon="-5.35037">
        <ele>9.464083</ele>
        <time>2022-04-17T09:57:37.000Z</time>
      </trkpt>
      <trkpt lat="36.11719" lon="-5.35037">
        <ele>9.464083</ele>
        <time>2022-04-17T09:57:38.000Z</time>
      </trkpt>
      <trkpt lat="36.11719" lon="-5.35037">
        <ele>9.464083</ele>
        <time>2022-04-17T09:57:39.000Z</time>
      </trkpt>
      <trkpt lat="36.11719" lon="-5.35037">
        <ele>9.466841</ele>
        <time>2022-04-17T09:58:05.000Z</time>
      </trkpt>
      <trkpt lat="36.11719" lon="-5.35037">
        <ele>9.466841</ele>
        <time>2022-04-17T09:58:06.000Z</time>
      </trkpt>
      <trkpt lat="36.11719" lon="-5.35037">
        <ele>9.466841</ele>
        <time>2022-04-17T09:58:12.000Z</time>
      </trkpt>
      <trkpt lat="36.11718" lon="-5.35038">
        <ele>9.472195</ele>
        <time>2022-04-17T09:58:36.000Z</time>
      </trkpt>
      <trkpt lat="36.11718" lon="-5.35038">
        <ele>9.472195</ele>
        <time>2022-04-17T09:58:41.000Z</time>
      </trkpt>
      <trkpt lat="36.11718" lon="-5.35038">
        <ele>9.472195</ele>
        <time>2022-04-17T09:58:43.000Z</time>
      </trkpt>
      <trkpt lat="36.11718" lon="-5.35038">
        <ele>9.472195</ele>
        <time>2022-04-17T09:58:49.000Z</time>
      </trkpt>
      <trkpt lat="36.11717" lon="-5.35038">
        <ele>9.473472</ele>
        <time>2022-04-17T09:58:53.000Z</time>
      </trkpt>
      <trkpt lat="36.11714" lon="-5.35032">
        <ele>9.502191</ele>
        <time>2022-04-17T09:58:56.000Z</time>
      </trkpt>
      <trkpt lat="36.11701" lon="-5.35026">
        <ele>9.853582</ele>
        <time>2022-04-17T09:59:01.000Z</time>
      </trkpt>
      <trkpt lat="36.11689" lon="-5.35019">
        <ele>10.673495</ele>
        <time>2022-04-17T09:59:06.000Z</time>
      </trkpt>
      <trkpt lat="36.11687" lon="-5.35017">
        <ele>10.833331</ele>
        <time>2022-04-17T09:59:07.000Z</time>
      </trkpt>
      <trkpt lat="36.11686" lon="-5.35014">
        <ele>10.982112</ele>
        <time>2022-04-17T09:59:08.000Z</time>
      </trkpt>
      <trkpt lat="36.11682" lon="-5.35004">
        <ele>11.56968</ele>
        <time>2022-04-17T09:59:12.000Z</time>
      </trkpt>
      <trkpt lat="36.11678" lon="-5.34993">
        <ele>12.160866</ele>
        <time>2022-04-17T09:59:16.000Z</time>
      </trkpt>
      <trkpt lat="36.11677" lon="-5.34985">
        <ele>12.563371</ele>
        <time>2022-04-17T09:59:18.000Z</time>
      </trkpt>
      <trkpt lat="36.11672" lon="-5.3497">
        <ele>13.416471</ele>
        <time>2022-04-17T09:59:23.000Z</time>
      </trkpt>
      <trkpt lat="36.11669" lon="-5.34964">
        <ele>13.758699</ele>
        <time>2022-04-17T09:59:25.000Z</time>
      </trkpt>
      <trkpt lat="36.11661" lon="-5.34951">
        <ele>14.575026</ele>
        <time>2022-04-17T09:59:30.000Z</time>
      </trkpt>
      <trkpt lat="36.11658" lon="-5.34947">
        <ele>14.870985</ele>
        <time>2022-04-17T09:59:32.000Z</time>
      </trkpt>
      <trkpt lat="36.11653" lon="-5.34936">
        <ele>15.52025</ele>
        <time>2022-04-17T09:59:37.000Z</time>
      </trkpt>
      <trkpt lat="36.11651" lon="-5.34934">
        <ele>15.672492</ele>
        <time>2022-04-17T09:59:39.000Z</time>
      </trkpt>
      <trkpt lat="36.11649" lon="-5.34934">
        <ele>15.779291</ele>
        <time>2022-04-17T09:59:42.000Z</time>
      </trkpt>
      <trkpt lat="36.11648" lon="-5.34933">
        <ele>15.858489</ele>
        <time>2022-04-17T09:59:47.000Z</time>
      </trkpt>
      <trkpt lat="36.11648" lon="-5.34932">
        <ele>15.915645</ele>
        <time>2022-04-17T09:59:48.000Z</time>
      </trkpt>
      <trkpt lat="36.11647" lon="-5.3493">
        <ele>16.041935</ele>
        <time>2022-04-17T09:59:53.000Z</time>
      </trkpt>
      <trkpt lat="36.11646" lon="-5.34928">
        <ele>16.156972</ele>
        <time>2022-04-17T09:59:54.000Z</time>
      </trkpt>
      <trkpt lat="36.11638" lon="-5.3492">
        <ele>16.785864</ele>
        <time>2022-04-17T09:59:59.000Z</time>
      </trkpt>
      <trkpt lat="36.11637" lon="-5.34918">
        <ele>16.914935</ele>
        <time>2022-04-17T10:00:00.000Z</time>
      </trkpt>
      <trkpt lat="36.11625" lon="-5.34909">
        <ele>17.795479</ele>
        <time>2022-04-17T10:00:07.000Z</time>
      </trkpt>
      <trkpt lat="36.1162" lon="-5.34906">
        <ele>18.155487</ele>
        <time>2022-04-17T10:00:10.000Z</time>
      </trkpt>
      <trkpt lat="36.11618" lon="-5.34905">
        <ele>18.283146</ele>
        <time>2022-04-17T10:00:11.000Z</time>
      </trkpt>
      <trkpt lat="36.11612" lon="-5.34901">
        <ele>18.68942</ele>
        <time>2022-04-17T10:00:14.000Z</time>
      </trkpt>
      <trkpt lat="36.11608" lon="-5.34898">
        <ele>19.007116</ele>
        <time>2022-04-17T10:00:17.000Z</time>
      </trkpt>
      <trkpt lat="36.11603" lon="-5.34897">
        <ele>19.278788</ele>
        <time>2022-04-17T10:00:19.000Z</time>
      </trkpt>
      <trkpt lat="36.11598" lon="-5.34894">
        <ele>19.644246</ele>
        <time>2022-04-17T10:00:22.000Z</time>
      </trkpt>
      <trkpt lat="36.11586" lon="-5.34887">
        <ele>20.480235</ele>
        <time>2022-04-17T10:00:29.000Z</time>
      </trkpt>
      <trkpt lat="36.11584" lon="-5.34886">
        <ele>20.609793</ele>
        <time>2022-04-17T10:00:30.000Z</time>
      </trkpt>
      <trkpt lat="36.11573" lon="-5.3488">
        <ele>21.317951</ele>
        <time>2022-04-17T10:00:36.000Z</time>
      </trkpt>
      <trkpt lat="36.11571" lon="-5.34879">
        <ele>21.444139</ele>
        <time>2022-04-17T10:00:37.000Z</time>
      </trkpt>
      <trkpt lat="36.11563" lon="-5.34876">
        <ele>21.886533</ele>
        <time>2022-04-17T10:00:41.000Z</time>
      </trkpt>
      <trkpt lat="36.11555" lon="-5.34872">
        <ele>22.396522</ele>
        <time>2022-04-17T10:00:46.000Z</time>
      </trkpt>
      <trkpt lat="36.11552" lon="-5.3487">
        <ele>22.595286</ele>
        <time>2022-04-17T10:00:48.000Z</time>
      </trkpt>
      <trkpt lat="36.11546" lon="-5.34865">
        <ele>22.981602</ele>
        <time>2022-04-17T10:00:52.000Z</time>
      </trkpt>
      <trkpt lat="36.11542" lon="-5.34862">
        <ele>23.24402</ele>
        <time>2022-04-17T10:00:54.000Z</time>
      </trkpt>
      <trkpt lat="36.11541" lon="-5.34861">
        <ele>23.33562</ele>
        <time>2022-04-17T10:00:55.000Z</time>
      </trkpt>
      <trkpt lat="36.11539" lon="-5.34861">
        <ele>23.409784</ele>
        <time>2022-04-17T10:00:57.000Z</time>
      </trkpt>
      <trkpt lat="36.11539" lon="-5.3486">
        <ele>23.428754</ele>
        <time>2022-04-17T10:01:03.000Z</time>
      </trkpt>
      <trkpt lat="36.11539" lon="-5.3486">
        <ele>23.462404</ele>
        <time>2022-04-17T10:01:07.000Z</time>
      </trkpt>
      <trkpt lat="36.11539" lon="-5.3486">
        <ele>23.462404</ele>
        <time>2022-04-17T10:01:09.000Z</time>
      </trkpt>
      <trkpt lat="36.11539" lon="-5.34857">
        <ele>23.593909</ele>
        <time>2022-04-17T10:01:11.000Z</time>
      </trkpt>
      <trkpt lat="36.11538" lon="-5.34852">
        <ele>23.849166</ele>
        <time>2022-04-17T10:01:12.000Z</time>
      </trkpt>
      <trkpt lat="36.11219" lon="-5.34611">
        <ele>36.607492</ele>
        <time>2022-04-17T10:03:55.000Z</time>
      </trkpt>
      <trkpt lat="36.11222" lon="-5.34608">
        <ele>36.587492</ele>
        <time>2022-04-17T10:03:57.000Z</time>
      </trkpt>
      <trkpt lat="36.11212" lon="-5.34606">
        <ele>36.526268</ele>
        <time>2022-04-17T10:04:02.000Z</time>
      </trkpt>
      <trkpt lat="36.11208" lon="-5.34606">
        <ele>36.502512</ele>
        <time>2022-04-17T10:04:03.000Z</time>
      </trkpt>
      <trkpt lat="36.11194" lon="-5.34602">
        <ele>36.416187</ele>
        <time>2022-04-17T10:04:07.000Z</time>
      </trkpt>
      <trkpt lat="36.11182" lon="-5.34599">
        <ele>36.346672</ele>
        <time>2022-04-17T10:04:10.000Z</time>
      </trkpt>
      <trkpt lat="36.11177" lon="-5.34598">
        <ele>36.315684</ele>
        <time>2022-04-17T10:04:12.000Z</time>
      </trkpt>
      <trkpt lat="36.11173" lon="-5.34597">
        <ele>36.291675</ele>
        <time>2022-04-17T10:04:14.000Z</time>
      </trkpt>
      <trkpt lat="36.1117" lon="-5.34595">
        <ele>36.270281</ele>
        <time>2022-04-17T10:04:17.000Z</time>
      </trkpt>
      <trkpt lat="36.11169" lon="-5.34594">
        <ele>36.26128</ele>
        <time>2022-04-17T10:04:18.000Z</time>
      </trkpt>
      <trkpt lat="36.11169" lon="-5.34594">
        <ele>36.257421</ele>
        <time>2022-04-17T10:04:19.000Z</time>
      </trkpt>
      <trkpt lat="36.11168" lon="-5.34592">
        <ele>36.24868</ele>
        <time>2022-04-17T10:04:27.000Z</time>
      </trkpt>
      <trkpt lat="36.11172" lon="-5.34591">
        <ele>36.221035</ele>
        <time>2022-04-17T10:04:33.000Z</time>
      </trkpt>
      <trkpt lat="36.11173" lon="-5.34591">
        <ele>36.213858</ele>
        <time>2022-04-17T10:04:38.000Z</time>
      </trkpt>
      <trkpt lat="36.11167" lon="-5.34588">
        <ele>36.171876</ele>
        <time>2022-04-17T10:04:47.000Z</time>
      </trkpt>
      <trkpt lat="36.11159" lon="-5.34598">
        <ele>36.102645</ele>
        <time>2022-04-17T10:04:51.000Z</time>
      </trkpt>
      <trkpt lat="36.11156" lon="-5.346">
        <ele>36.085679</ele>
        <time>2022-04-17T10:04:52.000Z</time>
      </trkpt>
      <trkpt lat="36.11145" lon="-5.34605">
        <ele>36.013093</ele>
        <time>2022-04-17T10:04:57.000Z</time>
      </trkpt>
      <trkpt lat="36.11144" lon="-5.34606">
        <ele>36.002486</ele>
        <time>2022-04-17T10:04:58.000Z</time>
      </trkpt>
      <trkpt lat="36.11142" lon="-5.34608">
        <ele>35.9894</ele>
        <time>2022-04-17T10:04:59.000Z</time>
      </trkpt>
      <trkpt lat="36.11137" lon="-5.34609">
        <ele>35.958274</ele>
        <time>2022-04-17T10:05:01.000Z</time>
      </trkpt>
      <trkpt lat="36.11134" lon="-5.34607">
        <ele>35.943228</ele>
        <time>2022-04-17T10:05:02.000Z</time>
      </trkpt>
      <trkpt lat="36.11131" lon="-5.34603">
        <ele>35.916467</ele>
        <time>2022-04-17T10:05:04.000Z</time>
      </trkpt>
      <trkpt lat="36.11128" lon="-5.3459">
        <ele>35.860091</ele>
        <time>2022-04-17T10:05:08.000Z</time>
      </trkpt>
      <trkpt lat="36.11126" lon="-5.34562">
        <ele>35.744048</ele>
        <time>2022-04-17T10:05:15.000Z</time>
      </trkpt>
      <trkpt lat="36.11124" lon="-5.34535">
        <ele>35.631513</ele>
        <time>2022-04-17T10:05:23.000Z</time>
      </trkpt>
      <trkpt lat="36.11122" lon="-5.34525">
        <ele>35.590086</ele>
        <time>2022-04-17T10:05:28.000Z</time>
      </trkpt>
      <trkpt lat="36.11121" lon="-5.34525">
        <ele>35.583734</ele>
        <time>2022-04-17T10:05:29.000Z</time>
      </trkpt>
      <trkpt lat="36.11119" lon="-5.34525">
        <ele>35.576541</ele>
        <time>2022-04-17T10:05:31.000Z</time>
      </trkpt>
      <trkpt lat="36.1112" lon="-5.34525">
        <ele>35.574803</ele>
        <time>2022-04-17T10:05:32.000Z</time>
      </trkpt>
      <trkpt lat="36.1112" lon="-5.34526">
        <ele>35.57027</ele>
        <time>2022-04-17T10:05:37.000Z</time>
      </trkpt>
      <trkpt lat="36.1112" lon="-5.34526">
        <ele>35.569609</ele>
        <time>2022-04-17T10:05:40.000Z</time>
      </trkpt>
      <trkpt lat="36.1112" lon="-5.34526">
        <ele>35.568633</ele>
        <time>2022-04-17T10:05:46.000Z</time>
      </trkpt>
      <trkpt lat="36.11112" lon="-5.34526">
        <ele>35.530092</ele>
        <time>2022-04-17T10:05:49.000Z</time>
      </trkpt>
      <trkpt lat="36.11088" lon="-5.34527">
        <ele>35.402596</ele>
        <time>2022-04-17T10:05:56.000Z</time>
      </trkpt>
      <trkpt lat="36.11051" lon="-5.34529">
        <ele>35.214273</ele>
        <time>2022-04-17T10:06:06.000Z</time>
      </trkpt>
      <trkpt lat="36.11039" lon="-5.34539">
        <ele>35.141753</ele>
        <time>2022-04-17T10:06:10.000Z</time>
      </trkpt>
      <trkpt lat="36.11029" lon="-5.34552">
        <ele>35.066947</ele>
        <time>2022-04-17T10:06:15.000Z</time>
      </trkpt>
      <trkpt lat="36.11027" lon="-5.34554">
        <ele>35.052152</ele>
        <time>2022-04-17T10:06:16.000Z</time>
      </trkpt>
      <trkpt lat="36.1101" lon="-5.34577">
        <ele>34.891093</ele>
        <time>2022-04-17T10:06:24.000Z</time>
      </trkpt>
      <trkpt lat="36.10995" lon="-5.34588">
        <ele>34.765155</ele>
        <time>2022-04-17T10:06:30.000Z</time>
      </trkpt>
      <trkpt lat="36.10984" lon="-5.34589">
        <ele>34.687237</ele>
        <time>2022-04-17T10:06:34.000Z</time>
      </trkpt>
      <trkpt lat="36.10968" lon="-5.34589">
        <ele>34.572528</ele>
        <time>2022-04-17T10:06:39.000Z</time>
      </trkpt>
      <trkpt lat="36.10959" lon="-5.34589">
        <ele>34.509154</ele>
        <time>2022-04-17T10:06:43.000Z</time>
      </trkpt>
      <trkpt lat="36.10956" lon="-5.34589">
        <ele>34.486813</ele>
        <time>2022-04-17T10:06:45.000Z</time>
      </trkpt>
      <trkpt lat="36.10949" lon="-5.3459">
        <ele>34.4401</ele>
        <time>2022-04-17T10:06:49.000Z</time>
      </trkpt>
      <trkpt lat="36.10946" lon="-5.3459">
        <ele>34.421023</ele>
        <time>2022-04-17T10:06:51.000Z</time>
      </trkpt>
      <trkpt lat="36.10945" lon="-5.3459">
        <ele>34.413903</ele>
        <time>2022-04-17T10:06:52.000Z</time>
      </trkpt>
      <trkpt lat="36.10945" lon="-5.34592">
        <ele>34.401065</ele>
        <time>2022-04-17T10:06:54.000Z</time>
      </trkpt>
      <trkpt lat="36.10945" lon="-5.34595">
        <ele>34.384141</ele>
        <time>2022-04-17T10:06:57.000Z</time>
      </trkpt>
      <trkpt lat="36.10945" lon="-5.34595">
        <ele>34.383226</ele>
        <time>2022-04-17T10:06:59.000Z</time>
      </trkpt>
      <trkpt lat="36.10943" lon="-5.34595">
        <ele>34.369503</ele>
        <time>2022-04-17T10:07:08.000Z</time>
      </trkpt>
      <trkpt lat="36.10942" lon="-5.34596">
        <ele>34.359203</ele>
        <time>2022-04-17T10:07:09.000Z</time>
      </trkpt>
      <trkpt lat="36.10941" lon="-5.34597">
        <ele>34.350399</ele>
        <time>2022-04-17T10:07:14.000Z</time>
      </trkpt>
      <trkpt lat="36.10941" lon="-5.34597">
        <ele>34.34616</ele>
        <time>2022-04-17T10:07:16.000Z</time>
      </trkpt>
      <trkpt lat="36.10943" lon="-5.34598">
        <ele>34.332198</ele>
        <time>2022-04-17T10:07:21.000Z</time>
      </trkpt>
      <trkpt lat="36.10943" lon="-5.34599">
        <ele>34.328674</ele>
        <time>2022-04-17T10:07:25.000Z</time>
      </trkpt>
      <trkpt lat="36.10943" lon="-5.34599">
        <ele>34.328674</ele>
        <time>2022-04-17T10:07:32.000Z</time>
      </trkpt>
      <trkpt lat="36.10943" lon="-5.34598">
        <ele>34.327523</ele>
        <time>2022-04-17T10:07:39.000Z</time>
      </trkpt>
      <trkpt lat="36.10944" lon="-5.34598">
        <ele>34.324617</ele>
        <time>2022-04-17T10:07:46.000Z</time>
      </trkpt>
      <trkpt lat="36.10944" lon="-5.34598">
        <ele>34.322481</ele>
        <time>2022-04-17T10:07:50.000Z</time>
      </trkpt>
      <trkpt lat="36.10944" lon="-5.34598">
        <ele>34.321057</ele>
        <time>2022-04-17T10:07:54.000Z</time>
      </trkpt>
      <trkpt lat="36.10944" lon="-5.34599">
        <ele>34.317606</ele>
        <time>2022-04-17T10:08:10.000Z</time>
      </trkpt>
      <trkpt lat="36.10944" lon="-5.34599">
        <ele>34.317031</ele>
        <time>2022-04-17T10:08:17.000Z</time>
      </trkpt>
      <trkpt lat="36.10944" lon="-5.34599">
        <ele>34.317031</ele>
        <time>2022-04-17T10:08:19.000Z</time>
      </trkpt>
      <trkpt lat="36.10944" lon="-5.34599">
        <ele>34.316319</ele>
        <time>2022-04-17T10:08:21.000Z</time>
      </trkpt>
      <trkpt lat="36.10945" lon="-5.34599">
        <ele>34.312362</ele>
        <time>2022-04-17T10:08:27.000Z</time>
      </trkpt>
      <trkpt lat="36.10945" lon="-5.34599">
        <ele>34.309032</ele>
        <time>2022-04-17T10:08:34.000Z</time>
      </trkpt>
      <trkpt lat="36.10946" lon="-5.34598">
        <ele>34.304793</ele>
        <time>2022-04-17T10:08:45.000Z</time>
      </trkpt>
      <trkpt lat="36.10947" lon="-5.34593">
        <ele>34.271275</ele>
        <time>2022-04-17T10:08:54.000Z</time>
      </trkpt>
      <trkpt lat="36.10947" lon="-5.34592">
        <ele>34.267186</ele>
        <time>2022-04-17T10:08:56.000Z</time>
      </trkpt>
      <trkpt lat="36.10947" lon="-5.34593">
        <ele>34.258381</ele>
        <time>2022-04-17T10:09:04.000Z</time>
      </trkpt>
      <trkpt lat="36.10946" lon="-5.34596">
        <ele>34.238652</ele>
        <time>2022-04-17T10:09:10.000Z</time>
      </trkpt>
      <trkpt lat="36.10947" lon="-5.34595">
        <ele>34.231329</ele>
        <time>2022-04-17T10:09:22.000Z</time>
      </trkpt>
      <trkpt lat="36.10947" lon="-5.34595">
        <ele>34.229193</ele>
        <time>2022-04-17T10:09:24.000Z</time>
      </trkpt>
      <trkpt lat="36.10947" lon="-5.34595">
        <ele>34.227769</ele>
        <time>2022-04-17T10:09:25.000Z</time>
      </trkpt>
      <trkpt lat="36.10947" lon="-5.34595">
        <ele>34.225633</ele>
        <time>2022-04-17T10:09:28.000Z</time>
      </trkpt>
      <trkpt lat="36.10948" lon="-5.34595">
        <ele>34.22428</ele>
        <time>2022-04-17T10:09:33.000Z</time>
      </trkpt>
      <trkpt lat="36.10948" lon="-5.34596">
        <ele>34.220673</ele>
        <time>2022-04-17T10:09:37.000Z</time>
      </trkpt>
      <trkpt lat="36.10948" lon="-5.34596">
        <ele>34.217091</ele>
        <time>2022-04-17T10:09:52.000Z</time>
      </trkpt>
      <trkpt lat="36.10948" lon="-5.34596">
        <ele>34.216515</ele>
        <time>2022-04-17T10:09:57.000Z</time>
      </trkpt>
      <trkpt lat="36.10947" lon="-5.34596">
        <ele>34.208662</ele>
        <time>2022-04-17T10:10:01.000Z</time>
      </trkpt>
      <trkpt lat="36.10948" lon="-5.34595">
        <ele>34.201475</ele>
        <time>2022-04-17T10:10:07.000Z</time>
      </trkpt>
      <trkpt lat="36.10948" lon="-5.34595">
        <ele>34.201475</ele>
        <time>2022-04-17T10:10:08.000Z</time>
      </trkpt>
      <trkpt lat="36.10947" lon="-5.34595">
        <ele>34.194355</ele>
        <time>2022-04-17T10:10:16.000Z</time>
      </trkpt>
      <trkpt lat="36.10947" lon="-5.34595">
        <ele>34.192143</ele>
        <time>2022-04-17T10:10:21.000Z</time>
      </trkpt>
      <trkpt lat="36.10947" lon="-5.34595">
        <ele>34.190992</ele>
        <time>2022-04-17T10:10:24.000Z</time>
      </trkpt>
      <trkpt lat="36.10947" lon="-5.34595">
        <ele>34.188856</ele>
        <time>2022-04-17T10:10:38.000Z</time>
      </trkpt>
      <trkpt lat="36.10948" lon="-5.34596">
        <ele>34.179318</ele>
        <time>2022-04-17T10:10:59.000Z</time>
      </trkpt>
      <trkpt lat="36.10947" lon="-5.34596">
        <ele>34.173366</ele>
        <time>2022-04-17T10:11:09.000Z</time>
      </trkpt>
      <trkpt lat="36.10947" lon="-5.34596">
        <ele>34.17245</ele>
        <time>2022-04-17T10:11:15.000Z</time>
      </trkpt>
      <trkpt lat="36.10947" lon="-5.34596">
        <ele>34.171026</ele>
        <time>2022-04-17T10:11:19.000Z</time>
      </trkpt>
      <trkpt lat="36.10947" lon="-5.34596">
        <ele>34.168789</ele>
        <time>2022-04-17T10:11:21.000Z</time>
      </trkpt>
      <trkpt lat="36.10947" lon="-5.34594">
        <ele>34.160247</ele>
        <time>2022-04-17T10:11:23.000Z</time>
      </trkpt>
      <trkpt lat="36.10949" lon="-5.34593">
        <ele>34.143884</ele>
        <time>2022-04-17T10:11:25.000Z</time>
      </trkpt>
      <trkpt lat="36.10954" lon="-5.34591">
        <ele>34.110383</ele>
        <time>2022-04-17T10:11:31.000Z</time>
      </trkpt>
      <trkpt lat="36.10954" lon="-5.3459">
        <ele>34.105157</ele>
        <time>2022-04-17T10:11:45.000Z</time>
      </trkpt>
      <trkpt lat="36.10954" lon="-5.3459">
        <ele>34.104582</ele>
        <time>2022-04-17T10:11:54.000Z</time>
      </trkpt>
      <trkpt lat="36.10954" lon="-5.3459">
        <ele>34.10387</ele>
        <time>2022-04-17T10:11:56.000Z</time>
      </trkpt>
      <trkpt lat="36.10955" lon="-5.3459">
        <ele>34.093835</ele>
        <time>2022-04-17T10:12:08.000Z</time>
      </trkpt>
      <trkpt lat="36.10961" lon="-5.34591">
        <ele>34.053548</ele>
        <time>2022-04-17T10:12:11.000Z</time>
      </trkpt>
      <trkpt lat="36.10972" lon="-5.3459">
        <ele>33.976433</ele>
        <time>2022-04-17T10:12:15.000Z</time>
      </trkpt>
      <trkpt lat="36.1098" lon="-5.34589">
        <ele>33.914355</ele>
        <time>2022-04-17T10:12:19.000Z</time>
      </trkpt>
      <trkpt lat="36.10983" lon="-5.34589">
        <ele>33.892986</ele>
        <time>2022-04-17T10:12:21.000Z</time>
      </trkpt>
      <trkpt lat="36.10993" lon="-5.34589">
        <ele>33.822492</ele>
        <time>2022-04-17T10:12:25.000Z</time>
      </trkpt>
      <trkpt lat="36.11003" lon="-5.34589">
        <ele>33.750556</ele>
        <time>2022-04-17T10:12:30.000Z</time>
      </trkpt>
      <trkpt lat="36.11005" lon="-5.34587">
        <ele>33.736017</ele>
        <time>2022-04-17T10:12:31.000Z</time>
      </trkpt>
      <trkpt lat="36.1101" lon="-5.3458">
        <ele>33.783039</ele>
        <time>2022-04-17T10:12:35.000Z</time>
      </trkpt>
      <trkpt lat="36.1102" lon="-5.34566">
        <ele>33.918912</ele>
        <time>2022-04-17T10:12:42.000Z</time>
      </trkpt>
      <trkpt lat="36.11035" lon="-5.34551">
        <ele>34.083803</ele>
        <time>2022-04-17T10:12:49.000Z</time>
      </trkpt>
      <trkpt lat="36.11048" lon="-5.34541">
        <ele>34.219904</ele>
        <time>2022-04-17T10:12:54.000Z</time>
      </trkpt>
      <trkpt lat="36.11052" lon="-5.3454">
        <ele>34.261113</ele>
        <time>2022-04-17T10:12:56.000Z</time>
      </trkpt>
      <trkpt lat="36.11064" lon="-5.34531">
        <ele>34.384433</ele>
        <time>2022-04-17T10:13:02.000Z</time>
      </trkpt>
      <trkpt lat="36.11068" lon="-5.34531">
        <ele>34.41895</ele>
        <time>2022-04-17T10:13:04.000Z</time>
      </trkpt>
      <trkpt lat="36.1108" lon="-5.34531">
        <ele>34.522453</ele>
        <time>2022-04-17T10:13:11.000Z</time>
      </trkpt>
      <trkpt lat="36.11084" lon="-5.34532">
        <ele>34.561017</ele>
        <time>2022-04-17T10:13:13.000Z</time>
      </trkpt>
      <trkpt lat="36.11084" lon="-5.34534">
        <ele>34.57462</ele>
        <time>2022-04-17T10:13:15.000Z</time>
      </trkpt>
      <trkpt lat="36.11083" lon="-5.34546">
        <ele>34.662852</ele>
        <time>2022-04-17T10:13:21.000Z</time>
      </trkpt>
      <trkpt lat="36.11083" lon="-5.34552">
        <ele>34.703582</ele>
        <time>2022-04-17T10:13:23.000Z</time>
      </trkpt>
      <trkpt lat="36.11082" lon="-5.34564">
        <ele>34.789625</ele>
        <time>2022-04-17T10:13:29.000Z</time>
      </trkpt>
      <trkpt lat="36.11082" lon="-5.3457">
        <ele>34.836196</ele>
        <time>2022-04-17T10:13:33.000Z</time>
      </trkpt>
      <trkpt lat="36.11079" lon="-5.34572">
        <ele>34.866476</ele>
        <time>2022-04-17T10:13:35.000Z</time>
      </trkpt>
      <trkpt lat="36.11065" lon="-5.34577">
        <ele>34.994206</ele>
        <time>2022-04-17T10:13:43.000Z</time>
      </trkpt>
      <trkpt lat="36.11059" lon="-5.34581">
        <ele>35.056996</ele>
        <time>2022-04-17T10:13:48.000Z</time>
      </trkpt>
      <trkpt lat="36.11059" lon="-5.3458">
        <ele>35.067931</ele>
        <time>2022-04-17T10:13:49.000Z</time>
      </trkpt>
      <trkpt lat="36.11061" lon="-5.34577">
        <ele>35.099079</ele>
        <time>2022-04-17T10:13:52.000Z</time>
      </trkpt>
      <trkpt lat="36.11066" lon="-5.34577">
        <ele>35.138015</ele>
        <time>2022-04-17T10:13:54.000Z</time>
      </trkpt>
      <trkpt lat="36.1107" lon="-5.34574">
        <ele>35.182733</ele>
        <time>2022-04-17T10:13:57.000Z</time>
      </trkpt>
      <trkpt lat="36.11084" lon="-5.34573">
        <ele>35.306001</ele>
        <time>2022-04-17T10:14:03.000Z</time>
      </trkpt>
      <trkpt lat="36.11097" lon="-5.34576">
        <ele>35.323698</ele>
        <time>2022-04-17T10:14:10.000Z</time>
      </trkpt>
      <trkpt lat="36.11097" lon="-5.34575">
        <ele>35.323859</ele>
        <time>2022-04-17T10:14:13.000Z</time>
      </trkpt>
      <trkpt lat="36.11097" lon="-5.34576">
        <ele>35.324008</ele>
        <time>2022-04-17T10:14:15.000Z</time>
      </trkpt>
      <trkpt lat="36.11097" lon="-5.34575">
        <ele>35.324256</ele>
        <time>2022-04-17T10:14:20.000Z</time>
      </trkpt>
      <trkpt lat="36.11097" lon="-5.34575">
        <ele>35.324416</ele>
        <time>2022-04-17T10:14:24.000Z</time>
      </trkpt>
      <trkpt lat="36.11097" lon="-5.34575">
        <ele>35.324416</ele>
        <time>2022-04-17T10:14:26.000Z</time>
      </trkpt>
      <trkpt lat="36.11097" lon="-5.34575">
        <ele>35.324416</ele>
        <time>2022-04-17T10:14:28.000Z</time>
      </trkpt>
      <trkpt lat="36.11097" lon="-5.34576">
        <ele>35.324574</ele>
        <time>2022-04-17T10:14:41.000Z</time>
      </trkpt>
      <trkpt lat="36.11097" lon="-5.34576">
        <ele>35.324574</ele>
        <time>2022-04-17T10:14:45.000Z</time>
      </trkpt>
      <trkpt lat="36.11097" lon="-5.34576">
        <ele>35.324636</ele>
        <time>2022-04-17T10:14:47.000Z</time>
      </trkpt>
      <trkpt lat="36.11097" lon="-5.34575">
        <ele>35.325267</ele>
        <time>2022-04-17T10:15:19.000Z</time>
      </trkpt>
      <trkpt lat="36.11099" lon="-5.34576">
        <ele>35.326235</ele>
        <time>2022-04-17T10:15:28.000Z</time>
      </trkpt>
      <trkpt lat="36.11099" lon="-5.34576">
        <ele>35.326383</ele>
        <time>2022-04-17T10:15:35.000Z</time>
      </trkpt>
      <trkpt lat="36.11099" lon="-5.34576">
        <ele>35.326383</ele>
        <time>2022-04-17T10:15:46.000Z</time>
      </trkpt>
      <trkpt lat="36.11098" lon="-5.34576">
        <ele>35.326838</ele>
        <time>2022-04-17T10:15:58.000Z</time>
      </trkpt>
      <trkpt lat="36.11098" lon="-5.34576">
        <ele>35.327071</ele>
        <time>2022-04-17T10:16:11.000Z</time>
      </trkpt>
      <trkpt lat="36.11096" lon="-5.34578">
        <ele>35.328575</ele>
        <time>2022-04-17T10:16:16.000Z</time>
      </trkpt>
      <trkpt lat="36.11094" lon="-5.34583">
        <ele>35.331391</ele>
        <time>2022-04-17T10:16:23.000Z</time>
      </trkpt>
      <trkpt lat="36.1113" lon="-5.3456">
        <ele>35.356312</ele>
        <time>2022-04-17T10:18:23.000Z</time>
      </trkpt>
      <trkpt lat="36.11086" lon="-5.34568">
        <ele>35.383499</ele>
        <time>2022-04-17T10:18:27.000Z</time>
      </trkpt>
      <trkpt lat="36.11093" lon="-5.34572">
        <ele>35.388177</ele>
        <time>2022-04-17T10:18:37.000Z</time>
      </trkpt>
      <trkpt lat="36.11094" lon="-5.34572">
        <ele>35.388731</ele>
        <time>2022-04-17T10:18:41.000Z</time>
      </trkpt>
      <trkpt lat="36.11097" lon="-5.34575">
        <ele>35.391339</ele>
        <time>2022-04-17T10:18:48.000Z</time>
      </trkpt>
      <trkpt lat="36.11097" lon="-5.34576">
        <ele>35.3915</ele>
        <time>2022-04-17T10:18:50.000Z</time>
      </trkpt>
      <trkpt lat="36.11094" lon="-5.34574">
        <ele>35.393328</ele>
        <time>2022-04-17T10:18:58.000Z</time>
      </trkpt>
      <trkpt lat="36.11096" lon="-5.34574">
        <ele>35.39446</ele>
        <time>2022-04-17T10:19:15.000Z</time>
      </trkpt>
      <trkpt lat="36.11096" lon="-5.34572">
        <ele>35.395606</ele>
        <time>2022-04-17T10:19:19.000Z</time>
      </trkpt>
      <trkpt lat="36.11097" lon="-5.34569">
        <ele>35.397338</ele>
        <time>2022-04-17T10:19:21.000Z</time>
      </trkpt>
      <trkpt lat="36.11104" lon="-5.34568">
        <ele>35.401728</ele>
        <time>2022-04-17T10:19:27.000Z</time>
      </trkpt>
      <trkpt lat="36.11107" lon="-5.34566">
        <ele>35.403544</ele>
        <time>2022-04-17T10:19:29.000Z</time>
      </trkpt>
      <trkpt lat="36.11109" lon="-5.34559">
        <ele>35.407198</ele>
        <time>2022-04-17T10:19:32.000Z</time>
      </trkpt>
      <trkpt lat="36.11107" lon="-5.34543">
        <ele>35.415076</ele>
        <time>2022-04-17T10:19:38.000Z</time>
      </trkpt>
      <trkpt lat="36.11107" lon="-5.34538">
        <ele>35.417738</ele>
        <time>2022-04-17T10:19:40.000Z</time>
      </trkpt>
      <trkpt lat="36.11105" lon="-5.34529">
        <ele>35.422223</ele>
        <time>2022-04-17T10:19:44.000Z</time>
      </trkpt>
      <trkpt lat="36.11108" lon="-5.34522">
        <ele>35.426372</ele>
        <time>2022-04-17T10:19:47.000Z</time>
      </trkpt>
      <trkpt lat="36.11121" lon="-5.34518">
        <ele>35.827592</ele>
        <time>2022-04-17T10:19:52.000Z</time>
      </trkpt>
      <trkpt lat="36.11124" lon="-5.34519">
        <ele>35.92329</ele>
        <time>2022-04-17T10:19:53.000Z</time>
      </trkpt>
      <trkpt lat="36.11132" lon="-5.34518">
        <ele>36.207089</ele>
        <time>2022-04-17T10:19:56.000Z</time>
      </trkpt>
      <trkpt lat="36.11139" lon="-5.34519">
        <ele>36.448128</ele>
        <time>2022-04-17T10:19:59.000Z</time>
      </trkpt>
      <trkpt lat="36.11152" lon="-5.34519">
        <ele>36.847276</ele>
        <time>2022-04-17T10:20:03.000Z</time>
      </trkpt>
      <trkpt lat="36.11171" lon="-5.34519">
        <ele>37.47403</ele>
        <time>2022-04-17T10:20:09.000Z</time>
      </trkpt>
      <trkpt lat="36.11192" lon="-5.34519">
        <ele>38.18337</ele>
        <time>2022-04-17T10:20:17.000Z</time>
      </trkpt>
      <trkpt lat="36.11194" lon="-5.34519">
        <ele>38.255941</ele>
        <time>2022-04-17T10:20:18.000Z</time>
      </trkpt>
      <trkpt lat="36.11197" lon="-5.3452">
        <ele>38.333477</ele>
        <time>2022-04-17T10:20:19.000Z</time>
      </trkpt>
      <trkpt lat="36.11206" lon="-5.3452">
        <ele>38.646896</ele>
        <time>2022-04-17T10:20:23.000Z</time>
      </trkpt>
      <trkpt lat="36.11208" lon="-5.3452">
        <ele>38.726064</ele>
        <time>2022-04-17T10:20:24.000Z</time>
      </trkpt>
      <trkpt lat="36.11211" lon="-5.34519">
        <ele>38.804872</ele>
        <time>2022-04-17T10:20:25.000Z</time>
      </trkpt>
      <trkpt lat="36.11215" lon="-5.34517">
        <ele>38.942172</ele>
        <time>2022-04-17T10:20:27.000Z</time>
      </trkpt>
      <trkpt lat="36.11221" lon="-5.3451">
        <ele>39.227145</ele>
        <time>2022-04-17T10:20:31.000Z</time>
      </trkpt>
      <trkpt lat="36.11227" lon="-5.34505">
        <ele>39.468157</ele>
        <time>2022-04-17T10:20:34.000Z</time>
      </trkpt>
      <trkpt lat="36.1124" lon="-5.34497">
        <ele>39.933476</ele>
        <time>2022-04-17T10:20:41.000Z</time>
      </trkpt>
      <trkpt lat="36.11242" lon="-5.34493">
        <ele>40.068403</ele>
        <time>2022-04-17T10:20:43.000Z</time>
      </trkpt>
      <trkpt lat="36.11248" lon="-5.34471">
        <ele>40.67425</ele>
        <time>2022-04-17T10:20:51.000Z</time>
      </trkpt>
      <trkpt lat="36.1125" lon="-5.34463">
        <ele>40.916989</ele>
        <time>2022-04-17T10:20:54.000Z</time>
      </trkpt>
      <trkpt lat="36.11255" lon="-5.34442">
        <ele>41.311127</ele>
        <time>2022-04-17T10:21:01.000Z</time>
      </trkpt>
      <trkpt lat="36.11264" lon="-5.34418">
        <ele>41.016073</ele>
        <time>2022-04-17T10:21:09.000Z</time>
      </trkpt>
      <trkpt lat="36.1127" lon="-5.34412">
        <ele>40.911656</ele>
        <time>2022-04-17T10:21:11.000Z</time>
      </trkpt>
      <trkpt lat="36.11274" lon="-5.34409">
        <ele>40.848808</ele>
        <time>2022-04-17T10:21:12.000Z</time>
      </trkpt>
      <trkpt lat="36.11283" lon="-5.34402">
        <ele>40.699372</ele>
        <time>2022-04-17T10:21:14.000Z</time>
      </trkpt>
      <trkpt lat="36.11292" lon="-5.34394">
        <ele>40.54225</ele>
        <time>2022-04-17T10:21:16.000Z</time>
      </trkpt>
      <trkpt lat="36.11313" lon="-5.34375">
        <ele>40.187849</ele>
        <time>2022-04-17T10:21:20.000Z</time>
      </trkpt>
      <trkpt lat="36.1132" lon="-5.34371">
        <ele>40.093964</ele>
        <time>2022-04-17T10:21:21.000Z</time>
      </trkpt>
      <trkpt lat="36.11326" lon="-5.34368">
        <ele>40.002049</ele>
        <time>2022-04-17T10:21:22.000Z</time>
      </trkpt>
      <trkpt lat="36.11339" lon="-5.34365">
        <ele>39.816111</ele>
        <time>2022-04-17T10:21:24.000Z</time>
      </trkpt>
      <trkpt lat="36.11345" lon="-5.34364">
        <ele>39.729706</ele>
        <time>2022-04-17T10:21:25.000Z</time>
      </trkpt>
      <trkpt lat="36.11352" lon="-5.34363">
        <ele>39.646027</ele>
        <time>2022-04-17T10:21:26.000Z</time>
      </trkpt>
      <trkpt lat="36.11391" lon="-5.34361">
        <ele>39.10679</ele>
        <time>2022-04-17T10:21:32.000Z</time>
      </trkpt>
      <trkpt lat="36.11438" lon="-5.34359">
        <ele>39.442619</ele>
        <time>2022-04-17T10:21:39.000Z</time>
      </trkpt>
      <trkpt lat="36.11444" lon="-5.34359">
        <ele>39.54366</ele>
        <time>2022-04-17T10:21:40.000Z</time>
      </trkpt>
      <trkpt lat="36.11462" lon="-5.34357">
        <ele>39.834517</ele>
        <time>2022-04-17T10:21:43.000Z</time>
      </trkpt>
      <trkpt lat="36.11474" lon="-5.34357">
        <ele>40.034048</ele>
        <time>2022-04-17T10:21:45.000Z</time>
      </trkpt>
      <trkpt lat="36.1148" lon="-5.34357">
        <ele>40.138005</ele>
        <time>2022-04-17T10:21:46.000Z</time>
      </trkpt>
      <trkpt lat="36.1149" lon="-5.34356">
        <ele>40.317727</ele>
        <time>2022-04-17T10:21:48.000Z</time>
      </trkpt>
      <trkpt lat="36.11522" lon="-5.34353">
        <ele>40.855874</ele>
        <time>2022-04-17T10:21:54.000Z</time>
      </trkpt>
      <trkpt lat="36.11528" lon="-5.34353">
        <ele>40.949801</ele>
        <time>2022-04-17T10:21:55.000Z</time>
      </trkpt>
      <trkpt lat="36.11551" lon="-5.34349">
        <ele>41.337355</ele>
        <time>2022-04-17T10:22:00.000Z</time>
      </trkpt>
      <trkpt lat="36.11562" lon="-5.34343">
        <ele>41.546588</ele>
        <time>2022-04-17T10:22:03.000Z</time>
      </trkpt>
      <trkpt lat="36.11575" lon="-5.34334">
        <ele>41.792727</ele>
        <time>2022-04-17T10:22:07.000Z</time>
      </trkpt>
      <trkpt lat="36.11578" lon="-5.34332">
        <ele>41.845958</ele>
        <time>2022-04-17T10:22:08.000Z</time>
      </trkpt>
      <trkpt lat="36.11595" lon="-5.34322">
        <ele>42.576135</ele>
        <time>2022-04-17T10:22:14.000Z</time>
      </trkpt>
      <trkpt lat="36.11601" lon="-5.34319">
        <ele>42.845095</ele>
        <time>2022-04-17T10:22:16.000Z</time>
      </trkpt>
      <trkpt lat="36.11622" lon="-5.34308">
        <ele>43.90338</ele>
        <time>2022-04-17T10:22:23.000Z</time>
      </trkpt>
      <trkpt lat="36.11625" lon="-5.34306">
        <ele>44.038504</ele>
        <time>2022-04-17T10:22:24.000Z</time>
      </trkpt>
      <trkpt lat="36.11645" lon="-5.34298">
        <ele>44.989706</ele>
        <time>2022-04-17T10:22:31.000Z</time>
      </trkpt>
      <trkpt lat="36.1165" lon="-5.34295">
        <ele>45.236191</ele>
        <time>2022-04-17T10:22:33.000Z</time>
      </trkpt>
      <trkpt lat="36.1166" lon="-5.3429">
        <ele>45.726287</ele>
        <time>2022-04-17T10:22:37.000Z</time>
      </trkpt>
      <trkpt lat="36.1167" lon="-5.34281">
        <ele>46.278566</ele>
        <time>2022-04-17T10:22:42.000Z</time>
      </trkpt>
      <trkpt lat="36.11672" lon="-5.34279">
        <ele>46.397066</ele>
        <time>2022-04-17T10:22:43.000Z</time>
      </trkpt>
      <trkpt lat="36.11679" lon="-5.3427">
        <ele>46.863259</ele>
        <time>2022-04-17T10:22:47.000Z</time>
      </trkpt>
      <trkpt lat="36.11684" lon="-5.34263">
        <ele>47.232401</ele>
        <time>2022-04-17T10:22:50.000Z</time>
      </trkpt>
      <trkpt lat="36.11689" lon="-5.34257">
        <ele>47.520176</ele>
        <time>2022-04-17T10:22:52.000Z</time>
      </trkpt>
      <trkpt lat="36.11699" lon="-5.34246">
        <ele>48.146452</ele>
        <time>2022-04-17T10:22:56.000Z</time>
      </trkpt>
      <trkpt lat="36.11702" lon="-5.34243">
        <ele>48.312633</ele>
        <time>2022-04-17T10:22:57.000Z</time>
      </trkpt>
      <trkpt lat="36.11722" lon="-5.34226">
        <ele>49.37785</ele>
        <time>2022-04-17T10:23:03.000Z</time>
      </trkpt>
      <trkpt lat="36.11725" lon="-5.34224">
        <ele>49.548829</ele>
        <time>2022-04-17T10:23:04.000Z</time>
      </trkpt>
      <trkpt lat="36.11728" lon="-5.34222">
        <ele>49.719948</ele>
        <time>2022-04-17T10:23:05.000Z</time>
      </trkpt>
      <trkpt lat="36.11735" lon="-5.34219">
        <ele>50.078981</ele>
        <time>2022-04-17T10:23:07.000Z</time>
      </trkpt>
      <trkpt lat="36.11742" lon="-5.34218">
        <ele>50.85913</ele>
        <time>2022-04-17T10:23:09.000Z</time>
      </trkpt>
      <trkpt lat="36.11752" lon="-5.34218">
        <ele>51.977389</ele>
        <time>2022-04-17T10:23:14.000Z</time>
      </trkpt>
      <trkpt lat="36.11755" lon="-5.34218">
        <ele>52.28752</ele>
        <time>2022-04-17T10:23:19.000Z</time>
      </trkpt>
      <trkpt lat="36.11755" lon="-5.34218">
        <ele>52.321917</ele>
        <time>2022-04-17T10:23:23.000Z</time>
      </trkpt>
      <trkpt lat="36.11755" lon="-5.34218">
        <ele>52.321917</ele>
        <time>2022-04-17T10:23:36.000Z</time>
      </trkpt>
      <trkpt lat="36.11758" lon="-5.34219">
        <ele>52.58187</ele>
        <time>2022-04-17T10:23:42.000Z</time>
      </trkpt>
      <trkpt lat="36.1176" lon="-5.3422">
        <ele>52.834329</ele>
        <time>2022-04-17T10:23:44.000Z</time>
      </trkpt>
      <trkpt lat="36.11767" lon="-5.34224">
        <ele>53.701727</ele>
        <time>2022-04-17T10:23:52.000Z</time>
      </trkpt>
      <trkpt lat="36.1177" lon="-5.34227">
        <ele>54.115966</ele>
        <time>2022-04-17T10:23:56.000Z</time>
      </trkpt>
      <trkpt lat="36.11774" lon="-5.3423">
        <ele>54.673579</ele>
        <time>2022-04-17T10:24:01.000Z</time>
      </trkpt>
      <trkpt lat="36.11778" lon="-5.34232">
        <ele>55.094263</ele>
        <time>2022-04-17T10:24:05.000Z</time>
      </trkpt>
      <trkpt lat="36.1178" lon="-5.34233">
        <ele>55.364163</ele>
        <time>2022-04-17T10:24:08.000Z</time>
      </trkpt>
      <trkpt lat="36.11782" lon="-5.34234">
        <ele>55.604946</ele>
        <time>2022-04-17T10:24:11.000Z</time>
      </trkpt>
      <trkpt lat="36.11784" lon="-5.34235">
        <ele>55.884878</ele>
        <time>2022-04-17T10:24:14.000Z</time>
      </trkpt>
      <trkpt lat="36.11787" lon="-5.34236">
        <ele>56.164811</ele>
        <time>2022-04-17T10:24:17.000Z</time>
      </trkpt>
      <trkpt lat="36.11792" lon="-5.34239">
        <ele>56.758544</ele>
        <time>2022-04-17T10:24:23.000Z</time>
      </trkpt>
      <trkpt lat="36.11793" lon="-5.34239">
        <ele>56.951999</ele>
        <time>2022-04-17T10:24:25.000Z</time>
      </trkpt>
      <trkpt lat="36.11798" lon="-5.34242">
        <ele>57.539477</ele>
        <time>2022-04-17T10:24:32.000Z</time>
      </trkpt>
      <trkpt lat="36.11799" lon="-5.34243">
        <ele>57.686347</ele>
        <time>2022-04-17T10:24:34.000Z</time>
      </trkpt>
      <trkpt lat="36.11804" lon="-5.34245">
        <ele>58.2629</ele>
        <time>2022-04-17T10:24:42.000Z</time>
      </trkpt>
      <trkpt lat="36.11804" lon="-5.34245">
        <ele>58.297688</ele>
        <time>2022-04-17T10:24:43.000Z</time>
      </trkpt>
      <trkpt lat="36.11804" lon="-5.34245">
        <ele>58.297688</ele>
        <time>2022-04-17T10:24:49.000Z</time>
      </trkpt>
      <trkpt lat="36.11804" lon="-5.34245">
        <ele>58.297688</ele>
        <time>2022-04-17T10:24:52.000Z</time>
      </trkpt>
      <trkpt lat="36.11804" lon="-5.34245">
        <ele>58.297688</ele>
        <time>2022-04-17T10:24:56.000Z</time>
      </trkpt>
      <trkpt lat="36.11807" lon="-5.34247">
        <ele>58.636224</ele>
        <time>2022-04-17T10:25:08.000Z</time>
      </trkpt>
      <trkpt lat="36.11809" lon="-5.34247">
        <ele>58.849603</ele>
        <time>2022-04-17T10:25:10.000Z</time>
      </trkpt>
      <trkpt lat="36.11812" lon="-5.34248">
        <ele>59.191362</ele>
        <time>2022-04-17T10:25:13.000Z</time>
      </trkpt>
      <trkpt lat="36.11817" lon="-5.3425">
        <ele>59.789165</ele>
        <time>2022-04-17T10:25:19.000Z</time>
      </trkpt>
      <trkpt lat="36.11821" lon="-5.34251">
        <ele>60.169961</ele>
        <time>2022-04-17T10:25:23.000Z</time>
      </trkpt>
      <trkpt lat="36.11826" lon="-5.34252">
        <ele>60.743115</ele>
        <time>2022-04-17T10:25:29.000Z</time>
      </trkpt>
      <trkpt lat="36.11828" lon="-5.34253">
        <ele>60.992529</ele>
        <time>2022-04-17T10:25:31.000Z</time>
      </trkpt>
      <trkpt lat="36.11836" lon="-5.34256">
        <ele>61.888986</ele>
        <time>2022-04-17T10:25:39.000Z</time>
      </trkpt>
      <trkpt lat="36.11837" lon="-5.34256">
        <ele>62.00216</ele>
        <time>2022-04-17T10:25:40.000Z</time>
      </trkpt>
      <trkpt lat="36.11842" lon="-5.34259">
        <ele>62.674228</ele>
        <time>2022-04-17T10:25:46.000Z</time>
      </trkpt>
      <trkpt lat="36.11846" lon="-5.3426">
        <ele>63.073704</ele>
        <time>2022-04-17T10:25:51.000Z</time>
      </trkpt>
      <trkpt lat="36.11849" lon="-5.3426">
        <ele>63.383706</ele>
        <time>2022-04-17T10:25:54.000Z</time>
      </trkpt>
      <trkpt lat="36.1185" lon="-5.3426">
        <ele>63.530115</ele>
        <time>2022-04-17T10:25:59.000Z</time>
      </trkpt>
      <trkpt lat="36.1185" lon="-5.3426">
        <ele>63.530115</ele>
        <time>2022-04-17T10:26:08.000Z</time>
      </trkpt>
      <trkpt lat="36.1185" lon="-5.3426">
        <ele>63.530115</ele>
        <time>2022-04-17T10:26:14.000Z</time>
      </trkpt>
      <trkpt lat="36.1185" lon="-5.3426">
        <ele>63.530115</ele>
        <time>2022-04-17T10:26:18.000Z</time>
      </trkpt>
      <trkpt lat="36.1185" lon="-5.3426">
        <ele>63.541187</ele>
        <time>2022-04-17T10:26:30.000Z</time>
      </trkpt>
      <trkpt lat="36.1185" lon="-5.3426">
        <ele>63.541187</ele>
        <time>2022-04-17T10:26:34.000Z</time>
      </trkpt>
      <trkpt lat="36.11849" lon="-5.3426">
        <ele>63.597262</ele>
        <time>2022-04-17T10:26:44.000Z</time>
      </trkpt>
      <trkpt lat="36.11849" lon="-5.3426">
        <ele>63.597262</ele>
        <time>2022-04-17T10:26:47.000Z</time>
      </trkpt>
      <trkpt lat="36.11849" lon="-5.3426">
        <ele>63.597262</ele>
        <time>2022-04-17T10:26:51.000Z</time>
      </trkpt>
      <trkpt lat="36.11849" lon="-5.3426">
        <ele>63.597262</ele>
        <time>2022-04-17T10:26:57.000Z</time>
      </trkpt>
      <trkpt lat="36.11849" lon="-5.3426">
        <ele>63.597262</ele>
        <time>2022-04-17T10:26:59.000Z</time>
      </trkpt>
      <trkpt lat="36.11849" lon="-5.3426">
        <ele>63.597262</ele>
        <time>2022-04-17T10:27:01.000Z</time>
      </trkpt>
      <trkpt lat="36.11849" lon="-5.3426">
        <ele>63.597262</ele>
        <time>2022-04-17T10:27:07.000Z</time>
      </trkpt>
      <trkpt lat="36.11849" lon="-5.3426">
        <ele>63.597262</ele>
        <time>2022-04-17T10:27:13.000Z</time>
      </trkpt>
      <trkpt lat="36.11849" lon="-5.3426">
        <ele>63.597262</ele>
        <time>2022-04-17T10:27:18.000Z</time>
      </trkpt>
      <trkpt lat="36.11849" lon="-5.3426">
        <ele>63.597262</ele>
        <time>2022-04-17T10:27:25.000Z</time>
      </trkpt>
      <trkpt lat="36.11854" lon="-5.34261">
        <ele>64.128575</ele>
        <time>2022-04-17T10:27:45.000Z</time>
      </trkpt>
      <trkpt lat="36.11861" lon="-5.34261">
        <ele>64.904045</ele>
        <time>2022-04-17T10:27:50.000Z</time>
      </trkpt>
      <trkpt lat="36.11866" lon="-5.34262">
        <ele>65.497612</ele>
        <time>2022-04-17T10:27:55.000Z</time>
      </trkpt>
      <trkpt lat="36.11868" lon="-5.34263">
        <ele>65.740873</ele>
        <time>2022-04-17T10:27:57.000Z</time>
      </trkpt>
      <trkpt lat="36.11871" lon="-5.34264">
        <ele>66.008987</ele>
        <time>2022-04-17T10:28:00.000Z</time>
      </trkpt>
      <trkpt lat="36.11872" lon="-5.34262">
        <ele>66.211713</ele>
        <time>2022-04-17T10:28:03.000Z</time>
      </trkpt>
      <trkpt lat="36.11874" lon="-5.34262">
        <ele>66.425092</ele>
        <time>2022-04-17T10:28:06.000Z</time>
      </trkpt>
      <trkpt lat="36.11874" lon="-5.34262">
        <ele>66.425092</ele>
        <time>2022-04-17T10:28:09.000Z</time>
      </trkpt>
      <trkpt lat="36.11874" lon="-5.34262">
        <ele>66.425092</ele>
        <time>2022-04-17T10:28:10.000Z</time>
      </trkpt>
      <trkpt lat="36.11874" lon="-5.34262">
        <ele>66.425092</ele>
        <time>2022-04-17T10:28:19.000Z</time>
      </trkpt>
      <trkpt lat="36.11874" lon="-5.34262">
        <ele>66.425092</ele>
        <time>2022-04-17T10:28:20.000Z</time>
      </trkpt>
      <trkpt lat="36.11874" lon="-5.34262">
        <ele>66.425092</ele>
        <time>2022-04-17T10:28:23.000Z</time>
      </trkpt>
      <trkpt lat="36.11874" lon="-5.34262">
        <ele>66.434035</ele>
        <time>2022-04-17T10:28:38.000Z</time>
      </trkpt>
      <trkpt lat="36.11874" lon="-5.34261">
        <ele>66.46981</ele>
        <time>2022-04-17T10:28:44.000Z</time>
      </trkpt>
      <trkpt lat="36.11874" lon="-5.34261">
        <ele>66.478753</ele>
        <time>2022-04-17T10:28:49.000Z</time>
      </trkpt>
      <trkpt lat="36.11874" lon="-5.34261">
        <ele>66.500896</ele>
        <time>2022-04-17T10:28:57.000Z</time>
      </trkpt>
      <trkpt lat="36.11874" lon="-5.34261">
        <ele>66.500896</ele>
        <time>2022-04-17T10:29:09.000Z</time>
      </trkpt>
      <trkpt lat="36.11874" lon="-5.34261">
        <ele>66.500896</ele>
        <time>2022-04-17T10:29:24.000Z</time>
      </trkpt>
      <trkpt lat="36.11874" lon="-5.34261">
        <ele>66.500896</ele>
        <time>2022-04-17T10:29:27.000Z</time>
      </trkpt>
      <trkpt lat="36.11874" lon="-5.34261">
        <ele>66.500896</ele>
        <time>2022-04-17T10:29:31.000Z</time>
      </trkpt>
      <trkpt lat="36.11874" lon="-5.34261">
        <ele>66.500896</ele>
        <time>2022-04-17T10:29:33.000Z</time>
      </trkpt>
      <trkpt lat="36.11874" lon="-5.34261">
        <ele>66.500896</ele>
        <time>2022-04-17T10:29:40.000Z</time>
      </trkpt>
      <trkpt lat="36.11879" lon="-5.34262">
        <ele>67.004225</ele>
        <time>2022-04-17T10:29:51.000Z</time>
      </trkpt>
      <trkpt lat="36.11887" lon="-5.34264">
        <ele>67.993226</ele>
        <time>2022-04-17T10:30:00.000Z</time>
      </trkpt>
      <trkpt lat="36.11889" lon="-5.34264">
        <ele>68.18668</ele>
        <time>2022-04-17T10:30:02.000Z</time>
      </trkpt>
      <trkpt lat="36.1189" lon="-5.34263">
        <ele>68.275703</ele>
        <time>2022-04-17T10:30:03.000Z</time>
      </trkpt>
      <trkpt lat="36.11897" lon="-5.34265">
        <ele>69.093564</ele>
        <time>2022-04-17T10:30:10.000Z</time>
      </trkpt>
      <trkpt lat="36.11901" lon="-5.34267">
        <ele>69.49954</ele>
        <time>2022-04-17T10:30:14.000Z</time>
      </trkpt>
      <trkpt lat="36.11901" lon="-5.34266">
        <ele>69.588563</ele>
        <time>2022-04-17T10:30:15.000Z</time>
      </trkpt>
      <trkpt lat="36.11906" lon="-5.34266">
        <ele>69.908893</ele>
        <time>2022-04-17T10:30:20.000Z</time>
      </trkpt>
      <trkpt lat="36.11908" lon="-5.34267">
        <ele>69.819347</ele>
        <time>2022-04-17T10:30:23.000Z</time>
      </trkpt>
      <trkpt lat="36.11912" lon="-5.3427">
        <ele>69.651122</ele>
        <time>2022-04-17T10:30:27.000Z</time>
      </trkpt>
      <trkpt lat="36.11914" lon="-5.34271">
        <ele>69.538034</ele>
        <time>2022-04-17T10:30:30.000Z</time>
      </trkpt>
      <trkpt lat="36.11919" lon="-5.34273">
        <ele>69.342039</ele>
        <time>2022-04-17T10:30:35.000Z</time>
      </trkpt>
      <trkpt lat="36.11921" lon="-5.34274">
        <ele>69.242689</ele>
        <time>2022-04-17T10:30:38.000Z</time>
      </trkpt>
      <trkpt lat="36.11922" lon="-5.34274">
        <ele>69.204703</ele>
        <time>2022-04-17T10:30:39.000Z</time>
      </trkpt>
      <trkpt lat="36.11925" lon="-5.34275">
        <ele>69.091557</ele>
        <time>2022-04-17T10:30:42.000Z</time>
      </trkpt>
      <trkpt lat="36.11928" lon="-5.34277">
        <ele>68.943317</ele>
        <time>2022-04-17T10:30:45.000Z</time>
      </trkpt>
      <trkpt lat="36.11929" lon="-5.34277">
        <ele>68.905331</ele>
        <time>2022-04-17T10:30:46.000Z</time>
      </trkpt>
      <trkpt lat="36.1193" lon="-5.34277">
        <ele>68.872069</ele>
        <time>2022-04-17T10:30:47.000Z</time>
      </trkpt>
      <trkpt lat="36.1193" lon="-5.34277">
        <ele>68.838807</ele>
        <time>2022-04-17T10:30:48.000Z</time>
      </trkpt>
      <trkpt lat="36.11932" lon="-5.34278">
        <ele>68.782263</ele>
        <time>2022-04-17T10:30:49.000Z</time>
      </trkpt>
      <trkpt lat="36.11937" lon="-5.34279">
        <ele>68.554656</ele>
        <time>2022-04-17T10:30:55.000Z</time>
      </trkpt>
      <trkpt lat="36.11937" lon="-5.34279">
        <ele>68.554656</ele>
        <time>2022-04-17T10:30:57.000Z</time>
      </trkpt>
      <trkpt lat="36.11937" lon="-5.34279">
        <ele>68.546505</ele>
        <time>2022-04-17T10:31:03.000Z</time>
      </trkpt>
      <trkpt lat="36.11938" lon="-5.34279">
        <ele>68.50924</ele>
        <time>2022-04-17T10:31:08.000Z</time>
      </trkpt>
      <trkpt lat="36.11939" lon="-5.34281">
        <ele>68.430654</ele>
        <time>2022-04-17T10:31:09.000Z</time>
      </trkpt>
      <trkpt lat="36.11946" lon="-5.34293">
        <ele>67.951082</ele>
        <time>2022-04-17T10:31:15.000Z</time>
      </trkpt>
      <trkpt lat="36.1195" lon="-5.343">
        <ele>67.654663</ele>
        <time>2022-04-17T10:31:20.000Z</time>
      </trkpt>
      <trkpt lat="36.1195" lon="-5.343">
        <ele>67.654663</ele>
        <time>2022-04-17T10:31:22.000Z</time>
      </trkpt>
      <trkpt lat="36.11951" lon="-5.343">
        <ele>67.613379</ele>
        <time>2022-04-17T10:31:27.000Z</time>
      </trkpt>
      <trkpt lat="36.11952" lon="-5.343">
        <ele>67.597077</ele>
        <time>2022-04-17T10:31:28.000Z</time>
      </trkpt>
      <trkpt lat="36.11952" lon="-5.34301">
        <ele>67.586393</ele>
        <time>2022-04-17T10:31:29.000Z</time>
      </trkpt>
      <trkpt lat="36.12622" lon="-5.34025">
        <ele>35.826082</ele>
        <time>2022-04-17T10:34:31.000Z</time>
      </trkpt>
      <trkpt lat="36.1264" lon="-5.3403">
        <ele>35.236731</ele>
        <time>2022-04-17T10:34:32.000Z</time>
      </trkpt>
      <trkpt lat="36.12638" lon="-5.34034">
        <ele>35.119365</ele>
        <time>2022-04-17T10:34:33.000Z</time>
      </trkpt>
      <trkpt lat="36.12645" lon="-5.34033">
        <ele>34.872547</ele>
        <time>2022-04-17T10:34:35.000Z</time>
      </trkpt>
      <trkpt lat="36.12662" lon="-5.34039">
        <ele>34.308145</ele>
        <time>2022-04-17T10:34:38.000Z</time>
      </trkpt>
      <trkpt lat="36.12673" lon="-5.34045">
        <ele>33.919609</ele>
        <time>2022-04-17T10:34:40.000Z</time>
      </trkpt>
      <trkpt lat="36.12684" lon="-5.34058">
        <ele>33.400004</ele>
        <time>2022-04-17T10:34:43.000Z</time>
      </trkpt>
      <trkpt lat="36.1269" lon="-5.34066">
        <ele>33.127051</ele>
        <time>2022-04-17T10:34:46.000Z</time>
      </trkpt>
      <trkpt lat="36.12691" lon="-5.34068">
        <ele>33.069459</ele>
        <time>2022-04-17T10:34:50.000Z</time>
      </trkpt>
      <trkpt lat="36.1269" lon="-5.34068">
        <ele>33.049699</ele>
        <time>2022-04-17T10:34:56.000Z</time>
      </trkpt>
      <trkpt lat="36.1269" lon="-5.34068">
        <ele>33.037298</ele>
        <time>2022-04-17T10:35:03.000Z</time>
      </trkpt>
      <trkpt lat="36.1269" lon="-5.34068">
        <ele>33.037298</ele>
        <time>2022-04-17T10:35:10.000Z</time>
      </trkpt>
      <trkpt lat="36.1269" lon="-5.34068">
        <ele>33.037298</ele>
        <time>2022-04-17T10:35:16.000Z</time>
      </trkpt>
      <trkpt lat="36.12693" lon="-5.34075">
        <ele>32.831791</ele>
        <time>2022-04-17T10:35:22.000Z</time>
      </trkpt>
      <trkpt lat="36.12701" lon="-5.34095">
        <ele>32.238166</ele>
        <time>2022-04-17T10:35:28.000Z</time>
      </trkpt>
      <trkpt lat="36.12711" lon="-5.3411">
        <ele>31.745953</ele>
        <time>2022-04-17T10:35:32.000Z</time>
      </trkpt>
      <trkpt lat="36.12714" lon="-5.34114">
        <ele>31.600647</ele>
        <time>2022-04-17T10:35:33.000Z</time>
      </trkpt>
      <trkpt lat="36.12718" lon="-5.34117">
        <ele>31.441221</ele>
        <time>2022-04-17T10:35:34.000Z</time>
      </trkpt>
      <trkpt lat="36.12727" lon="-5.34125">
        <ele>31.227074</ele>
        <time>2022-04-17T10:35:36.000Z</time>
      </trkpt>
      <trkpt lat="36.12742" lon="-5.34133">
        <ele>30.932618</ele>
        <time>2022-04-17T10:35:39.000Z</time>
      </trkpt>
      <trkpt lat="36.12747" lon="-5.34135">
        <ele>30.825183</ele>
        <time>2022-04-17T10:35:40.000Z</time>
      </trkpt>
      <trkpt lat="36.12768" lon="-5.34146">
        <ele>30.405109</ele>
        <time>2022-04-17T10:35:44.000Z</time>
      </trkpt>
      <trkpt lat="36.12789" lon="-5.34156">
        <ele>30.000389</ele>
        <time>2022-04-17T10:35:48.000Z</time>
      </trkpt>
      <trkpt lat="36.12794" lon="-5.34159">
        <ele>29.901989</ele>
        <time>2022-04-17T10:35:49.000Z</time>
      </trkpt>
      <trkpt lat="36.12808" lon="-5.34164">
        <ele>29.624422</ele>
        <time>2022-04-17T10:35:52.000Z</time>
      </trkpt>
      <trkpt lat="36.12818" lon="-5.34164">
        <ele>29.434409</ele>
        <time>2022-04-17T10:35:54.000Z</time>
      </trkpt>
      <trkpt lat="36.12868" lon="-5.34159">
        <ele>28.514529</ele>
        <time>2022-04-17T10:36:04.000Z</time>
      </trkpt>
      <trkpt lat="36.12873" lon="-5.34158">
        <ele>28.42903</ele>
        <time>2022-04-17T10:36:05.000Z</time>
      </trkpt>
      <trkpt lat="36.12887" lon="-5.34155">
        <ele>28.15989</ele>
        <time>2022-04-17T10:36:09.000Z</time>
      </trkpt>
      <trkpt lat="36.12901" lon="-5.34151">
        <ele>28.029634</ele>
        <time>2022-04-17T10:36:15.000Z</time>
      </trkpt>
      <trkpt lat="36.12901" lon="-5.34151">
        <ele>28.02456</ele>
        <time>2022-04-17T10:36:16.000Z</time>
      </trkpt>
      <trkpt lat="36.12902" lon="-5.34151">
        <ele>28.022341</ele>
        <time>2022-04-17T10:36:19.000Z</time>
      </trkpt>
      <trkpt lat="36.12902" lon="-5.34151">
        <ele>28.022341</ele>
        <time>2022-04-17T10:36:26.000Z</time>
      </trkpt>
      <trkpt lat="36.12902" lon="-5.34151">
        <ele>28.022341</ele>
        <time>2022-04-17T10:36:48.000Z</time>
      </trkpt>
      <trkpt lat="36.12903" lon="-5.34151">
        <ele>28.013789</ele>
        <time>2022-04-17T10:36:56.000Z</time>
      </trkpt>
      <trkpt lat="36.12905" lon="-5.34152">
        <ele>28.000176</ele>
        <time>2022-04-17T10:36:57.000Z</time>
      </trkpt>
      <trkpt lat="36.12914" lon="-5.34155">
        <ele>27.934388</ele>
        <time>2022-04-17T10:37:00.000Z</time>
      </trkpt>
      <trkpt lat="36.12921" lon="-5.34157">
        <ele>27.878932</ele>
        <time>2022-04-17T10:37:04.000Z</time>
      </trkpt>
      <trkpt lat="36.12922" lon="-5.34158">
        <ele>27.872012</ele>
        <time>2022-04-17T10:37:11.000Z</time>
      </trkpt>
      <trkpt lat="36.12922" lon="-5.34158">
        <ele>27.872012</ele>
        <time>2022-04-17T10:37:18.000Z</time>
      </trkpt>
      <trkpt lat="36.12922" lon="-5.34158">
        <ele>27.872012</ele>
        <time>2022-04-17T10:37:25.000Z</time>
      </trkpt>
      <trkpt lat="36.12922" lon="-5.34158">
        <ele>27.872012</ele>
        <time>2022-04-17T10:37:27.000Z</time>
      </trkpt>
      <trkpt lat="36.12922" lon="-5.34158">
        <ele>27.872012</ele>
        <time>2022-04-17T10:37:30.000Z</time>
      </trkpt>
      <trkpt lat="36.12922" lon="-5.34158">
        <ele>27.872012</ele>
        <time>2022-04-17T10:37:34.000Z</time>
      </trkpt>
      <trkpt lat="36.12922" lon="-5.34158">
        <ele>27.872012</ele>
        <time>2022-04-17T10:37:37.000Z</time>
      </trkpt>
      <trkpt lat="36.12922" lon="-5.34158">
        <ele>27.872012</ele>
        <time>2022-04-17T10:37:39.000Z</time>
      </trkpt>
      <trkpt lat="36.12922" lon="-5.34158">
        <ele>27.872012</ele>
        <time>2022-04-17T10:37:42.000Z</time>
      </trkpt>
      <trkpt lat="36.12922" lon="-5.34158">
        <ele>27.872012</ele>
        <time>2022-04-17T10:37:44.000Z</time>
      </trkpt>
      <trkpt lat="36.12922" lon="-5.34158">
        <ele>27.872012</ele>
        <time>2022-04-17T10:37:48.000Z</time>
      </trkpt>
      <trkpt lat="36.12926" lon="-5.34162">
        <ele>27.83644</ele>
        <time>2022-04-17T10:37:51.000Z</time>
      </trkpt>
      <trkpt lat="36.12939" lon="-5.34176">
        <ele>27.712601</ele>
        <time>2022-04-17T10:37:59.000Z</time>
      </trkpt>
      <trkpt lat="36.12945" lon="-5.34181">
        <ele>27.659707</ele>
        <time>2022-04-17T10:38:05.000Z</time>
      </trkpt>
      <trkpt lat="36.12951" lon="-5.34185">
        <ele>27.617902</ele>
        <time>2022-04-17T10:38:11.000Z</time>
      </trkpt>
      <trkpt lat="36.12952" lon="-5.34185">
        <ele>27.604373</ele>
        <time>2022-04-17T10:38:12.000Z</time>
      </trkpt>
      <trkpt lat="36.12963" lon="-5.3419">
        <ele>27.522971</ele>
        <time>2022-04-17T10:38:17.000Z</time>
      </trkpt>
      <trkpt lat="36.12978" lon="-5.34202">
        <ele>27.401955</ele>
        <time>2022-04-17T10:38:23.000Z</time>
      </trkpt>
      <trkpt lat="36.12986" lon="-5.34205">
        <ele>27.339836</ele>
        <time>2022-04-17T10:38:26.000Z</time>
      </trkpt>
      <trkpt lat="36.13001" lon="-5.34208">
        <ele>27.231532</ele>
        <time>2022-04-17T10:38:31.000Z</time>
      </trkpt>
      <trkpt lat="36.13022" lon="-5.34206">
        <ele>27.086142</ele>
        <time>2022-04-17T10:38:37.000Z</time>
      </trkpt>
      <trkpt lat="36.13028" lon="-5.34205">
        <ele>27.038805</ele>
        <time>2022-04-17T10:38:39.000Z</time>
      </trkpt>
      <trkpt lat="36.13045" lon="-5.34204">
        <ele>26.922652</ele>
        <time>2022-04-17T10:38:45.000Z</time>
      </trkpt>
      <trkpt lat="36.1305" lon="-5.34203">
        <ele>26.882688</ele>
        <time>2022-04-17T10:38:50.000Z</time>
      </trkpt>
      <trkpt lat="36.13053" lon="-5.34202">
        <ele>26.864801</ele>
        <time>2022-04-17T10:38:54.000Z</time>
      </trkpt>
      <trkpt lat="36.13056" lon="-5.34203">
        <ele>26.841319</ele>
        <time>2022-04-17T10:38:56.000Z</time>
      </trkpt>
      <trkpt lat="36.1307" lon="-5.34199">
        <ele>26.85811</ele>
        <time>2022-04-17T10:39:02.000Z</time>
      </trkpt>
      <trkpt lat="36.13085" lon="-5.34195">
        <ele>26.880736</ele>
        <time>2022-04-17T10:39:09.000Z</time>
      </trkpt>
      <trkpt lat="36.13087" lon="-5.34195">
        <ele>26.883523</ele>
        <time>2022-04-17T10:39:10.000Z</time>
      </trkpt>
      <trkpt lat="36.13089" lon="-5.34194">
        <ele>26.887881</ele>
        <time>2022-04-17T10:39:12.000Z</time>
      </trkpt>
      <trkpt lat="36.13096" lon="-5.34192">
        <ele>26.89818</ele>
        <time>2022-04-17T10:39:16.000Z</time>
      </trkpt>
      <trkpt lat="36.13099" lon="-5.34193">
        <ele>26.902205</ele>
        <time>2022-04-17T10:39:22.000Z</time>
      </trkpt>
      <trkpt lat="36.131" lon="-5.34194">
        <ele>26.904342</ele>
        <time>2022-04-17T10:39:26.000Z</time>
      </trkpt>
      <trkpt lat="36.131" lon="-5.34194">
        <ele>26.904342</ele>
        <time>2022-04-17T10:39:27.000Z</time>
      </trkpt>
      <trkpt lat="36.13106" lon="-5.34192">
        <ele>26.912988</ele>
        <time>2022-04-17T10:39:37.000Z</time>
      </trkpt>
      <trkpt lat="36.13112" lon="-5.3419">
        <ele>26.922763</ele>
        <time>2022-04-17T10:39:43.000Z</time>
      </trkpt>
      <trkpt lat="36.13114" lon="-5.3419">
        <ele>26.9249</ele>
        <time>2022-04-17T10:39:47.000Z</time>
      </trkpt>
      <trkpt lat="36.1312" lon="-5.34189">
        <ele>26.933929</ele>
        <time>2022-04-17T10:39:50.000Z</time>
      </trkpt>
      <trkpt lat="36.13137" lon="-5.34181">
        <ele>26.961155</ele>
        <time>2022-04-17T10:39:56.000Z</time>
      </trkpt>
      <trkpt lat="36.13158" lon="-5.34174">
        <ele>26.992065</ele>
        <time>2022-04-17T10:40:02.000Z</time>
      </trkpt>
      <trkpt lat="36.13168" lon="-5.3417">
        <ele>27.007972</ele>
        <time>2022-04-17T10:40:05.000Z</time>
      </trkpt>
      <trkpt lat="36.13171" lon="-5.34169">
        <ele>27.013411</ele>
        <time>2022-04-17T10:40:06.000Z</time>
      </trkpt>
      <trkpt lat="36.13205" lon="-5.34158">
        <ele>27.06436</ele>
        <time>2022-04-17T10:40:15.000Z</time>
      </trkpt>
      <trkpt lat="36.13217" lon="-5.34154">
        <ele>27.082813</ele>
        <time>2022-04-17T10:40:18.000Z</time>
      </trkpt>
      <trkpt lat="36.13233" lon="-5.34145">
        <ele>27.101704</ele>
        <time>2022-04-17T10:40:23.000Z</time>
      </trkpt>
      <trkpt lat="36.13248" lon="-5.34136">
        <ele>27.099473</ele>
        <time>2022-04-17T10:40:30.000Z</time>
      </trkpt>
      <trkpt lat="36.13272" lon="-5.3412">
        <ele>27.096043</ele>
        <time>2022-04-17T10:40:38.000Z</time>
      </trkpt>
      <trkpt lat="36.13279" lon="-5.34116">
        <ele>27.095074</ele>
        <time>2022-04-17T10:40:40.000Z</time>
      </trkpt>
      <trkpt lat="36.13292" lon="-5.34111">
        <ele>27.093289</ele>
        <time>2022-04-17T10:40:44.000Z</time>
      </trkpt>
      <trkpt lat="36.1331" lon="-5.34104">
        <ele>27.090857</ele>
        <time>2022-04-17T10:40:49.000Z</time>
      </trkpt>
      <trkpt lat="36.1332" lon="-5.34102">
        <ele>27.089559</ele>
        <time>2022-04-17T10:40:52.000Z</time>
      </trkpt>
      <trkpt lat="36.13336" lon="-5.34099">
        <ele>27.087488</ele>
        <time>2022-04-17T10:40:57.000Z</time>
      </trkpt>
      <trkpt lat="36.13351" lon="-5.341">
        <ele>27.085628</ele>
        <time>2022-04-17T10:41:02.000Z</time>
      </trkpt>
      <trkpt lat="36.13363" lon="-5.34101">
        <ele>27.084038</ele>
        <time>2022-04-17T10:41:06.000Z</time>
      </trkpt>
      <trkpt lat="36.13386" lon="-5.34107">
        <ele>27.081054</ele>
        <time>2022-04-17T10:41:12.000Z</time>
      </trkpt>
      <trkpt lat="36.13412" lon="-5.34103">
        <ele>27.087103</ele>
        <time>2022-04-17T10:41:18.000Z</time>
      </trkpt>
      <trkpt lat="36.13461" lon="-5.34093">
        <ele>27.121045</ele>
        <time>2022-04-17T10:41:29.000Z</time>
      </trkpt>
      <trkpt lat="36.13502" lon="-5.34091">
        <ele>27.149076</ele>
        <time>2022-04-17T10:41:38.000Z</time>
      </trkpt>
      <trkpt lat="36.13543" lon="-5.34089">
        <ele>27.177448</ele>
        <time>2022-04-17T10:41:47.000Z</time>
      </trkpt>
      <trkpt lat="36.13572" lon="-5.34086">
        <ele>27.19733</ele>
        <time>2022-04-17T10:41:53.000Z</time>
      </trkpt>
      <trkpt lat="36.13585" lon="-5.34086">
        <ele>27.20589</ele>
        <time>2022-04-17T10:41:56.000Z</time>
      </trkpt>
      <trkpt lat="36.1359" lon="-5.34086">
        <ele>27.208481</ele>
        <time>2022-04-17T10:41:57.000Z</time>
      </trkpt>
      <trkpt lat="36.13631" lon="-5.34096">
        <ele>27.232237</ele>
        <time>2022-04-17T10:42:06.000Z</time>
      </trkpt>
      <trkpt lat="36.13648" lon="-5.34098">
        <ele>27.241779</ele>
        <time>2022-04-17T10:42:10.000Z</time>
      </trkpt>
      <trkpt lat="36.13662" lon="-5.34096">
        <ele>27.249304</ele>
        <time>2022-04-17T10:42:13.000Z</time>
      </trkpt>
      <trkpt lat="36.13698" lon="-5.34094">
        <ele>27.269687</ele>
        <time>2022-04-17T10:42:21.000Z</time>
      </trkpt>
      <trkpt lat="36.13729" lon="-5.34101">
        <ele>27.287286</ele>
        <time>2022-04-17T10:42:28.000Z</time>
      </trkpt>
      <trkpt lat="36.13733" lon="-5.34103">
        <ele>27.289801</ele>
        <time>2022-04-17T10:42:29.000Z</time>
      </trkpt>
      <trkpt lat="36.1374" lon="-5.34107">
        <ele>27.294329</ele>
        <time>2022-04-17T10:42:31.000Z</time>
      </trkpt>
      <trkpt lat="36.1375" lon="-5.34115">
        <ele>27.301339</ele>
        <time>2022-04-17T10:42:34.000Z</time>
      </trkpt>
      <trkpt lat="36.13757" lon="-5.34122">
        <ele>27.303955</ele>
        <time>2022-04-17T10:42:36.000Z</time>
      </trkpt>
      <trkpt lat="36.1376" lon="-5.34125">
        <ele>27.304068</ele>
        <time>2022-04-17T10:42:37.000Z</time>
      </trkpt>
      <trkpt lat="36.1378" lon="-5.34144">
        <ele>27.304812</ele>
        <time>2022-04-17T10:42:43.000Z</time>
      </trkpt>
      <trkpt lat="36.13792" lon="-5.34154">
        <ele>27.305204</ele>
        <time>2022-04-17T10:42:46.000Z</time>
      </trkpt>
      <trkpt lat="36.13798" lon="-5.34159">
        <ele>27.305423</ele>
        <time>2022-04-17T10:42:48.000Z</time>
      </trkpt>
      <trkpt lat="36.1381" lon="-5.34169">
        <ele>27.30584</ele>
        <time>2022-04-17T10:42:51.000Z</time>
      </trkpt>
      <trkpt lat="36.13828" lon="-5.34183">
        <ele>27.306456</ele>
        <time>2022-04-17T10:42:56.000Z</time>
      </trkpt>
      <trkpt lat="36.13832" lon="-5.34186">
        <ele>27.306585</ele>
        <time>2022-04-17T10:42:57.000Z</time>
      </trkpt>
      <trkpt lat="36.1384" lon="-5.34192">
        <ele>27.306852</ele>
        <time>2022-04-17T10:42:59.000Z</time>
      </trkpt>
      <trkpt lat="36.13851" lon="-5.342">
        <ele>27.307225</ele>
        <time>2022-04-17T10:43:02.000Z</time>
      </trkpt>
      <trkpt lat="36.13859" lon="-5.34204">
        <ele>27.307475</ele>
        <time>2022-04-17T10:43:04.000Z</time>
      </trkpt>
      <trkpt lat="36.13868" lon="-5.34204">
        <ele>27.30774</ele>
        <time>2022-04-17T10:43:06.000Z</time>
      </trkpt>
      <trkpt lat="36.13882" lon="-5.34202">
        <ele>27.308138</ele>
        <time>2022-04-17T10:43:09.000Z</time>
      </trkpt>
      <trkpt lat="36.13886" lon="-5.34201">
        <ele>27.308264</ele>
        <time>2022-04-17T10:43:10.000Z</time>
      </trkpt>
      <trkpt lat="36.13899" lon="-5.34196">
        <ele>27.30865</ele>
        <time>2022-04-17T10:43:13.000Z</time>
      </trkpt>
      <trkpt lat="36.13912" lon="-5.34192">
        <ele>27.308129</ele>
        <time>2022-04-17T10:43:16.000Z</time>
      </trkpt>
      <trkpt lat="36.1392" lon="-5.34188">
        <ele>27.248911</ele>
        <time>2022-04-17T10:43:18.000Z</time>
      </trkpt>
      <trkpt lat="36.13927" lon="-5.34185">
        <ele>27.193599</ele>
        <time>2022-04-17T10:43:20.000Z</time>
      </trkpt>
      <trkpt lat="36.13937" lon="-5.3418">
        <ele>27.116783</ele>
        <time>2022-04-17T10:43:23.000Z</time>
      </trkpt>
      <trkpt lat="36.13964" lon="-5.34161">
        <ele>26.89914</ele>
        <time>2022-04-17T10:43:31.000Z</time>
      </trkpt>
      <trkpt lat="36.1399" lon="-5.34143">
        <ele>26.688934</ele>
        <time>2022-04-17T10:43:38.000Z</time>
      </trkpt>
      <trkpt lat="36.14003" lon="-5.34137">
        <ele>26.591591</ele>
        <time>2022-04-17T10:43:41.000Z</time>
      </trkpt>
      <trkpt lat="36.14018" lon="-5.34127">
        <ele>26.471461</ele>
        <time>2022-04-17T10:43:45.000Z</time>
      </trkpt>
      <trkpt lat="36.14056" lon="-5.34101">
        <ele>26.164047</ele>
        <time>2022-04-17T10:43:55.000Z</time>
      </trkpt>
      <trkpt lat="36.14062" lon="-5.34095">
        <ele>26.111016</ele>
        <time>2022-04-17T10:43:57.000Z</time>
      </trkpt>
      <trkpt lat="36.14085" lon="-5.34081">
        <ele>25.216257</ele>
        <time>2022-04-17T10:44:03.000Z</time>
      </trkpt>
      <trkpt lat="36.14091" lon="-5.34075">
        <ele>24.792866</ele>
        <time>2022-04-17T10:44:05.000Z</time>
      </trkpt>
      <trkpt lat="36.14103" lon="-5.34059">
        <ele>23.894275</ele>
        <time>2022-04-17T10:44:09.000Z</time>
      </trkpt>
      <trkpt lat="36.1411" lon="-5.34052">
        <ele>23.417085</ele>
        <time>2022-04-17T10:44:11.000Z</time>
      </trkpt>
      <trkpt lat="36.14112" lon="-5.34049">
        <ele>23.275743</ele>
        <time>2022-04-17T10:44:12.000Z</time>
      </trkpt>
      <trkpt lat="36.14114" lon="-5.34045">
        <ele>23.089071</ele>
        <time>2022-04-17T10:44:14.000Z</time>
      </trkpt>
      <trkpt lat="36.14114" lon="-5.34046">
        <ele>23.079234</ele>
        <time>2022-04-17T10:44:16.000Z</time>
      </trkpt>
      <trkpt lat="36.14113" lon="-5.34046">
        <ele>23.059266</ele>
        <time>2022-04-17T10:44:17.000Z</time>
      </trkpt>
      <trkpt lat="36.1411" lon="-5.34045">
        <ele>22.884867</ele>
        <time>2022-04-17T10:44:21.000Z</time>
      </trkpt>
      <trkpt lat="36.14108" lon="-5.34045">
        <ele>22.782214</ele>
        <time>2022-04-17T10:44:22.000Z</time>
      </trkpt>
      <trkpt lat="36.14095" lon="-5.3405">
        <ele>22.039937</ele>
        <time>2022-04-17T10:44:27.000Z</time>
      </trkpt>
      <trkpt lat="36.14084" lon="-5.34053">
        <ele>21.476071</ele>
        <time>2022-04-17T10:44:32.000Z</time>
      </trkpt>
      <trkpt lat="36.14083" lon="-5.34053">
        <ele>21.421652</ele>
        <time>2022-04-17T10:44:33.000Z</time>
      </trkpt>
      <trkpt lat="36.14083" lon="-5.34053">
        <ele>21.40834</ele>
        <time>2022-04-17T10:44:36.000Z</time>
      </trkpt>
      <trkpt lat="36.14083" lon="-5.34053">
        <ele>21.40834</ele>
        <time>2022-04-17T10:44:48.000Z</time>
      </trkpt>
      <trkpt lat="36.14083" lon="-5.34053">
        <ele>21.40834</ele>
        <time>2022-04-17T10:44:58.000Z</time>
      </trkpt>
      <trkpt lat="36.14072" lon="-5.34054">
        <ele>20.872984</ele>
        <time>2022-04-17T10:45:09.000Z</time>
      </trkpt>
      <trkpt lat="36.1406" lon="-5.34057">
        <ele>20.20267</ele>
        <time>2022-04-17T10:45:12.000Z</time>
      </trkpt>
      <trkpt lat="36.14055" lon="-5.3406">
        <ele>19.950207</ele>
        <time>2022-04-17T10:45:13.000Z</time>
      </trkpt>
      <trkpt lat="36.14051" lon="-5.34062">
        <ele>19.703879</ele>
        <time>2022-04-17T10:45:14.000Z</time>
      </trkpt>
      <trkpt lat="36.14046" lon="-5.34064">
        <ele>19.425562</ele>
        <time>2022-04-17T10:45:15.000Z</time>
      </trkpt>
      <trkpt lat="36.14038" lon="-5.34069">
        <ele>18.97264</ele>
        <time>2022-04-17T10:45:17.000Z</time>
      </trkpt>
      <trkpt lat="36.14032" lon="-5.34071">
        <ele>18.654616</ele>
        <time>2022-04-17T10:45:18.000Z</time>
      </trkpt>
      <trkpt lat="36.14027" lon="-5.34073">
        <ele>18.383256</ele>
        <time>2022-04-17T10:45:19.000Z</time>
      </trkpt>
      <trkpt lat="36.1402" lon="-5.34077">
        <ele>17.972466</ele>
        <time>2022-04-17T10:45:21.000Z</time>
      </trkpt>
      <trkpt lat="36.14015" lon="-5.34077">
        <ele>17.759781</ele>
        <time>2022-04-17T10:45:22.000Z</time>
      </trkpt>
      <trkpt lat="36.14006" lon="-5.34079">
        <ele>17.27098</ele>
        <time>2022-04-17T10:45:24.000Z</time>
      </trkpt>
      <trkpt lat="36.14002" lon="-5.3408">
        <ele>17.024653</ele>
        <time>2022-04-17T10:45:25.000Z</time>
      </trkpt>
      <trkpt lat="36.13991" lon="-5.34086">
        <ele>16.614128</ele>
        <time>2022-04-17T10:45:28.000Z</time>
      </trkpt>
      <trkpt lat="36.13988" lon="-5.34088">
        <ele>16.546615</ele>
        <time>2022-04-17T10:45:29.000Z</time>
      </trkpt>
      <trkpt lat="36.13981" lon="-5.34093">
        <ele>16.382127</ele>
        <time>2022-04-17T10:45:31.000Z</time>
      </trkpt>
      <trkpt lat="36.13962" lon="-5.34102">
        <ele>15.969185</ele>
        <time>2022-04-17T10:45:35.000Z</time>
      </trkpt>
      <trkpt lat="36.13955" lon="-5.34104">
        <ele>15.822926</ele>
        <time>2022-04-17T10:45:37.000Z</time>
      </trkpt>
      <trkpt lat="36.1395" lon="-5.34104">
        <ele>15.715391</ele>
        <time>2022-04-17T10:45:38.000Z</time>
      </trkpt>
      <trkpt lat="36.13945" lon="-5.34107">
        <ele>15.619293</ele>
        <time>2022-04-17T10:45:39.000Z</time>
      </trkpt>
      <trkpt lat="36.13938" lon="-5.34109">
        <ele>15.45691</ele>
        <time>2022-04-17T10:45:41.000Z</time>
      </trkpt>
      <trkpt lat="36.13905" lon="-5.34113">
        <ele>14.791118</ele>
        <time>2022-04-17T10:45:49.000Z</time>
      </trkpt>
      <trkpt lat="36.13888" lon="-5.3412">
        <ele>14.439958</ele>
        <time>2022-04-17T10:45:54.000Z</time>
      </trkpt>
      <trkpt lat="36.13877" lon="-5.34114">
        <ele>14.183844</ele>
        <time>2022-04-17T10:45:57.000Z</time>
      </trkpt>
      <trkpt lat="36.13866" lon="-5.34121">
        <ele>13.933376</ele>
        <time>2022-04-17T10:46:01.000Z</time>
      </trkpt>
      <trkpt lat="36.13861" lon="-5.34124">
        <ele>13.833188</ele>
        <time>2022-04-17T10:46:04.000Z</time>
      </trkpt>
      <trkpt lat="36.13861" lon="-5.34124">
        <ele>13.823062</ele>
        <time>2022-04-17T10:46:05.000Z</time>
      </trkpt>
      <trkpt lat="36.1386" lon="-5.34123">
        <ele>13.808636</ele>
        <time>2022-04-17T10:46:11.000Z</time>
      </trkpt>
      <trkpt lat="36.1386" lon="-5.34123">
        <ele>13.808636</ele>
        <time>2022-04-17T10:46:19.000Z</time>
      </trkpt>
      <trkpt lat="36.1386" lon="-5.34123">
        <ele>13.807001</ele>
        <time>2022-04-17T10:46:26.000Z</time>
      </trkpt>
      <trkpt lat="36.1386" lon="-5.34123">
        <ele>13.807001</ele>
        <time>2022-04-17T10:46:27.000Z</time>
      </trkpt>
      <trkpt lat="36.13858" lon="-5.34123">
        <ele>13.763354</ele>
        <time>2022-04-17T10:46:46.000Z</time>
      </trkpt>
      <trkpt lat="36.13858" lon="-5.34123">
        <ele>13.749084</ele>
        <time>2022-04-17T10:46:49.000Z</time>
      </trkpt>
      <trkpt lat="36.13858" lon="-5.34123">
        <ele>13.747448</ele>
        <time>2022-04-17T10:46:59.000Z</time>
      </trkpt>
      <trkpt lat="36.1386" lon="-5.34122">
        <ele>13.690374</ele>
        <time>2022-04-17T10:47:02.000Z</time>
      </trkpt>
      <trkpt lat="36.13861" lon="-5.34122">
        <ele>13.672147</ele>
        <time>2022-04-17T10:47:03.000Z</time>
      </trkpt>
      <trkpt lat="36.13862" lon="-5.34122">
        <ele>13.659564</ele>
        <time>2022-04-17T10:47:07.000Z</time>
      </trkpt>
      <trkpt lat="36.13862" lon="-5.34122">
        <ele>13.659564</ele>
        <time>2022-04-17T10:47:08.000Z</time>
      </trkpt>
      <trkpt lat="36.13861" lon="-5.34123">
        <ele>13.649376</ele>
        <time>2022-04-17T10:47:36.000Z</time>
      </trkpt>
      <trkpt lat="36.13861" lon="-5.34124">
        <ele>13.628114</ele>
        <time>2022-04-17T10:47:42.000Z</time>
      </trkpt>
      <trkpt lat="36.13861" lon="-5.34124">
        <ele>13.618643</ele>
        <time>2022-04-17T10:48:03.000Z</time>
      </trkpt>
      <trkpt lat="36.13861" lon="-5.34125">
        <ele>13.600652</ele>
        <time>2022-04-17T10:48:08.000Z</time>
      </trkpt>
      <trkpt lat="36.13861" lon="-5.34126">
        <ele>13.595446</ele>
        <time>2022-04-17T10:48:13.000Z</time>
      </trkpt>
      <trkpt lat="36.13861" lon="-5.34126">
        <ele>13.591078</ele>
        <time>2022-04-17T10:48:22.000Z</time>
      </trkpt>
      <trkpt lat="36.13861" lon="-5.34126">
        <ele>13.591078</ele>
        <time>2022-04-17T10:48:24.000Z</time>
      </trkpt>
      <trkpt lat="36.13861" lon="-5.34126">
        <ele>13.591078</ele>
        <time>2022-04-17T10:48:27.000Z</time>
      </trkpt>
      <trkpt lat="36.13861" lon="-5.34126">
        <ele>13.591078</ele>
        <time>2022-04-17T10:48:30.000Z</time>
      </trkpt>
      <trkpt lat="36.13861" lon="-5.34126">
        <ele>13.591078</ele>
        <time>2022-04-17T10:48:39.000Z</time>
      </trkpt>
      <trkpt lat="36.13861" lon="-5.34126">
        <ele>13.591078</ele>
        <time>2022-04-17T10:48:44.000Z</time>
      </trkpt>
      <trkpt lat="36.13862" lon="-5.34126">
        <ele>13.576652</ele>
        <time>2022-04-17T10:49:04.000Z</time>
      </trkpt>
      <trkpt lat="36.13862" lon="-5.34126">
        <ele>13.576652</ele>
        <time>2022-04-17T10:49:11.000Z</time>
      </trkpt>
      <trkpt lat="36.13862" lon="-5.34126">
        <ele>13.576652</ele>
        <time>2022-04-17T10:49:26.000Z</time>
      </trkpt>
      <trkpt lat="36.13862" lon="-5.34126">
        <ele>13.567526</ele>
        <time>2022-04-17T10:49:38.000Z</time>
      </trkpt>
      <trkpt lat="36.13862" lon="-5.34127">
        <ele>13.555984</ele>
        <time>2022-04-17T10:49:48.000Z</time>
      </trkpt>
      <trkpt lat="36.13862" lon="-5.34127">
        <ele>13.555984</ele>
        <time>2022-04-17T10:49:55.000Z</time>
      </trkpt>
      <trkpt lat="36.13862" lon="-5.34127">
        <ele>13.555984</ele>
        <time>2022-04-17T10:49:58.000Z</time>
      </trkpt>
      <trkpt lat="36.13862" lon="-5.34126">
        <ele>13.54829</ele>
        <time>2022-04-17T10:50:06.000Z</time>
      </trkpt>
      <trkpt lat="36.13862" lon="-5.34126">
        <ele>13.541748</ele>
        <time>2022-04-17T10:50:11.000Z</time>
      </trkpt>
      <trkpt lat="36.13862" lon="-5.34126">
        <ele>13.541748</ele>
        <time>2022-04-17T10:50:16.000Z</time>
      </trkpt>
      <trkpt lat="36.13862" lon="-5.34122">
        <ele>13.476815</ele>
        <time>2022-04-17T10:50:33.000Z</time>
      </trkpt>
      <trkpt lat="36.13862" lon="-5.3412">
        <ele>13.453917</ele>
        <time>2022-04-17T10:50:45.000Z</time>
      </trkpt>
      <trkpt lat="36.13862" lon="-5.3412">
        <ele>13.453917</ele>
        <time>2022-04-17T10:50:48.000Z</time>
      </trkpt>
      <trkpt lat="36.13861" lon="-5.34121">
        <ele>13.435042</ele>
        <time>2022-04-17T10:51:00.000Z</time>
      </trkpt>
      <trkpt lat="36.13861" lon="-5.34121">
        <ele>13.422781</ele>
        <time>2022-04-17T10:51:16.000Z</time>
      </trkpt>
      <trkpt lat="36.13861" lon="-5.34121">
        <ele>13.422781</ele>
        <time>2022-04-17T10:51:18.000Z</time>
      </trkpt>
      <trkpt lat="36.13861" lon="-5.34121">
        <ele>13.422781</ele>
        <time>2022-04-17T10:51:22.000Z</time>
      </trkpt>
      <trkpt lat="36.13861" lon="-5.34121">
        <ele>13.422781</ele>
        <time>2022-04-17T10:51:24.000Z</time>
      </trkpt>
      <trkpt lat="36.1386" lon="-5.34122">
        <ele>13.408355</ele>
        <time>2022-04-17T10:51:33.000Z</time>
      </trkpt>
      <trkpt lat="36.1386" lon="-5.34122">
        <ele>13.408355</ele>
        <time>2022-04-17T10:51:34.000Z</time>
      </trkpt>
      <trkpt lat="36.1386" lon="-5.34122">
        <ele>13.408355</ele>
        <time>2022-04-17T10:51:38.000Z</time>
      </trkpt>
      <trkpt lat="36.1386" lon="-5.34123">
        <ele>13.381624</ele>
        <time>2022-04-17T10:51:48.000Z</time>
      </trkpt>
      <trkpt lat="36.13859" lon="-5.34126">
        <ele>13.32913</ele>
        <time>2022-04-17T10:51:52.000Z</time>
      </trkpt>
      <trkpt lat="36.13859" lon="-5.34126">
        <ele>13.325859</ele>
        <time>2022-04-17T10:51:59.000Z</time>
      </trkpt>
      <trkpt lat="36.13859" lon="-5.34127">
        <ele>13.315218</ele>
        <time>2022-04-17T10:52:05.000Z</time>
      </trkpt>
      <trkpt lat="36.13859" lon="-5.34127">
        <ele>13.313193</ele>
        <time>2022-04-17T10:52:11.000Z</time>
      </trkpt>
      <trkpt lat="36.13855" lon="-5.34127">
        <ele>13.242235</ele>
        <time>2022-04-17T10:52:21.000Z</time>
      </trkpt>
      <trkpt lat="36.13855" lon="-5.34127">
        <ele>13.24021</ele>
        <time>2022-04-17T10:52:26.000Z</time>
      </trkpt>
      <trkpt lat="36.13855" lon="-5.34127">
        <ele>13.229569</ele>
        <time>2022-04-17T10:52:28.000Z</time>
      </trkpt>
      <trkpt lat="36.13855" lon="-5.34127">
        <ele>13.229569</ele>
        <time>2022-04-17T10:52:32.000Z</time>
      </trkpt>
      <trkpt lat="36.13855" lon="-5.34127">
        <ele>13.229569</ele>
        <time>2022-04-17T10:52:33.000Z</time>
      </trkpt>
      <trkpt lat="36.13855" lon="-5.34127">
        <ele>13.229569</ele>
        <time>2022-04-17T10:52:35.000Z</time>
      </trkpt>
      <trkpt lat="36.13854" lon="-5.34126">
        <ele>13.217513</ele>
        <time>2022-04-17T10:52:40.000Z</time>
      </trkpt>
      <trkpt lat="36.13854" lon="-5.34126">
        <ele>13.215488</ele>
        <time>2022-04-17T10:52:45.000Z</time>
      </trkpt>
      <trkpt lat="36.13854" lon="-5.34126">
        <ele>13.211641</ele>
        <time>2022-04-17T10:52:49.000Z</time>
      </trkpt>
      <trkpt lat="36.13854" lon="-5.34126">
        <ele>13.210005</ele>
        <time>2022-04-17T10:52:51.000Z</time>
      </trkpt>
      <trkpt lat="36.13854" lon="-5.34127">
        <ele>13.207402</ele>
        <time>2022-04-17T10:52:54.000Z</time>
      </trkpt>
      <trkpt lat="36.13855" lon="-5.34127">
        <ele>13.196761</ele>
        <time>2022-04-17T10:53:01.000Z</time>
      </trkpt>
      <trkpt lat="36.13854" lon="-5.34126">
        <ele>13.177819</ele>
        <time>2022-04-17T10:53:05.000Z</time>
      </trkpt>
      <trkpt lat="36.13854" lon="-5.34126">
        <ele>13.173972</ele>
        <time>2022-04-17T10:53:10.000Z</time>
      </trkpt>
      <trkpt lat="36.13853" lon="-5.34126">
        <ele>13.157688</ele>
        <time>2022-04-17T10:53:14.000Z</time>
      </trkpt>
      <trkpt lat="36.13851" lon="-5.34127">
        <ele>13.117734</ele>
        <time>2022-04-17T10:53:18.000Z</time>
      </trkpt>
      <trkpt lat="36.13853" lon="-5.34127">
        <ele>13.088959</ele>
        <time>2022-04-17T10:53:24.000Z</time>
      </trkpt>
      <trkpt lat="36.13855" lon="-5.34128">
        <ele>13.082207</ele>
        <time>2022-04-17T10:53:29.000Z</time>
      </trkpt>
      <trkpt lat="36.13857" lon="-5.34129">
        <ele>13.079378</ele>
        <time>2022-04-17T10:53:34.000Z</time>
      </trkpt>
      <trkpt lat="36.13857" lon="-5.3413">
        <ele>13.078042</ele>
        <time>2022-04-17T10:53:41.000Z</time>
      </trkpt>
      <trkpt lat="36.13858" lon="-5.3413">
        <ele>13.077201</ele>
        <time>2022-04-17T10:53:44.000Z</time>
      </trkpt>
      <trkpt lat="36.13859" lon="-5.34131">
        <ele>13.07531</ele>
        <time>2022-04-17T10:53:48.000Z</time>
      </trkpt>
      <trkpt lat="36.13859" lon="-5.3413">
        <ele>13.073848</ele>
        <time>2022-04-17T10:53:52.000Z</time>
      </trkpt>
      <trkpt lat="36.13859" lon="-5.34129">
        <ele>13.072867</ele>
        <time>2022-04-17T10:54:04.000Z</time>
      </trkpt>
      <trkpt lat="36.13859" lon="-5.34127">
        <ele>13.070359</ele>
        <time>2022-04-17T10:54:16.000Z</time>
      </trkpt>
      <trkpt lat="36.13859" lon="-5.34127">
        <ele>13.070359</ele>
        <time>2022-04-17T10:54:23.000Z</time>
      </trkpt>
      <trkpt lat="36.1386" lon="-5.34129">
        <ele>13.067068</ele>
        <time>2022-04-17T10:54:43.000Z</time>
      </trkpt>
      <trkpt lat="36.1386" lon="-5.34129">
        <ele>13.067068</ele>
        <time>2022-04-17T10:54:45.000Z</time>
      </trkpt>
      <trkpt lat="36.1386" lon="-5.34129">
        <ele>13.066905</ele>
        <time>2022-04-17T10:55:25.000Z</time>
      </trkpt>
      <trkpt lat="36.1386" lon="-5.34129">
        <ele>13.066391</ele>
        <time>2022-04-17T10:55:47.000Z</time>
      </trkpt>
      <trkpt lat="36.1386" lon="-5.34129">
        <ele>13.066391</ele>
        <time>2022-04-17T10:55:57.000Z</time>
      </trkpt>
      <trkpt lat="36.1386" lon="-5.34129">
        <ele>13.066391</ele>
        <time>2022-04-17T10:56:03.000Z</time>
      </trkpt>
      <trkpt lat="36.1386" lon="-5.34129">
        <ele>13.066391</ele>
        <time>2022-04-17T10:56:06.000Z</time>
      </trkpt>
      <trkpt lat="36.13859" lon="-5.34128">
        <ele>13.064233</ele>
        <time>2022-04-17T10:56:42.000Z</time>
      </trkpt>
      <trkpt lat="36.13859" lon="-5.34129">
        <ele>13.063424</ele>
        <time>2022-04-17T10:57:06.000Z</time>
      </trkpt>
      <trkpt lat="36.13859" lon="-5.34129">
        <ele>13.063261</ele>
        <time>2022-04-17T10:57:08.000Z</time>
      </trkpt>
      <trkpt lat="36.13859" lon="-5.34129">
        <ele>13.063261</ele>
        <time>2022-04-17T10:57:16.000Z</time>
      </trkpt>
      <trkpt lat="36.13859" lon="-5.34129">
        <ele>13.063261</ele>
        <time>2022-04-17T10:57:19.000Z</time>
      </trkpt>
      <trkpt lat="36.13859" lon="-5.34129">
        <ele>13.063261</ele>
        <time>2022-04-17T10:57:23.000Z</time>
      </trkpt>
      <trkpt lat="36.13859" lon="-5.34129">
        <ele>13.063261</ele>
        <time>2022-04-17T10:58:10.000Z</time>
      </trkpt>
      <trkpt lat="36.13859" lon="-5.34129">
        <ele>13.06295</ele>
        <time>2022-04-17T10:58:18.000Z</time>
      </trkpt>
      <trkpt lat="36.13859" lon="-5.34129">
        <ele>13.06295</ele>
        <time>2022-04-17T10:58:20.000Z</time>
      </trkpt>
      <trkpt lat="36.13859" lon="-5.34128">
        <ele>13.062127</ele>
        <time>2022-04-17T10:58:27.000Z</time>
      </trkpt>
      <trkpt lat="36.13859" lon="-5.34127">
        <ele>13.061189</ele>
        <time>2022-04-17T10:58:31.000Z</time>
      </trkpt>
      <trkpt lat="36.13859" lon="-5.34126">
        <ele>13.059181</ele>
        <time>2022-04-17T10:58:36.000Z</time>
      </trkpt>
      <trkpt lat="36.13859" lon="-5.34126">
        <ele>13.059181</ele>
        <time>2022-04-17T10:58:45.000Z</time>
      </trkpt>
      <trkpt lat="36.13859" lon="-5.34126">
        <ele>13.058971</ele>
        <time>2022-04-17T10:58:50.000Z</time>
      </trkpt>
      <trkpt lat="36.13859" lon="-5.34126">
        <ele>13.058971</ele>
        <time>2022-04-17T10:58:52.000Z</time>
      </trkpt>
      <trkpt lat="36.13859" lon="-5.34127">
        <ele>13.057806</ele>
        <time>2022-04-17T10:59:08.000Z</time>
      </trkpt>
      <trkpt lat="36.13859" lon="-5.34127">
        <ele>13.057806</ele>
        <time>2022-04-17T10:59:11.000Z</time>
      </trkpt>
      <trkpt lat="36.13859" lon="-5.34127">
        <ele>13.057806</ele>
        <time>2022-04-17T10:59:14.000Z</time>
      </trkpt>
      <trkpt lat="36.13859" lon="-5.34127">
        <ele>13.057806</ele>
        <time>2022-04-17T10:59:17.000Z</time>
      </trkpt>
      <trkpt lat="36.1386" lon="-5.34127">
        <ele>13.056329</ele>
        <time>2022-04-17T10:59:20.000Z</time>
      </trkpt>
      <trkpt lat="36.1386" lon="-5.34127">
        <ele>13.056329</ele>
        <time>2022-04-17T10:59:28.000Z</time>
      </trkpt>
      <trkpt lat="36.1386" lon="-5.34127">
        <ele>13.056329</ele>
        <time>2022-04-17T11:00:04.000Z</time>
      </trkpt>
      <trkpt lat="36.1386" lon="-5.34127">
        <ele>13.056329</ele>
        <time>2022-04-17T11:00:07.000Z</time>
      </trkpt>
      <trkpt lat="36.1386" lon="-5.34128">
        <ele>13.05492</ele>
        <time>2022-04-17T11:00:14.000Z</time>
      </trkpt>
      <trkpt lat="36.1386" lon="-5.34129">
        <ele>13.053982</ele>
        <time>2022-04-17T11:00:18.000Z</time>
      </trkpt>
      <trkpt lat="36.1386" lon="-5.34129">
        <ele>13.053717</ele>
        <time>2022-04-17T11:00:28.000Z</time>
      </trkpt>
      <trkpt lat="36.1386" lon="-5.34129">
        <ele>13.053717</ele>
        <time>2022-04-17T11:00:32.000Z</time>
      </trkpt>
      <trkpt lat="36.1386" lon="-5.34129">
        <ele>13.053717</ele>
        <time>2022-04-17T11:00:39.000Z</time>
      </trkpt>
      <trkpt lat="36.1386" lon="-5.34129">
        <ele>13.053717</ele>
        <time>2022-04-17T11:00:42.000Z</time>
      </trkpt>
      <trkpt lat="36.1386" lon="-5.34129">
        <ele>13.053717</ele>
        <time>2022-04-17T11:00:59.000Z</time>
      </trkpt>
      <trkpt lat="36.1386" lon="-5.34129">
        <ele>13.053717</ele>
        <time>2022-04-17T11:01:01.000Z</time>
      </trkpt>
      <trkpt lat="36.1386" lon="-5.34129">
        <ele>13.053717</ele>
        <time>2022-04-17T11:01:03.000Z</time>
      </trkpt>
      <trkpt lat="36.1386" lon="-5.34129">
        <ele>13.053717</ele>
        <time>2022-04-17T11:01:11.000Z</time>
      </trkpt>
      <trkpt lat="36.1386" lon="-5.34129">
        <ele>13.053717</ele>
        <time>2022-04-17T11:01:13.000Z</time>
      </trkpt>
      <trkpt lat="36.1386" lon="-5.34129">
        <ele>13.053717</ele>
        <time>2022-04-17T11:01:15.000Z</time>
      </trkpt>
      <trkpt lat="36.1386" lon="-5.34129">
        <ele>13.053717</ele>
        <time>2022-04-17T11:01:19.000Z</time>
      </trkpt>
      <trkpt lat="36.1386" lon="-5.34129">
        <ele>13.053717</ele>
        <time>2022-04-17T11:01:21.000Z</time>
      </trkpt>
      <trkpt lat="36.1386" lon="-5.34129">
        <ele>13.053717</ele>
        <time>2022-04-17T11:01:22.000Z</time>
      </trkpt>
      <trkpt lat="36.1386" lon="-5.34129">
        <ele>13.053717</ele>
        <time>2022-04-17T11:01:23.000Z</time>
      </trkpt>
      <trkpt lat="36.1386" lon="-5.34129">
        <ele>13.053717</ele>
        <time>2022-04-17T11:01:32.000Z</time>
      </trkpt>
      <trkpt lat="36.1386" lon="-5.34129">
        <ele>13.053717</ele>
        <time>2022-04-17T11:01:49.000Z</time>
      </trkpt>
      <trkpt lat="36.1386" lon="-5.34129">
        <ele>13.053717</ele>
        <time>2022-04-17T11:01:57.000Z</time>
      </trkpt>
      <trkpt lat="36.1386" lon="-5.34129">
        <ele>13.053453</ele>
        <time>2022-04-17T11:02:03.000Z</time>
      </trkpt>
      <trkpt lat="36.13861" lon="-5.34127">
        <ele>13.051243</ele>
        <time>2022-04-17T11:02:23.000Z</time>
      </trkpt>
      <trkpt lat="36.13861" lon="-5.34127">
        <ele>13.051243</ele>
        <time>2022-04-17T11:02:33.000Z</time>
      </trkpt>
      <trkpt lat="36.13861" lon="-5.34127">
        <ele>13.051243</ele>
        <time>2022-04-17T11:03:12.000Z</time>
      </trkpt>
      <trkpt lat="36.13861" lon="-5.34127">
        <ele>13.051033</ele>
        <time>2022-04-17T11:03:19.000Z</time>
      </trkpt>
      <trkpt lat="36.13861" lon="-5.34127">
        <ele>13.051033</ele>
        <time>2022-04-17T11:03:28.000Z</time>
      </trkpt>
      <trkpt lat="36.13861" lon="-5.34127">
        <ele>13.051033</ele>
        <time>2022-04-17T11:03:31.000Z</time>
      </trkpt>
      <trkpt lat="36.13861" lon="-5.34126">
        <ele>13.050094</ele>
        <time>2022-04-17T11:03:33.000Z</time>
      </trkpt>
      <trkpt lat="36.13861" lon="-5.34126">
        <ele>13.050094</ele>
        <time>2022-04-17T11:03:36.000Z</time>
      </trkpt>
      <trkpt lat="36.13861" lon="-5.34127">
        <ele>13.048988</ele>
        <time>2022-04-17T11:04:11.000Z</time>
      </trkpt>
      <trkpt lat="36.13861" lon="-5.34127">
        <ele>13.048856</ele>
        <time>2022-04-17T11:04:13.000Z</time>
      </trkpt>
      <trkpt lat="36.13861" lon="-5.34127">
        <ele>13.048856</ele>
        <time>2022-04-17T11:04:19.000Z</time>
      </trkpt>
      <trkpt lat="36.13861" lon="-5.34127">
        <ele>13.048856</ele>
        <time>2022-04-17T11:04:25.000Z</time>
      </trkpt>
      <trkpt lat="36.13861" lon="-5.34127">
        <ele>13.048856</ele>
        <time>2022-04-17T11:04:44.000Z</time>
      </trkpt>
      <trkpt lat="36.13861" lon="-5.34127">
        <ele>13.048856</ele>
        <time>2022-04-17T11:04:49.000Z</time>
      </trkpt>
      <trkpt lat="36.13861" lon="-5.34127">
        <ele>13.048856</ele>
        <time>2022-04-17T11:05:01.000Z</time>
      </trkpt>
      <trkpt lat="36.13861" lon="-5.34127">
        <ele>13.047997</ele>
        <time>2022-04-17T11:05:06.000Z</time>
      </trkpt>
      <trkpt lat="36.13861" lon="-5.34127">
        <ele>13.047997</ele>
        <time>2022-04-17T11:05:13.000Z</time>
      </trkpt>
      <trkpt lat="36.13861" lon="-5.34127">
        <ele>13.047997</ele>
        <time>2022-04-17T11:05:17.000Z</time>
      </trkpt>
      <trkpt lat="36.13861" lon="-5.34128">
        <ele>13.047687</ele>
        <time>2022-04-17T11:05:47.000Z</time>
      </trkpt>
      <trkpt lat="36.1386" lon="-5.34128">
        <ele>13.047334</ele>
        <time>2022-04-17T11:06:08.000Z</time>
      </trkpt>
      <trkpt lat="36.13857" lon="-5.34128">
        <ele>13.04087</ele>
        <time>2022-04-17T11:06:11.000Z</time>
      </trkpt>
      <trkpt lat="36.13854" lon="-5.34129">
        <ele>13.036613</ele>
        <time>2022-04-17T11:06:13.000Z</time>
      </trkpt>
      <trkpt lat="36.13851" lon="-5.34132">
        <ele>13.029919</ele>
        <time>2022-04-17T11:06:16.000Z</time>
      </trkpt>
      <trkpt lat="36.13849" lon="-5.34134">
        <ele>13.026861</ele>
        <time>2022-04-17T11:06:19.000Z</time>
      </trkpt>
      <trkpt lat="36.13849" lon="-5.34134">
        <ele>13.02588</ele>
        <time>2022-04-17T11:06:21.000Z</time>
      </trkpt>
      <trkpt lat="36.13847" lon="-5.34134">
        <ele>13.024076</ele>
        <time>2022-04-17T11:06:24.000Z</time>
      </trkpt>
      <trkpt lat="36.13845" lon="-5.34133">
        <ele>13.020117</ele>
        <time>2022-04-17T11:06:26.000Z</time>
      </trkpt>
      <trkpt lat="36.13845" lon="-5.34124">
        <ele>13.00809</ele>
        <time>2022-04-17T11:09:27.000Z</time>
      </trkpt>
      <trkpt lat="36.13847" lon="-5.34113">
        <ele>12.993201</ele>
        <time>2022-04-17T11:09:29.000Z</time>
      </trkpt>
      <trkpt lat="36.13853" lon="-5.34118">
        <ele>12.981522</ele>
        <time>2022-04-17T11:09:32.000Z</time>
      </trkpt>
      <trkpt lat="36.13856" lon="-5.34125">
        <ele>12.970508</ele>
        <time>2022-04-17T11:09:35.000Z</time>
      </trkpt>
      <trkpt lat="36.13857" lon="-5.34125">
        <ele>12.968984</ele>
        <time>2022-04-17T11:09:37.000Z</time>
      </trkpt>
      <trkpt lat="36.13858" lon="-5.34126">
        <ele>12.966619</ele>
        <time>2022-04-17T11:09:41.000Z</time>
      </trkpt>
      <trkpt lat="36.13859" lon="-5.34127">
        <ele>12.965283</ele>
        <time>2022-04-17T11:09:42.000Z</time>
      </trkpt>
      <trkpt lat="36.13861" lon="-5.34126">
        <ele>12.962509</ele>
        <time>2022-04-17T11:09:48.000Z</time>
      </trkpt>
      <trkpt lat="36.13861" lon="-5.34127">
        <ele>12.961344</ele>
        <time>2022-04-17T11:09:51.000Z</time>
      </trkpt>
      <trkpt lat="36.13861" lon="-5.34127">
        <ele>12.960853</ele>
        <time>2022-04-17T11:09:55.000Z</time>
      </trkpt>
      <trkpt lat="36.13861" lon="-5.34127">
        <ele>12.960853</ele>
        <time>2022-04-17T11:10:01.000Z</time>
      </trkpt>
      <trkpt lat="36.13861" lon="-5.34127">
        <ele>12.960853</ele>
        <time>2022-04-17T11:10:07.000Z</time>
      </trkpt>
      <trkpt lat="36.13861" lon="-5.34127">
        <ele>12.960853</ele>
        <time>2022-04-17T11:10:09.000Z</time>
      </trkpt>
      <trkpt lat="36.13861" lon="-5.34127">
        <ele>12.960853</ele>
        <time>2022-04-17T11:10:11.000Z</time>
      </trkpt>
      <trkpt lat="36.13861" lon="-5.34127">
        <ele>12.960721</ele>
        <time>2022-04-17T11:10:13.000Z</time>
      </trkpt>
      <trkpt lat="36.1386" lon="-5.34127">
        <ele>12.960558</ele>
        <time>2022-04-17T11:10:15.000Z</time>
      </trkpt>
      <trkpt lat="36.1386" lon="-5.34127">
        <ele>12.960558</ele>
        <time>2022-04-17T11:10:16.000Z</time>
      </trkpt>
      <trkpt lat="36.13861" lon="-5.34127">
        <ele>12.960394</ele>
        <time>2022-04-17T11:10:19.000Z</time>
      </trkpt>
      <trkpt lat="36.13861" lon="-5.34128">
        <ele>12.959998</ele>
        <time>2022-04-17T11:10:24.000Z</time>
      </trkpt>
      <trkpt lat="36.1386" lon="-5.34129">
        <ele>12.958353</ele>
        <time>2022-04-17T11:10:35.000Z</time>
      </trkpt>
      <trkpt lat="36.1386" lon="-5.34129">
        <ele>12.957845</ele>
        <time>2022-04-17T11:10:38.000Z</time>
      </trkpt>
      <trkpt lat="36.13859" lon="-5.3413">
        <ele>12.95517</ele>
        <time>2022-04-17T11:10:42.000Z</time>
      </trkpt>
      <trkpt lat="36.1386" lon="-5.34132">
        <ele>12.951985</ele>
        <time>2022-04-17T11:10:48.000Z</time>
      </trkpt>
      <trkpt lat="36.1386" lon="-5.3413">
        <ele>12.949716</ele>
        <time>2022-04-17T11:10:55.000Z</time>
      </trkpt>
      <trkpt lat="36.13859" lon="-5.34131">
        <ele>12.948665</ele>
        <time>2022-04-17T11:10:58.000Z</time>
      </trkpt>
      <trkpt lat="36.13859" lon="-5.34131">
        <ele>12.947843</ele>
        <time>2022-04-17T11:11:02.000Z</time>
      </trkpt>
      <trkpt lat="36.1386" lon="-5.34132">
        <ele>12.946557</ele>
        <time>2022-04-17T11:11:06.000Z</time>
      </trkpt>
      <trkpt lat="36.1386" lon="-5.34131">
        <ele>12.945105</ele>
        <time>2022-04-17T11:11:16.000Z</time>
      </trkpt>
      <trkpt lat="36.1386" lon="-5.34131">
        <ele>12.944973</ele>
        <time>2022-04-17T11:11:17.000Z</time>
      </trkpt>
      <trkpt lat="36.1386" lon="-5.3413">
        <ele>12.943439</ele>
        <time>2022-04-17T11:11:24.000Z</time>
      </trkpt>
      <trkpt lat="36.1386" lon="-5.3413">
        <ele>12.943087</ele>
        <time>2022-04-17T11:11:25.000Z</time>
      </trkpt>
      <trkpt lat="36.1386" lon="-5.34128">
        <ele>12.940141</ele>
        <time>2022-04-17T11:11:30.000Z</time>
      </trkpt>
      <trkpt lat="36.1386" lon="-5.34128">
        <ele>12.940141</ele>
        <time>2022-04-17T11:11:31.000Z</time>
      </trkpt>
      <trkpt lat="36.1386" lon="-5.34127">
        <ele>12.939008</ele>
        <time>2022-04-17T11:11:49.000Z</time>
      </trkpt>
      <trkpt lat="36.1386" lon="-5.34127">
        <ele>12.938798</ele>
        <time>2022-04-17T11:11:52.000Z</time>
      </trkpt>
      <trkpt lat="36.1386" lon="-5.34127">
        <ele>12.938798</ele>
        <time>2022-04-17T11:11:57.000Z</time>
      </trkpt>
      <trkpt lat="36.1386" lon="-5.34128">
        <ele>12.937752</ele>
        <time>2022-04-17T11:12:02.000Z</time>
      </trkpt>
      <trkpt lat="36.13861" lon="-5.34129">
        <ele>12.936552</ele>
        <time>2022-04-17T11:12:11.000Z</time>
      </trkpt>
      <trkpt lat="36.13861" lon="-5.34129">
        <ele>12.936552</ele>
        <time>2022-04-17T11:12:13.000Z</time>
      </trkpt>
      <trkpt lat="36.13861" lon="-5.34129">
        <ele>12.936342</ele>
        <time>2022-04-17T11:12:15.000Z</time>
      </trkpt>
      <trkpt lat="36.13861" lon="-5.34129">
        <ele>12.936342</ele>
        <time>2022-04-17T11:12:16.000Z</time>
      </trkpt>
      <trkpt lat="36.13861" lon="-5.34129">
        <ele>12.936178</ele>
        <time>2022-04-17T11:12:23.000Z</time>
      </trkpt>
      <trkpt lat="36.13861" lon="-5.34127">
        <ele>12.933484</ele>
        <time>2022-04-17T11:12:39.000Z</time>
      </trkpt>
      <trkpt lat="36.13861" lon="-5.34126">
        <ele>12.932164</ele>
        <time>2022-04-17T11:12:42.000Z</time>
      </trkpt>
      <trkpt lat="36.13861" lon="-5.34124">
        <ele>12.929782</ele>
        <time>2022-04-17T11:12:46.000Z</time>
      </trkpt>
      <trkpt lat="36.13862" lon="-5.34124">
        <ele>12.929229</ele>
        <time>2022-04-17T11:12:49.000Z</time>
      </trkpt>
      <trkpt lat="36.13863" lon="-5.34121">
        <ele>12.924569</ele>
        <time>2022-04-17T11:12:59.000Z</time>
      </trkpt>
      <trkpt lat="36.13863" lon="-5.34121">
        <ele>12.924061</ele>
        <time>2022-04-17T11:13:02.000Z</time>
      </trkpt>
      <trkpt lat="36.13864" lon="-5.34121">
        <ele>12.923709</ele>
        <time>2022-04-17T11:13:05.000Z</time>
      </trkpt>
      <trkpt lat="36.13864" lon="-5.34121">
        <ele>12.922448</ele>
        <time>2022-04-17T11:13:15.000Z</time>
      </trkpt>
      <trkpt lat="36.13864" lon="-5.34122">
        <ele>12.921895</ele>
        <time>2022-04-17T11:13:18.000Z</time>
      </trkpt>
      <trkpt lat="36.13864" lon="-5.34121">
        <ele>12.921054</ele>
        <time>2022-04-17T11:13:24.000Z</time>
      </trkpt>
      <trkpt lat="36.13864" lon="-5.34121">
        <ele>12.920546</ele>
        <time>2022-04-17T11:13:28.000Z</time>
      </trkpt>
      <trkpt lat="36.13863" lon="-5.34121">
        <ele>12.919154</ele>
        <time>2022-04-17T11:13:30.000Z</time>
      </trkpt>
      <trkpt lat="36.13863" lon="-5.3412">
        <ele>12.918332</ele>
        <time>2022-04-17T11:13:35.000Z</time>
      </trkpt>
      <trkpt lat="36.13862" lon="-5.34119">
        <ele>12.916774</ele>
        <time>2022-04-17T11:13:38.000Z</time>
      </trkpt>
      <trkpt lat="36.13862" lon="-5.34119">
        <ele>12.916564</ele>
        <time>2022-04-17T11:13:47.000Z</time>
      </trkpt>
      <trkpt lat="36.13862" lon="-5.34119">
        <ele>12.916564</ele>
        <time>2022-04-17T11:13:53.000Z</time>
      </trkpt>
      <trkpt lat="36.13862" lon="-5.34118">
        <ele>12.914319</ele>
        <time>2022-04-17T11:13:56.000Z</time>
      </trkpt>
      <trkpt lat="36.13862" lon="-5.34117">
        <ele>12.913689</ele>
        <time>2022-04-17T11:13:58.000Z</time>
      </trkpt>
      <trkpt lat="36.13862" lon="-5.34116">
        <ele>12.912456</ele>
        <time>2022-04-17T11:14:03.000Z</time>
      </trkpt>
      <trkpt lat="36.13862" lon="-5.34116">
        <ele>12.912027</ele>
        <time>2022-04-17T11:14:06.000Z</time>
      </trkpt>
      <trkpt lat="36.13861" lon="-5.34116">
        <ele>12.911038</ele>
        <time>2022-04-17T11:14:11.000Z</time>
      </trkpt>
      <trkpt lat="36.13861" lon="-5.34116">
        <ele>12.910317</ele>
        <time>2022-04-17T11:14:21.000Z</time>
      </trkpt>
      <trkpt lat="36.1386" lon="-5.34115">
        <ele>12.909002</ele>
        <time>2022-04-17T11:14:30.000Z</time>
      </trkpt>
      <trkpt lat="36.1386" lon="-5.34115">
        <ele>12.909002</ele>
        <time>2022-04-17T11:14:33.000Z</time>
      </trkpt>
      <trkpt lat="36.1386" lon="-5.3412">
        <ele>12.903265</ele>
        <time>2022-04-17T11:14:50.000Z</time>
      </trkpt>
      <trkpt lat="36.13859" lon="-5.3412">
        <ele>12.902249</ele>
        <time>2022-04-17T11:14:58.000Z</time>
      </trkpt>
      <trkpt lat="36.13859" lon="-5.3412">
        <ele>12.901759</ele>
        <time>2022-04-17T11:15:04.000Z</time>
      </trkpt>
      <trkpt lat="36.13859" lon="-5.3412">
        <ele>12.901595</ele>
        <time>2022-04-17T11:15:07.000Z</time>
      </trkpt>
      <trkpt lat="36.13859" lon="-5.34125">
        <ele>12.894136</ele>
        <time>2022-04-17T11:15:16.000Z</time>
      </trkpt>
      <trkpt lat="36.1386" lon="-5.34129">
        <ele>12.888438</ele>
        <time>2022-04-17T11:15:22.000Z</time>
      </trkpt>
      <trkpt lat="36.1386" lon="-5.34128">
        <ele>12.886601</ele>
        <time>2022-04-17T11:15:28.000Z</time>
      </trkpt>
      <trkpt lat="36.13859" lon="-5.34129">
        <ele>12.883949</ele>
        <time>2022-04-17T11:15:38.000Z</time>
      </trkpt>
      <trkpt lat="36.13859" lon="-5.34129">
        <ele>12.883949</ele>
        <time>2022-04-17T11:15:43.000Z</time>
      </trkpt>
      <trkpt lat="36.13858" lon="-5.34131">
        <ele>12.881071</ele>
        <time>2022-04-17T11:15:56.000Z</time>
      </trkpt>
      <trkpt lat="36.13856" lon="-5.34129">
        <ele>12.876818</ele>
        <time>2022-04-17T11:15:59.000Z</time>
      </trkpt>
      <trkpt lat="36.13856" lon="-5.34129">
        <ele>12.875635</ele>
        <time>2022-04-17T11:16:01.000Z</time>
      </trkpt>
      <trkpt lat="36.13856" lon="-5.34128">
        <ele>12.874826</ele>
        <time>2022-04-17T11:16:03.000Z</time>
      </trkpt>
      <trkpt lat="36.13859" lon="-5.34131">
        <ele>12.869278</ele>
        <time>2022-04-17T11:16:08.000Z</time>
      </trkpt>
      <trkpt lat="36.13859" lon="-5.34133">
        <ele>12.865971</ele>
        <time>2022-04-17T11:16:09.000Z</time>
      </trkpt>
      <trkpt lat="36.13854" lon="-5.34126">
        <ele>12.852802</ele>
        <time>2022-04-17T11:16:13.000Z</time>
      </trkpt>
      <trkpt lat="36.13859" lon="-5.34124">
        <ele>12.844054</ele>
        <time>2022-04-17T11:16:19.000Z</time>
      </trkpt>
      <trkpt lat="36.13862" lon="-5.34129">
        <ele>12.836289</ele>
        <time>2022-04-17T11:16:20.000Z</time>
      </trkpt>
      <trkpt lat="36.13858" lon="-5.34129">
        <ele>12.830512</ele>
        <time>2022-04-17T11:16:24.000Z</time>
      </trkpt>
      <trkpt lat="36.13858" lon="-5.34129">
        <ele>12.829484</ele>
        <time>2022-04-17T11:16:25.000Z</time>
      </trkpt>
      <trkpt lat="36.13858" lon="-5.34129">
        <ele>12.829484</ele>
        <time>2022-04-17T11:16:29.000Z</time>
      </trkpt>
      <trkpt lat="36.13857" lon="-5.34129">
        <ele>12.828748</ele>
        <time>2022-04-17T11:16:45.000Z</time>
      </trkpt>
      <trkpt lat="36.13857" lon="-5.3413">
        <ele>12.827823</ele>
        <time>2022-04-17T11:16:56.000Z</time>
      </trkpt>
      <trkpt lat="36.13858" lon="-5.3413">
        <ele>12.826995</ele>
        <time>2022-04-17T11:17:02.000Z</time>
      </trkpt>
      <trkpt lat="36.13858" lon="-5.3413">
        <ele>12.826505</ele>
        <time>2022-04-17T11:17:06.000Z</time>
      </trkpt>
      <trkpt lat="36.13859" lon="-5.3413">
        <ele>12.825997</ele>
        <time>2022-04-17T11:17:12.000Z</time>
      </trkpt>
      <trkpt lat="36.13859" lon="-5.34128">
        <ele>12.823859</ele>
        <time>2022-04-17T11:17:17.000Z</time>
      </trkpt>
      <trkpt lat="36.13859" lon="-5.34126">
        <ele>12.820935</ele>
        <time>2022-04-17T11:17:26.000Z</time>
      </trkpt>
      <trkpt lat="36.13859" lon="-5.34126">
        <ele>12.820608</ele>
        <time>2022-04-17T11:17:29.000Z</time>
      </trkpt>
      <trkpt lat="36.13859" lon="-5.34126">
        <ele>12.820608</ele>
        <time>2022-04-17T11:17:32.000Z</time>
      </trkpt>
      <trkpt lat="36.13859" lon="-5.34126">
        <ele>12.820281</ele>
        <time>2022-04-17T11:17:38.000Z</time>
      </trkpt>
      <trkpt lat="36.13859" lon="-5.34127">
        <ele>12.819472</ele>
        <time>2022-04-17T11:17:53.000Z</time>
      </trkpt>
      <trkpt lat="36.13859" lon="-5.34126">
        <ele>12.818959</ele>
        <time>2022-04-17T11:18:03.000Z</time>
      </trkpt>
      <trkpt lat="36.1386" lon="-5.34125">
        <ele>12.816491</ele>
        <time>2022-04-17T11:18:41.000Z</time>
      </trkpt>
      <trkpt lat="36.1386" lon="-5.3412">
        <ele>12.810644</ele>
        <time>2022-04-17T11:19:06.000Z</time>
      </trkpt>
      <trkpt lat="36.1386" lon="-5.3412">
        <ele>12.81038</ele>
        <time>2022-04-17T11:19:09.000Z</time>
      </trkpt>
      <trkpt lat="36.1386" lon="-5.3412">
        <ele>12.809959</ele>
        <time>2022-04-17T11:19:11.000Z</time>
      </trkpt>
      <trkpt lat="36.1386" lon="-5.3412">
        <ele>12.809796</ele>
        <time>2022-04-17T11:19:12.000Z</time>
      </trkpt>
      <trkpt lat="36.1386" lon="-5.3412">
        <ele>12.809305</ele>
        <time>2022-04-17T11:19:14.000Z</time>
      </trkpt>
      <trkpt lat="36.13859" lon="-5.3412">
        <ele>12.808978</ele>
        <time>2022-04-17T11:19:20.000Z</time>
      </trkpt>
      <trkpt lat="36.13859" lon="-5.34121">
        <ele>12.807932</ele>
        <time>2022-04-17T11:19:25.000Z</time>
      </trkpt>
      <trkpt lat="36.13859" lon="-5.34123">
        <ele>12.804631</ele>
        <time>2022-04-17T11:19:30.000Z</time>
      </trkpt>
      <trkpt lat="36.1386" lon="-5.34124">
        <ele>12.80358</ele>
        <time>2022-04-17T11:19:36.000Z</time>
      </trkpt>
      <trkpt lat="36.13865" lon="-5.34124">
        <ele>12.7954</ele>
        <time>2022-04-17T11:19:39.000Z</time>
      </trkpt>
      <trkpt lat="36.13882" lon="-5.34123">
        <ele>13.214333</ele>
        <time>2022-04-17T11:19:48.000Z</time>
      </trkpt>
      <trkpt lat="36.13889" lon="-5.34123">
        <ele>13.386856</ele>
        <time>2022-04-17T11:19:52.000Z</time>
      </trkpt>
      <trkpt lat="36.13893" lon="-5.34123">
        <ele>13.489375</ele>
        <time>2022-04-17T11:19:54.000Z</time>
      </trkpt>
      <trkpt lat="36.13901" lon="-5.34122">
        <ele>13.713193</ele>
        <time>2022-04-17T11:19:58.000Z</time>
      </trkpt>
      <trkpt lat="36.13903" lon="-5.34121">
        <ele>13.764742</ele>
        <time>2022-04-17T11:19:59.000Z</time>
      </trkpt>
      <trkpt lat="36.13921" lon="-5.34118">
        <ele>14.252872</ele>
        <time>2022-04-17T11:20:06.000Z</time>
      </trkpt>
      <trkpt lat="36.13945" lon="-5.34113">
        <ele>14.912814</ele>
        <time>2022-04-17T11:20:15.000Z</time>
      </trkpt>
      <trkpt lat="36.13962" lon="-5.34108">
        <ele>15.382198</ele>
        <time>2022-04-17T11:20:21.000Z</time>
      </trkpt>
      <trkpt lat="36.13964" lon="-5.34107">
        <ele>15.44866</ele>
        <time>2022-04-17T11:20:22.000Z</time>
      </trkpt>
      <trkpt lat="36.13978" lon="-5.34099">
        <ele>15.873195</ele>
        <time>2022-04-17T11:20:28.000Z</time>
      </trkpt>
      <trkpt lat="36.13982" lon="-5.34096">
        <ele>16.000751</ele>
        <time>2022-04-17T11:20:30.000Z</time>
      </trkpt>
      <trkpt lat="36.13996" lon="-5.3409">
        <ele>16.3871</ele>
        <time>2022-04-17T11:20:35.000Z</time>
      </trkpt>
      <trkpt lat="36.14001" lon="-5.34088">
        <ele>16.528393</ele>
        <time>2022-04-17T11:20:37.000Z</time>
      </trkpt>
      <trkpt lat="36.14003" lon="-5.34087">
        <ele>16.594852</ele>
        <time>2022-04-17T11:20:38.000Z</time>
      </trkpt>
      <trkpt lat="36.14015" lon="-5.34082">
        <ele>16.931734</ele>
        <time>2022-04-17T11:20:43.000Z</time>
      </trkpt>
      <trkpt lat="36.1402" lon="-5.3408">
        <ele>17.081317</ele>
        <time>2022-04-17T11:20:45.000Z</time>
      </trkpt>
      <trkpt lat="36.14028" lon="-5.34076">
        <ele>17.300578</ele>
        <time>2022-04-17T11:20:48.000Z</time>
      </trkpt>
      <trkpt lat="36.14037" lon="-5.34068">
        <ele>17.619386</ele>
        <time>2022-04-17T11:20:52.000Z</time>
      </trkpt>
      <trkpt lat="36.14048" lon="-5.34059">
        <ele>17.870493</ele>
        <time>2022-04-17T11:20:57.000Z</time>
      </trkpt>
      <trkpt lat="36.14058" lon="-5.34056">
        <ele>18.072575</ele>
        <time>2022-04-17T11:21:01.000Z</time>
      </trkpt>
      <trkpt lat="36.1406" lon="-5.34055">
        <ele>18.123144</ele>
        <time>2022-04-17T11:21:02.000Z</time>
      </trkpt>
      <trkpt lat="36.14067" lon="-5.34052">
        <ele>18.266203</ele>
        <time>2022-04-17T11:21:05.000Z</time>
      </trkpt>
      <trkpt lat="36.14074" lon="-5.34047">
        <ele>18.438163</ele>
        <time>2022-04-17T11:21:09.000Z</time>
      </trkpt>
      <trkpt lat="36.14078" lon="-5.34045">
        <ele>18.520749</ele>
        <time>2022-04-17T11:21:11.000Z</time>
      </trkpt>
      <trkpt lat="36.14084" lon="-5.34042">
        <ele>18.657714</ele>
        <time>2022-04-17T11:21:15.000Z</time>
      </trkpt>
      <trkpt lat="36.14089" lon="-5.3404">
        <ele>18.745854</ele>
        <time>2022-04-17T11:21:17.000Z</time>
      </trkpt>
      <trkpt lat="36.14098" lon="-5.34036">
        <ele>18.95269</ele>
        <time>2022-04-17T11:21:23.000Z</time>
      </trkpt>
      <trkpt lat="36.14101" lon="-5.34035">
        <ele>18.999703</ele>
        <time>2022-04-17T11:21:24.000Z</time>
      </trkpt>
      <trkpt lat="36.14112" lon="-5.34028">
        <ele>19.257804</ele>
        <time>2022-04-17T11:21:28.000Z</time>
      </trkpt>
      <trkpt lat="36.14119" lon="-5.34023">
        <ele>19.411297</ele>
        <time>2022-04-17T11:21:30.000Z</time>
      </trkpt>
      <trkpt lat="36.14128" lon="-5.34014">
        <ele>19.649689</ele>
        <time>2022-04-17T11:21:33.000Z</time>
      </trkpt>
      <trkpt lat="36.14143" lon="-5.34005">
        <ele>19.983864</ele>
        <time>2022-04-17T11:21:37.000Z</time>
      </trkpt>
      <trkpt lat="36.14147" lon="-5.34003">
        <ele>20.070872</ele>
        <time>2022-04-17T11:21:38.000Z</time>
      </trkpt>
      <trkpt lat="36.14151" lon="-5.34001">
        <ele>20.157771</ele>
        <time>2022-04-17T11:21:39.000Z</time>
      </trkpt>
      <trkpt lat="36.14184" lon="-5.33991">
        <ele>20.837294</ele>
        <time>2022-04-17T11:21:46.000Z</time>
      </trkpt>
      <trkpt lat="36.14205" lon="-5.33988">
        <ele>21.223119</ele>
        <time>2022-04-17T11:21:50.000Z</time>
      </trkpt>
      <trkpt lat="36.14222" lon="-5.33987">
        <ele>20.748109</ele>
        <time>2022-04-17T11:21:53.000Z</time>
      </trkpt>
      <trkpt lat="36.14246" lon="-5.33988">
        <ele>20.092155</ele>
        <time>2022-04-17T11:21:57.000Z</time>
      </trkpt>
      <trkpt lat="36.14265" lon="-5.33989">
        <ele>19.556214</ele>
        <time>2022-04-17T11:22:00.000Z</time>
      </trkpt>
      <trkpt lat="36.14285" lon="-5.33992">
        <ele>19.010344</ele>
        <time>2022-04-17T11:22:03.000Z</time>
      </trkpt>
      <trkpt lat="36.14318" lon="-5.33994">
        <ele>18.106193</ele>
        <time>2022-04-17T11:22:08.000Z</time>
      </trkpt>
      <trkpt lat="36.14326" lon="-5.33994">
        <ele>17.89213</ele>
        <time>2022-04-17T11:22:09.000Z</time>
      </trkpt>
      <trkpt lat="36.14344" lon="-5.33997">
        <ele>17.402244</ele>
        <time>2022-04-17T11:22:12.000Z</time>
      </trkpt>
      <trkpt lat="36.14358" lon="-5.34001">
        <ele>16.997796</ele>
        <time>2022-04-17T11:22:14.000Z</time>
      </trkpt>
      <trkpt lat="36.14365" lon="-5.34003">
        <ele>16.812365</ele>
        <time>2022-04-17T11:22:15.000Z</time>
      </trkpt>
      <trkpt lat="36.14371" lon="-5.34005">
        <ele>16.622732</ele>
        <time>2022-04-17T11:22:16.000Z</time>
      </trkpt>
      <trkpt lat="36.14397" lon="-5.3402">
        <ele>16.005341</ele>
        <time>2022-04-17T11:22:20.000Z</time>
      </trkpt>
      <trkpt lat="36.14415" lon="-5.34036">
        <ele>15.612633</ele>
        <time>2022-04-17T11:22:23.000Z</time>
      </trkpt>
      <trkpt lat="36.14433" lon="-5.34052">
        <ele>15.20173</ele>
        <time>2022-04-17T11:22:26.000Z</time>
      </trkpt>
      <trkpt lat="36.14439" lon="-5.34057">
        <ele>15.071376</ele>
        <time>2022-04-17T11:22:27.000Z</time>
      </trkpt>
      <trkpt lat="36.14473" lon="-5.34087">
        <ele>14.32442</ele>
        <time>2022-04-17T11:22:33.000Z</time>
      </trkpt>
      <trkpt lat="36.14506" lon="-5.34115">
        <ele>13.60817</ele>
        <time>2022-04-17T11:22:39.000Z</time>
      </trkpt>
      <trkpt lat="36.14527" lon="-5.34138">
        <ele>13.110866</ele>
        <time>2022-04-17T11:22:43.000Z</time>
      </trkpt>
      <trkpt lat="36.14542" lon="-5.34149">
        <ele>13.033097</ele>
        <time>2022-04-17T11:22:46.000Z</time>
      </trkpt>
      <trkpt lat="36.14565" lon="-5.34169">
        <ele>12.944155</ele>
        <time>2022-04-17T11:22:51.000Z</time>
      </trkpt>
      <trkpt lat="36.14569" lon="-5.34174">
        <ele>12.927648</ele>
        <time>2022-04-17T11:22:52.000Z</time>
      </trkpt>
      <trkpt lat="36.14583" lon="-5.3419">
        <ele>12.868549</ele>
        <time>2022-04-17T11:22:56.000Z</time>
      </trkpt>
      <trkpt lat="36.14591" lon="-5.34195">
        <ele>12.841363</ele>
        <time>2022-04-17T11:22:58.000Z</time>
      </trkpt>
      <trkpt lat="36.14598" lon="-5.34199">
        <ele>12.815237</ele>
        <time>2022-04-17T11:23:00.000Z</time>
      </trkpt>
      <trkpt lat="36.14613" lon="-5.3421">
        <ele>12.762282</ele>
        <time>2022-04-17T11:23:04.000Z</time>
      </trkpt>
      <trkpt lat="36.1462" lon="-5.34216">
        <ele>12.734857</ele>
        <time>2022-04-17T11:23:06.000Z</time>
      </trkpt>
      <trkpt lat="36.14626" lon="-5.34225">
        <ele>12.706291</ele>
        <time>2022-04-17T11:23:08.000Z</time>
      </trkpt>
      <trkpt lat="36.14628" lon="-5.3423">
        <ele>12.691716</ele>
        <time>2022-04-17T11:23:09.000Z</time>
      </trkpt>
      <trkpt lat="36.1463" lon="-5.34236">
        <ele>12.676317</ele>
        <time>2022-04-17T11:23:10.000Z</time>
      </trkpt>
      <trkpt lat="36.14634" lon="-5.34247">
        <ele>12.645882</ele>
        <time>2022-04-17T11:23:12.000Z</time>
      </trkpt>
      <trkpt lat="36.14638" lon="-5.34258">
        <ele>12.616131</ele>
        <time>2022-04-17T11:23:14.000Z</time>
      </trkpt>
      <trkpt lat="36.14647" lon="-5.34272">
        <ele>12.568581</ele>
        <time>2022-04-17T11:23:17.000Z</time>
      </trkpt>
      <trkpt lat="36.14651" lon="-5.34277">
        <ele>12.552652</ele>
        <time>2022-04-17T11:23:18.000Z</time>
      </trkpt>
      <trkpt lat="36.14653" lon="-5.34281">
        <ele>12.539798</ele>
        <time>2022-04-17T11:23:19.000Z</time>
      </trkpt>
      <trkpt lat="36.14653" lon="-5.34285">
        <ele>12.529236</ele>
        <time>2022-04-17T11:23:20.000Z</time>
      </trkpt>
      <trkpt lat="36.14655" lon="-5.34291">
        <ele>12.524146</ele>
        <time>2022-04-17T11:23:21.000Z</time>
      </trkpt>
      <trkpt lat="36.14659" lon="-5.34302">
        <ele>12.540258</ele>
        <time>2022-04-17T11:23:23.000Z</time>
      </trkpt>
      <trkpt lat="36.14662" lon="-5.34308">
        <ele>12.548679</ele>
        <time>2022-04-17T11:23:24.000Z</time>
      </trkpt>
      <trkpt lat="36.1467" lon="-5.34325">
        <ele>12.574802</ele>
        <time>2022-04-17T11:23:27.000Z</time>
      </trkpt>
      <trkpt lat="36.14672" lon="-5.34331">
        <ele>12.583126</ele>
        <time>2022-04-17T11:23:28.000Z</time>
      </trkpt>
      <trkpt lat="36.14676" lon="-5.34343">
        <ele>12.599197</ele>
        <time>2022-04-17T11:23:30.000Z</time>
      </trkpt>
      <trkpt lat="36.14682" lon="-5.34354">
        <ele>12.616247</ele>
        <time>2022-04-17T11:23:32.000Z</time>
      </trkpt>
      <trkpt lat="36.14684" lon="-5.3436">
        <ele>12.625306</ele>
        <time>2022-04-17T11:23:33.000Z</time>
      </trkpt>
      <trkpt lat="36.14688" lon="-5.34382">
        <ele>12.654825</ele>
        <time>2022-04-17T11:23:37.000Z</time>
      </trkpt>
      <trkpt lat="36.14689" lon="-5.34388">
        <ele>12.662643</ele>
        <time>2022-04-17T11:23:38.000Z</time>
      </trkpt>
      <trkpt lat="36.14689" lon="-5.34395">
        <ele>12.671177</ele>
        <time>2022-04-17T11:23:39.000Z</time>
      </trkpt>
      <trkpt lat="36.14686" lon="-5.34408">
        <ele>12.689379</ele>
        <time>2022-04-17T11:23:41.000Z</time>
      </trkpt>
      <trkpt lat="36.14683" lon="-5.34415">
        <ele>12.699143</ele>
        <time>2022-04-17T11:23:42.000Z</time>
      </trkpt>
      <trkpt lat="36.14681" lon="-5.34429">
        <ele>12.717907</ele>
        <time>2022-04-17T11:23:44.000Z</time>
      </trkpt>
      <trkpt lat="36.14678" lon="-5.34443">
        <ele>12.735488</ele>
        <time>2022-04-17T11:23:46.000Z</time>
      </trkpt>
      <trkpt lat="36.14705" lon="-5.34453">
        <ele>12.781002</ele>
        <time>2022-04-17T11:23:48.000Z</time>
      </trkpt>
      <trkpt lat="36.14701" lon="-5.34459">
        <ele>12.79106</ele>
        <time>2022-04-17T11:23:50.000Z</time>
      </trkpt>
      <trkpt lat="36.147" lon="-5.34464">
        <ele>12.797502</ele>
        <time>2022-04-17T11:23:51.000Z</time>
      </trkpt>
      <trkpt lat="36.14713" lon="-5.34469">
        <ele>12.781961</ele>
        <time>2022-04-17T11:23:52.000Z</time>
      </trkpt>
      <trkpt lat="36.14717" lon="-5.34474">
        <ele>12.754601</ele>
        <time>2022-04-17T11:23:53.000Z</time>
      </trkpt>
      <trkpt lat="36.14721" lon="-5.3448">
        <ele>12.729793</ele>
        <time>2022-04-17T11:23:54.000Z</time>
      </trkpt>
      <trkpt lat="36.14727" lon="-5.34492">
        <ele>12.680306</ele>
        <time>2022-04-17T11:23:56.000Z</time>
      </trkpt>
      <trkpt lat="36.14727" lon="-5.34496">
        <ele>12.665256</ele>
        <time>2022-04-17T11:23:57.000Z</time>
      </trkpt>
      <trkpt lat="36.14729" lon="-5.34501">
        <ele>12.646452</ele>
        <time>2022-04-17T11:23:58.000Z</time>
      </trkpt>
      <trkpt lat="36.14733" lon="-5.34511">
        <ele>12.607481</ele>
        <time>2022-04-17T11:24:00.000Z</time>
      </trkpt>
      <trkpt lat="36.14736" lon="-5.34522">
        <ele>12.569036</ele>
        <time>2022-04-17T11:24:02.000Z</time>
      </trkpt>
      <trkpt lat="36.1474" lon="-5.34535">
        <ele>12.521478</ele>
        <time>2022-04-17T11:24:05.000Z</time>
      </trkpt>
      <trkpt lat="36.14749" lon="-5.34554">
        <ele>12.444568</ele>
        <time>2022-04-17T11:24:10.000Z</time>
      </trkpt>
      <trkpt lat="36.14753" lon="-5.34554">
        <ele>12.426536</ele>
        <time>2022-04-17T11:24:13.000Z</time>
      </trkpt>
      <trkpt lat="36.14752" lon="-5.34553">
        <ele>12.420146</ele>
        <time>2022-04-17T11:24:19.000Z</time>
      </trkpt>
      <trkpt lat="36.14752" lon="-5.34553">
        <ele>12.420146</ele>
        <time>2022-04-17T11:24:21.000Z</time>
      </trkpt>
      <trkpt lat="36.14752" lon="-5.34553">
        <ele>12.4198</ele>
        <time>2022-04-17T11:24:33.000Z</time>
      </trkpt>
      <trkpt lat="36.14752" lon="-5.34553">
        <ele>12.418049</ele>
        <time>2022-04-17T11:24:35.000Z</time>
      </trkpt>
      <trkpt lat="36.14749" lon="-5.34553">
        <ele>12.408604</ele>
        <time>2022-04-17T11:24:36.000Z</time>
      </trkpt>
      <trkpt lat="36.14748" lon="-5.34554">
        <ele>12.403978</ele>
        <time>2022-04-17T11:24:39.000Z</time>
      </trkpt>
      <trkpt lat="36.14765" lon="-5.34572">
        <ele>12.306427</ele>
        <time>2022-04-17T11:24:43.000Z</time>
      </trkpt>
      <trkpt lat="36.14774" lon="-5.34597">
        <ele>12.212463</ele>
        <time>2022-04-17T11:24:47.000Z</time>
      </trkpt>
      <trkpt lat="36.14787" lon="-5.34634">
        <ele>12.07356</ele>
        <time>2022-04-17T11:24:55.000Z</time>
      </trkpt>
      <trkpt lat="36.14789" lon="-5.34644">
        <ele>12.039318</ele>
        <time>2022-04-17T11:24:57.000Z</time>
      </trkpt>
      <trkpt lat="36.14795" lon="-5.34663">
        <ele>11.940982</ele>
        <time>2022-04-17T11:25:01.000Z</time>
      </trkpt>
      <trkpt lat="36.148" lon="-5.34676">
        <ele>11.871887</ele>
        <time>2022-04-17T11:25:04.000Z</time>
      </trkpt>
      <trkpt lat="36.14804" lon="-5.34685">
        <ele>11.823643</ele>
        <time>2022-04-17T11:25:06.000Z</time>
      </trkpt>
      <trkpt lat="36.1481" lon="-5.34699">
        <ele>11.747206</ele>
        <time>2022-04-17T11:25:09.000Z</time>
      </trkpt>
      <trkpt lat="36.14811" lon="-5.34704">
        <ele>11.722653</ele>
        <time>2022-04-17T11:25:10.000Z</time>
      </trkpt>
      <trkpt lat="36.1482" lon="-5.34727">
        <ele>11.599348</ele>
        <time>2022-04-17T11:25:15.000Z</time>
      </trkpt>
      <trkpt lat="36.14824" lon="-5.34737">
        <ele>11.547819</ele>
        <time>2022-04-17T11:25:17.000Z</time>
      </trkpt>
      <trkpt lat="36.1483" lon="-5.3476">
        <ele>11.4274</ele>
        <time>2022-04-17T11:25:22.000Z</time>
      </trkpt>
      <trkpt lat="36.14834" lon="-5.34769">
        <ele>11.378338</ele>
        <time>2022-04-17T11:25:24.000Z</time>
      </trkpt>
      <trkpt lat="36.14838" lon="-5.34777">
        <ele>11.334766</ele>
        <time>2022-04-17T11:25:26.000Z</time>
      </trkpt>
      <trkpt lat="36.14841" lon="-5.34791">
        <ele>11.265801</ele>
        <time>2022-04-17T11:25:29.000Z</time>
      </trkpt>
      <trkpt lat="36.14846" lon="-5.34808">
        <ele>11.178444</ele>
        <time>2022-04-17T11:25:33.000Z</time>
      </trkpt>
      <trkpt lat="36.14849" lon="-5.34824">
        <ele>11.101932</ele>
        <time>2022-04-17T11:25:36.000Z</time>
      </trkpt>
      <trkpt lat="36.14853" lon="-5.34852">
        <ele>10.967581</ele>
        <time>2022-04-17T11:25:42.000Z</time>
      </trkpt>
      <trkpt lat="36.14854" lon="-5.34858">
        <ele>10.972713</ele>
        <time>2022-04-17T11:25:43.000Z</time>
      </trkpt>
      <trkpt lat="36.14856" lon="-5.34862">
        <ele>10.977038</ele>
        <time>2022-04-17T11:25:44.000Z</time>
      </trkpt>
      <trkpt lat="36.14857" lon="-5.34867">
        <ele>10.981585</ele>
        <time>2022-04-17T11:25:45.000Z</time>
      </trkpt>
      <trkpt lat="36.14858" lon="-5.34872">
        <ele>10.986667</ele>
        <time>2022-04-17T11:25:47.000Z</time>
      </trkpt>
      <trkpt lat="36.1486" lon="-5.34872">
        <ele>10.987903</ele>
        <time>2022-04-17T11:25:48.000Z</time>
      </trkpt>
      <trkpt lat="36.1486" lon="-5.34872">
        <ele>10.988251</ele>
        <time>2022-04-17T11:25:53.000Z</time>
      </trkpt>
      <trkpt lat="36.1486" lon="-5.34872">
        <ele>10.988251</ele>
        <time>2022-04-17T11:26:00.000Z</time>
      </trkpt>
      <trkpt lat="36.1486" lon="-5.34872">
        <ele>10.988251</ele>
        <time>2022-04-17T11:26:12.000Z</time>
      </trkpt>
      <trkpt lat="36.1486" lon="-5.3487">
        <ele>10.990332</ele>
        <time>2022-04-17T11:26:30.000Z</time>
      </trkpt>
      <trkpt lat="36.1486" lon="-5.3487">
        <ele>10.990332</ele>
        <time>2022-04-17T11:26:41.000Z</time>
      </trkpt>
      <trkpt lat="36.1486" lon="-5.3487">
        <ele>10.990332</ele>
        <time>2022-04-17T11:26:58.000Z</time>
      </trkpt>
      <trkpt lat="36.1486" lon="-5.3487">
        <ele>10.990332</ele>
        <time>2022-04-17T11:27:06.000Z</time>
      </trkpt>
      <trkpt lat="36.1486" lon="-5.3487">
        <ele>10.990332</ele>
        <time>2022-04-17T11:27:10.000Z</time>
      </trkpt>
      <trkpt lat="36.1486" lon="-5.3487">
        <ele>10.990332</ele>
        <time>2022-04-17T11:27:20.000Z</time>
      </trkpt>
      <trkpt lat="36.1486" lon="-5.3487">
        <ele>10.990332</ele>
        <time>2022-04-17T11:27:27.000Z</time>
      </trkpt>
      <trkpt lat="36.1486" lon="-5.3487">
        <ele>10.990332</ele>
        <time>2022-04-17T11:28:00.000Z</time>
      </trkpt>
      <trkpt lat="36.1486" lon="-5.3487">
        <ele>10.990332</ele>
        <time>2022-04-17T11:28:04.000Z</time>
      </trkpt>
      <trkpt lat="36.1486" lon="-5.34874">
        <ele>10.993747</ele>
        <time>2022-04-17T11:28:11.000Z</time>
      </trkpt>
      <trkpt lat="36.14861" lon="-5.34876">
        <ele>10.996077</ele>
        <time>2022-04-17T11:28:12.000Z</time>
      </trkpt>
      <trkpt lat="36.14866" lon="-5.34894">
        <ele>11.012923</ele>
        <time>2022-04-17T11:28:18.000Z</time>
      </trkpt>
      <trkpt lat="36.14867" lon="-5.34896">
        <ele>11.015482</ele>
        <time>2022-04-17T11:28:19.000Z</time>
      </trkpt>
      <trkpt lat="36.14874" lon="-5.34916">
        <ele>11.035271</ele>
        <time>2022-04-17T11:28:26.000Z</time>
      </trkpt>
      <trkpt lat="36.14886" lon="-5.34918">
        <ele>11.048976</ele>
        <time>2022-04-17T11:28:30.000Z</time>
      </trkpt>
      <trkpt lat="36.14915" lon="-5.34908">
        <ele>11.082757</ele>
        <time>2022-04-17T11:28:38.000Z</time>
      </trkpt>
      <trkpt lat="36.14919" lon="-5.34907">
        <ele>11.086803</ele>
        <time>2022-04-17T11:28:39.000Z</time>
      </trkpt>
      <trkpt lat="36.1494" lon="-5.34901">
        <ele>11.111113</ele>
        <time>2022-04-17T11:28:45.000Z</time>
      </trkpt>
      <trkpt lat="36.14949" lon="-5.349">
        <ele>11.120904</ele>
        <time>2022-04-17T11:28:48.000Z</time>
      </trkpt>
      <trkpt lat="36.14957" lon="-5.34898">
        <ele>11.130415</ele>
        <time>2022-04-17T11:28:51.000Z</time>
      </trkpt>
      <trkpt lat="36.14963" lon="-5.34895">
        <ele>11.137495</ele>
        <time>2022-04-17T11:28:53.000Z</time>
      </trkpt>
      <trkpt lat="36.14969" lon="-5.34893">
        <ele>11.144965</ele>
        <time>2022-04-17T11:28:55.000Z</time>
      </trkpt>
      <trkpt lat="36.1498" lon="-5.3489">
        <ele>11.157312</ele>
        <time>2022-04-17T11:28:58.000Z</time>
      </trkpt>
      <trkpt lat="36.14988" lon="-5.34887">
        <ele>11.166946</ele>
        <time>2022-04-17T11:29:00.000Z</time>
      </trkpt>
      <trkpt lat="36.15023" lon="-5.34873">
        <ele>11.108522</ele>
        <time>2022-04-17T11:29:09.000Z</time>
      </trkpt>
      <trkpt lat="36.15047" lon="-5.34869">
        <ele>11.06831</ele>
        <time>2022-04-17T11:29:15.000Z</time>
      </trkpt>
      <trkpt lat="36.15054" lon="-5.34868">
        <ele>11.055728</ele>
        <time>2022-04-17T11:29:17.000Z</time>
      </trkpt>
      <trkpt lat="36.15078" lon="-5.34866">
        <ele>11.015631</ele>
        <time>2022-04-17T11:29:24.000Z</time>
      </trkpt>
      <trkpt lat="36.1509" lon="-5.34866">
        <ele>10.995423</ele>
        <time>2022-04-17T11:29:28.000Z</time>
      </trkpt>
      <trkpt lat="36.15099" lon="-5.34866">
        <ele>10.979594</ele>
        <time>2022-04-17T11:29:31.000Z</time>
      </trkpt>
      <trkpt lat="36.15106" lon="-5.34865">
        <ele>10.968066</ele>
        <time>2022-04-17T11:29:33.000Z</time>
      </trkpt>
      <trkpt lat="36.15122" lon="-5.34863">
        <ele>10.941753</ele>
        <time>2022-04-17T11:29:39.000Z</time>
      </trkpt>
      <trkpt lat="36.15123" lon="-5.34862">
        <ele>10.938459</ele>
        <time>2022-04-17T11:29:42.000Z</time>
      </trkpt>
      <trkpt lat="36.15123" lon="-5.34862">
        <ele>10.938459</ele>
        <time>2022-04-17T11:29:44.000Z</time>
      </trkpt>
      <trkpt lat="36.15123" lon="-5.34862">
        <ele>10.938459</ele>
        <time>2022-04-17T11:29:57.000Z</time>
      </trkpt>
      <trkpt lat="36.15123" lon="-5.34862">
        <ele>10.938459</ele>
        <time>2022-04-17T11:30:19.000Z</time>
      </trkpt>
      <trkpt lat="36.15123" lon="-5.34862">
        <ele>10.938459</ele>
        <time>2022-04-17T11:30:29.000Z</time>
      </trkpt>
      <trkpt lat="36.15123" lon="-5.34862">
        <ele>10.938459</ele>
        <time>2022-04-17T11:30:36.000Z</time>
      </trkpt>
      <trkpt lat="36.15124" lon="-5.34862">
        <ele>10.938123</ele>
        <time>2022-04-17T11:30:42.000Z</time>
      </trkpt>
      <trkpt lat="36.15131" lon="-5.34861">
        <ele>10.925654</ele>
        <time>2022-04-17T11:30:45.000Z</time>
      </trkpt>
      <trkpt lat="36.1514" lon="-5.34861">
        <ele>10.910325</ele>
        <time>2022-04-17T11:30:48.000Z</time>
      </trkpt>
      <trkpt lat="36.15152" lon="-5.34861">
        <ele>10.889788</ele>
        <time>2022-04-17T11:30:52.000Z</time>
      </trkpt>
      <trkpt lat="36.15158" lon="-5.3486">
        <ele>10.880514</ele>
        <time>2022-04-17T11:30:54.000Z</time>
      </trkpt>
      <trkpt lat="36.15185" lon="-5.34858">
        <ele>10.91161</ele>
        <time>2022-04-17T11:31:02.000Z</time>
      </trkpt>
      <trkpt lat="36.15191" lon="-5.34857">
        <ele>10.926035</ele>
        <time>2022-04-17T11:31:04.000Z</time>
      </trkpt>
      <trkpt lat="36.152" lon="-5.34856">
        <ele>10.94964</ele>
        <time>2022-04-17T11:31:07.000Z</time>
      </trkpt>
      <trkpt lat="36.15213" lon="-5.34856">
        <ele>10.981955</ele>
        <time>2022-04-17T11:31:11.000Z</time>
      </trkpt>
      <trkpt lat="36.15227" lon="-5.34854">
        <ele>11.017806</ele>
        <time>2022-04-17T11:31:15.000Z</time>
      </trkpt>
      <trkpt lat="36.15243" lon="-5.34854">
        <ele>11.059207</ele>
        <time>2022-04-17T11:31:20.000Z</time>
      </trkpt>
      <trkpt lat="36.1525" lon="-5.34854">
        <ele>11.076152</ele>
        <time>2022-04-17T11:31:22.000Z</time>
      </trkpt>
      <trkpt lat="36.15256" lon="-5.34852">
        <ele>11.091495</ele>
        <time>2022-04-17T11:31:24.000Z</time>
      </trkpt>
      <trkpt lat="36.15262" lon="-5.3485">
        <ele>11.106389</ele>
        <time>2022-04-17T11:31:26.000Z</time>
      </trkpt>
      <trkpt lat="36.15279" lon="-5.34849">
        <ele>11.150938</ele>
        <time>2022-04-17T11:31:32.000Z</time>
      </trkpt>
      <trkpt lat="36.15296" lon="-5.34845">
        <ele>11.193945</ele>
        <time>2022-04-17T11:31:37.000Z</time>
      </trkpt>
      <trkpt lat="36.15302" lon="-5.34846">
        <ele>11.209913</ele>
        <time>2022-04-17T11:31:39.000Z</time>
      </trkpt>
      <trkpt lat="36.15314" lon="-5.34846">
        <ele>11.239197</ele>
        <time>2022-04-17T11:31:43.000Z</time>
      </trkpt>
      <trkpt lat="36.15326" lon="-5.34844">
        <ele>11.269876</ele>
        <time>2022-04-17T11:31:47.000Z</time>
      </trkpt>
      <trkpt lat="36.15351" lon="-5.34844">
        <ele>11.306318</ele>
        <time>2022-04-17T11:31:55.000Z</time>
      </trkpt>
      <trkpt lat="36.15362" lon="-5.34842">
        <ele>11.277497</ele>
        <time>2022-04-17T11:31:59.000Z</time>
      </trkpt>
      <trkpt lat="36.15366" lon="-5.34841">
        <ele>11.267387</ele>
        <time>2022-04-17T11:32:00.000Z</time>
      </trkpt>
      <trkpt lat="36.15396" lon="-5.34838">
        <ele>11.187568</ele>
        <time>2022-04-17T11:32:10.000Z</time>
      </trkpt>
      <trkpt lat="36.15408" lon="-5.34836">
        <ele>11.156364</ele>
        <time>2022-04-17T11:32:16.000Z</time>
      </trkpt>
      <trkpt lat="36.15421" lon="-5.34835">
        <ele>11.122651</ele>
        <time>2022-04-17T11:32:24.000Z</time>
      </trkpt>
      <trkpt lat="36.1543" lon="-5.34834">
        <ele>11.100353</ele>
        <time>2022-04-17T11:32:30.000Z</time>
      </trkpt>
      <trkpt lat="36.15434" lon="-5.34834">
        <ele>11.089728</ele>
        <time>2022-04-17T11:32:33.000Z</time>
      </trkpt>
      <trkpt lat="36.15438" lon="-5.34834">
        <ele>11.080934</ele>
        <time>2022-04-17T11:32:35.000Z</time>
      </trkpt>
      <trkpt lat="36.15444" lon="-5.34833">
        <ele>11.063287</ele>
        <time>2022-04-17T11:32:40.000Z</time>
      </trkpt>
      <trkpt lat="36.15447" lon="-5.34832">
        <ele>11.056917</ele>
        <time>2022-04-17T11:32:42.000Z</time>
      </trkpt>
      <trkpt lat="36.15448" lon="-5.34829">
        <ele>11.049998</ele>
        <time>2022-04-17T11:32:44.000Z</time>
      </trkpt>
      <trkpt lat="36.1545" lon="-5.34813">
        <ele>11.016017</ele>
        <time>2022-04-17T11:32:49.000Z</time>
      </trkpt>
      <trkpt lat="36.15456" lon="-5.34793">
        <ele>10.971577</ele>
        <time>2022-04-17T11:32:54.000Z</time>
      </trkpt>
      <trkpt lat="36.15461" lon="-5.34787">
        <ele>10.953637</ele>
        <time>2022-04-17T11:32:56.000Z</time>
      </trkpt>
      <trkpt lat="36.15463" lon="-5.34787">
        <ele>10.947662</ele>
        <time>2022-04-17T11:32:57.000Z</time>
      </trkpt>
      <trkpt lat="36.15469" lon="-5.34792">
        <ele>10.928661</ele>
        <time>2022-04-17T11:33:01.000Z</time>
      </trkpt>
      <trkpt lat="36.15479" lon="-5.34804">
        <ele>10.894319</ele>
        <time>2022-04-17T11:33:08.000Z</time>
      </trkpt>
      <trkpt lat="36.15493" lon="-5.34815">
        <ele>10.85575</ele>
        <time>2022-04-17T11:33:16.000Z</time>
      </trkpt>
      <trkpt lat="36.15498" lon="-5.34814">
        <ele>10.858778</ele>
        <time>2022-04-17T11:33:20.000Z</time>
      </trkpt>
      <trkpt lat="36.155" lon="-5.34813">
        <ele>10.860232</ele>
        <time>2022-04-17T11:33:22.000Z</time>
      </trkpt>
      <trkpt lat="36.15501" lon="-5.34813">
        <ele>10.861084</ele>
        <time>2022-04-17T11:33:23.000Z</time>
      </trkpt>
      <trkpt lat="36.15503" lon="-5.34812">
        <ele>10.862465</ele>
        <time>2022-04-17T11:33:28.000Z</time>
      </trkpt>
      <trkpt lat="36.15503" lon="-5.34812">
        <ele>10.862465</ele>
        <time>2022-04-17T11:33:37.000Z</time>
      </trkpt>
      <trkpt lat="36.15503" lon="-5.34812">
        <ele>10.862564</ele>
        <time>2022-04-17T11:33:53.000Z</time>
      </trkpt>
      <trkpt lat="36.15507" lon="-5.34809">
        <ele>10.864783</ele>
        <time>2022-04-17T11:34:11.000Z</time>
      </trkpt>
      <trkpt lat="36.1551" lon="-5.34802">
        <ele>10.86913</ele>
        <time>2022-04-17T11:34:14.000Z</time>
      </trkpt>
      <trkpt lat="36.15511" lon="-5.34794">
        <ele>10.873201</ele>
        <time>2022-04-17T11:34:18.000Z</time>
      </trkpt>
      <trkpt lat="36.15512" lon="-5.34784">
        <ele>10.87792</ele>
        <time>2022-04-17T11:34:20.000Z</time>
      </trkpt>
      <trkpt lat="36.15514" lon="-5.34777">
        <ele>10.881769</ele>
        <time>2022-04-17T11:34:22.000Z</time>
      </trkpt>
      <trkpt lat="36.15514" lon="-5.34769">
        <ele>10.885549</ele>
        <time>2022-04-17T11:34:25.000Z</time>
      </trkpt>
      <trkpt lat="36.15512" lon="-5.34755">
        <ele>10.89283</ele>
        <time>2022-04-17T11:34:28.000Z</time>
      </trkpt>
      <trkpt lat="36.1551" lon="-5.34743">
        <ele>10.899212</ele>
        <time>2022-04-17T11:34:30.000Z</time>
      </trkpt>
      <trkpt lat="36.15509" lon="-5.34737">
        <ele>10.901877</ele>
        <time>2022-04-17T11:34:31.000Z</time>
      </trkpt>
      <trkpt lat="36.15502" lon="-5.34722">
        <ele>10.910622</ele>
        <time>2022-04-17T11:34:34.000Z</time>
      </trkpt>
      <trkpt lat="36.15502" lon="-5.34719">
        <ele>10.91214</ele>
        <time>2022-04-17T11:34:35.000Z</time>
      </trkpt>
      <trkpt lat="36.15502" lon="-5.34715">
        <ele>10.914077</ele>
        <time>2022-04-17T11:34:37.000Z</time>
      </trkpt>
      <trkpt lat="36.15502" lon="-5.34714">
        <ele>10.914333</ele>
        <time>2022-04-17T11:34:42.000Z</time>
      </trkpt>
      <trkpt lat="36.15502" lon="-5.34714">
        <ele>10.914333</ele>
        <time>2022-04-17T11:34:51.000Z</time>
      </trkpt>
      <trkpt lat="36.15502" lon="-5.34714">
        <ele>10.914449</ele>
        <time>2022-04-17T11:34:53.000Z</time>
      </trkpt>
      <trkpt lat="36.15503" lon="-5.34706">
        <ele>10.918521</ele>
        <time>2022-04-17T11:34:56.000Z</time>
      </trkpt>
      <trkpt lat="36.15505" lon="-5.34694">
        <ele>10.924691</ele>
        <time>2022-04-17T11:35:02.000Z</time>
      </trkpt>
      <trkpt lat="36.15506" lon="-5.34692">
        <ele>10.925894</ele>
        <time>2022-04-17T11:35:05.000Z</time>
      </trkpt>
      <trkpt lat="36.15513" lon="-5.3469">
        <ele>10.930328</ele>
        <time>2022-04-17T11:35:08.000Z</time>
      </trkpt>
      <trkpt lat="36.15523" lon="-5.34701">
        <ele>10.938329</ele>
        <time>2022-04-17T11:35:12.000Z</time>
      </trkpt>
      <trkpt lat="36.15524" lon="-5.34726">
        <ele>10.950984</ele>
        <time>2022-04-17T11:35:18.000Z</time>
      </trkpt>
      <trkpt lat="36.15526" lon="-5.34753">
        <ele>10.964281</ele>
        <time>2022-04-17T11:35:25.000Z</time>
      </trkpt>
      <trkpt lat="36.15536" lon="-5.34758">
        <ele>10.990089</ele>
        <time>2022-04-17T11:35:28.000Z</time>
      </trkpt>
      <trkpt lat="36.15563" lon="-5.34755">
        <ele>11.074426</ele>
        <time>2022-04-17T11:35:36.000Z</time>
      </trkpt>
      <trkpt lat="36.15594" lon="-5.34755">
        <ele>11.167341</ele>
        <time>2022-04-17T11:35:45.000Z</time>
      </trkpt>
      <trkpt lat="36.15604" lon="-5.34763">
        <ele>11.202099</ele>
        <time>2022-04-17T11:35:50.000Z</time>
      </trkpt>
      <trkpt lat="36.15606" lon="-5.34764">
        <ele>11.209182</ele>
        <time>2022-04-17T11:35:53.000Z</time>
      </trkpt>
      <trkpt lat="36.15608" lon="-5.34764">
        <ele>11.215521</ele>
        <time>2022-04-17T11:35:54.000Z</time>
      </trkpt>
      <trkpt lat="36.15625" lon="-5.34766">
        <ele>11.264889</ele>
        <time>2022-04-17T11:36:02.000Z</time>
      </trkpt>
      <trkpt lat="36.15631" lon="-5.34777">
        <ele>11.296793</ele>
        <time>2022-04-17T11:36:06.000Z</time>
      </trkpt>
      <trkpt lat="36.15631" lon="-5.34799">
        <ele>11.351357</ele>
        <time>2022-04-17T11:36:12.000Z</time>
      </trkpt>
      <trkpt lat="36.15632" lon="-5.34825">
        <ele>11.415276</ele>
        <time>2022-04-17T11:36:19.000Z</time>
      </trkpt>
      <trkpt lat="36.15628" lon="-5.34852">
        <ele>11.482221</ele>
        <time>2022-04-17T11:36:27.000Z</time>
      </trkpt>
      <trkpt lat="36.15628" lon="-5.34858">
        <ele>11.494945</ele>
        <time>2022-04-17T11:36:28.000Z</time>
      </trkpt>
      <trkpt lat="36.15624" lon="-5.34898">
        <ele>11.406832</ele>
        <time>2022-04-17T11:36:38.000Z</time>
      </trkpt>
      <trkpt lat="36.15619" lon="-5.34938">
        <ele>11.289944</ele>
        <time>2022-04-17T11:36:48.000Z</time>
      </trkpt>
      <trkpt lat="36.15619" lon="-5.34949">
        <ele>11.25904</ele>
        <time>2022-04-17T11:36:51.000Z</time>
      </trkpt>
      <trkpt lat="36.15617" lon="-5.34973">
        <ele>11.191212</ele>
        <time>2022-04-17T11:36:57.000Z</time>
      </trkpt>
      <trkpt lat="36.15616" lon="-5.35003">
        <ele>11.105721</ele>
        <time>2022-04-17T11:37:04.000Z</time>
      </trkpt>
      <trkpt lat="36.15615" lon="-5.35023">
        <ele>11.04713</ele>
        <time>2022-04-17T11:37:09.000Z</time>
      </trkpt>
      <trkpt lat="36.15616" lon="-5.35037">
        <ele>11.006489</ele>
        <time>2022-04-17T11:37:12.000Z</time>
      </trkpt>
      <trkpt lat="36.15618" lon="-5.35066">
        <ele>10.924448</ele>
        <time>2022-04-17T11:37:19.000Z</time>
      </trkpt>
      <trkpt lat="36.15626" lon="-5.35104">
        <ele>10.871494</ele>
        <time>2022-04-17T11:37:28.000Z</time>
      </trkpt>
      <trkpt lat="36.1564" lon="-5.35137">
        <ele>10.871494</ele>
        <time>2022-04-17T11:37:36.000Z</time>
      </trkpt>
      <trkpt lat="36.15657" lon="-5.35165">
        <ele>10.871494</ele>
        <time>2022-04-17T11:37:43.000Z</time>
      </trkpt>
      <trkpt lat="36.15659" lon="-5.3518">
        <ele>10.871494</ele>
        <time>2022-04-17T11:37:46.000Z</time>
      </trkpt>
      <trkpt lat="36.15664" lon="-5.35188">
        <ele>10.871494</ele>
        <time>2022-04-17T11:37:48.000Z</time>
      </trkpt>
      <trkpt lat="36.15668" lon="-5.35195">
        <ele>10.871494</ele>
        <time>2022-04-17T11:37:50.000Z</time>
      </trkpt>
      <trkpt lat="36.15681" lon="-5.3521">
        <ele>10.871494</ele>
        <time>2022-04-17T11:37:54.000Z</time>
      </trkpt>
      <trkpt lat="36.15691" lon="-5.3522">
        <ele>10.871494</ele>
        <time>2022-04-17T11:37:57.000Z</time>
      </trkpt>
      <trkpt lat="36.15697" lon="-5.35226">
        <ele>10.871494</ele>
        <time>2022-04-17T11:37:59.000Z</time>
      </trkpt>
      <trkpt lat="36.157" lon="-5.35229">
        <ele>10.871494</ele>
        <time>2022-04-17T11:38:00.000Z</time>
      </trkpt>
      <trkpt lat="36.15727" lon="-5.35253">
        <ele>10.871494</ele>
        <time>2022-04-17T11:38:08.000Z</time>
      </trkpt>
      <trkpt lat="36.1573" lon="-5.35255">
        <ele>10.871494</ele>
        <time>2022-04-17T11:38:09.000Z</time>
      </trkpt>
      <trkpt lat="36.15751" lon="-5.3527">
        <ele>10.871494</ele>
        <time>2022-04-17T11:38:16.000Z</time>
      </trkpt>
      <trkpt lat="36.15773" lon="-5.35282">
        <ele>10.871494</ele>
        <time>2022-04-17T11:38:23.000Z</time>
      </trkpt>
      <trkpt lat="36.15792" lon="-5.35293">
        <ele>10.871494</ele>
        <time>2022-04-17T11:38:30.000Z</time>
      </trkpt>
      <trkpt lat="36.15799" lon="-5.35296">
        <ele>10.871494</ele>
        <time>2022-04-17T11:38:35.000Z</time>
      </trkpt>
      <trkpt lat="36.158" lon="-5.35294">
        <ele>10.871494</ele>
        <time>2022-04-17T11:38:43.000Z</time>
      </trkpt>
    </trkseg>
  </trk>
</gpx>